<?xml version="1.0" encoding="UTF-8" standalone="no" ?>
<gpx xmlns="http://www.topografix.com/GPX/1/1" xmlns:xsi="http://www.w3.org/2001/XMLSchema-instance" xsi:schemaLocation="http://www.topografix.com/GPX/1/1 http://www.topografix.com/GPX/1/1/gpx.xsd" version="1.1" creator="VisuGPX - https://www.visugpx.com">
  <metadata>
    <name>Clairmarais </name>
    <desc><![CDATA[Petite boucle au départ de la grange nature à Clairmarais de 4.4 Km]]></desc>
  </metadata>
  <trk>
    <name><![CDATA[Clairmarais _1]]></name>
    <trkseg>
      <trkpt lat="50.77419" lon="2.29971">
        <ele>5.6</ele>
        <time>2025-10-01T12:31:28Z</time>
      </trkpt>
      <trkpt lat="50.77422" lon="2.29968">
        <ele>5.6</ele>
        <time>2025-10-01T12:31:33Z</time>
      </trkpt>
      <trkpt lat="50.77422" lon="2.29968">
        <ele>5.6</ele>
        <time>2025-10-01T12:31:34Z</time>
      </trkpt>
      <trkpt lat="50.77423" lon="2.29962">
        <ele>5.2</ele>
        <time>2025-10-01T12:31:44Z</time>
      </trkpt>
      <trkpt lat="50.77424" lon="2.29957">
        <ele>5.2</ele>
        <time>2025-10-01T12:31:47Z</time>
      </trkpt>
      <trkpt lat="50.77424" lon="2.29955">
        <ele>5.2</ele>
        <time>2025-10-01T12:31:48Z</time>
      </trkpt>
      <trkpt lat="50.77423" lon="2.29951">
        <ele>5.2</ele>
        <time>2025-10-01T12:31:50Z</time>
      </trkpt>
      <trkpt lat="50.77423" lon="2.29948">
        <ele>5.2</ele>
        <time>2025-10-01T12:31:51Z</time>
      </trkpt>
      <trkpt lat="50.77424" lon="2.29945">
        <ele>5.2</ele>
        <time>2025-10-01T12:31:53Z</time>
      </trkpt>
      <trkpt lat="50.77425" lon="2.29944">
        <ele>5.2</ele>
        <time>2025-10-01T12:31:54Z</time>
      </trkpt>
      <trkpt lat="50.77427" lon="2.29943">
        <ele>5.2</ele>
        <time>2025-10-01T12:31:55Z</time>
      </trkpt>
      <trkpt lat="50.77428" lon="2.29941">
        <ele>5</ele>
        <time>2025-10-01T12:31:56Z</time>
      </trkpt>
      <trkpt lat="50.77429" lon="2.2994">
        <ele>5</ele>
        <time>2025-10-01T12:31:57Z</time>
      </trkpt>
      <trkpt lat="50.77431" lon="2.29938">
        <ele>5</ele>
        <time>2025-10-01T12:31:59Z</time>
      </trkpt>
      <trkpt lat="50.77433" lon="2.29937">
        <ele>4.8</ele>
        <time>2025-10-01T12:32:00Z</time>
      </trkpt>
      <trkpt lat="50.77434" lon="2.29935">
        <ele>4.8</ele>
        <time>2025-10-01T12:32:01Z</time>
      </trkpt>
      <trkpt lat="50.77438" lon="2.29929">
        <ele>4.8</ele>
        <time>2025-10-01T12:32:04Z</time>
      </trkpt>
      <trkpt lat="50.77439" lon="2.29928">
        <ele>4.8</ele>
        <time>2025-10-01T12:32:05Z</time>
      </trkpt>
      <trkpt lat="50.7744" lon="2.29926">
        <ele>4.8</ele>
        <time>2025-10-01T12:32:06Z</time>
      </trkpt>
      <trkpt lat="50.77443" lon="2.29923">
        <ele>4.8</ele>
        <time>2025-10-01T12:32:09Z</time>
      </trkpt>
      <trkpt lat="50.77445" lon="2.2992">
        <ele>4.8</ele>
        <time>2025-10-01T12:32:11Z</time>
      </trkpt>
      <trkpt lat="50.77446" lon="2.29918">
        <ele>5</ele>
        <time>2025-10-01T12:32:12Z</time>
      </trkpt>
      <trkpt lat="50.77447" lon="2.29916">
        <ele>5</ele>
        <time>2025-10-01T12:32:13Z</time>
      </trkpt>
      <trkpt lat="50.77448" lon="2.29915">
        <ele>5</ele>
        <time>2025-10-01T12:32:14Z</time>
      </trkpt>
      <trkpt lat="50.77448" lon="2.29913">
        <ele>5</ele>
        <time>2025-10-01T12:32:15Z</time>
      </trkpt>
      <trkpt lat="50.77449" lon="2.29911">
        <ele>5</ele>
        <time>2025-10-01T12:32:16Z</time>
      </trkpt>
      <trkpt lat="50.7745" lon="2.2991">
        <ele>5</ele>
        <time>2025-10-01T12:32:17Z</time>
      </trkpt>
      <trkpt lat="50.77451" lon="2.29908">
        <ele>5</ele>
        <time>2025-10-01T12:32:18Z</time>
      </trkpt>
      <trkpt lat="50.77452" lon="2.29907">
        <ele>5</ele>
        <time>2025-10-01T12:32:20Z</time>
      </trkpt>
      <trkpt lat="50.77452" lon="2.29906">
        <ele>5.2</ele>
        <time>2025-10-01T12:32:21Z</time>
      </trkpt>
      <trkpt lat="50.77453" lon="2.29905">
        <ele>5.2</ele>
        <time>2025-10-01T12:32:22Z</time>
      </trkpt>
      <trkpt lat="50.77453" lon="2.29904">
        <ele>5.2</ele>
        <time>2025-10-01T12:32:23Z</time>
      </trkpt>
      <trkpt lat="50.77454" lon="2.29902">
        <ele>5.2</ele>
        <time>2025-10-01T12:32:24Z</time>
      </trkpt>
      <trkpt lat="50.77455" lon="2.299">
        <ele>5.4</ele>
        <time>2025-10-01T12:32:25Z</time>
      </trkpt>
      <trkpt lat="50.77456" lon="2.29899">
        <ele>5.4</ele>
        <time>2025-10-01T12:32:26Z</time>
      </trkpt>
      <trkpt lat="50.77456" lon="2.29898">
        <ele>5.4</ele>
        <time>2025-10-01T12:32:27Z</time>
      </trkpt>
      <trkpt lat="50.77458" lon="2.29896">
        <ele>5.4</ele>
        <time>2025-10-01T12:32:28Z</time>
      </trkpt>
      <trkpt lat="50.77459" lon="2.29895">
        <ele>5.4</ele>
        <time>2025-10-01T12:32:29Z</time>
      </trkpt>
      <trkpt lat="50.7746" lon="2.29893">
        <ele>5.4</ele>
        <time>2025-10-01T12:32:30Z</time>
      </trkpt>
      <trkpt lat="50.77461" lon="2.29891">
        <ele>5.4</ele>
        <time>2025-10-01T12:32:31Z</time>
      </trkpt>
      <trkpt lat="50.77461" lon="2.29889">
        <ele>5.4</ele>
        <time>2025-10-01T12:32:32Z</time>
      </trkpt>
      <trkpt lat="50.77465" lon="2.2988">
        <ele>5.6</ele>
        <time>2025-10-01T12:32:37Z</time>
      </trkpt>
      <trkpt lat="50.77466" lon="2.29875">
        <ele>5.6</ele>
        <time>2025-10-01T12:32:39Z</time>
      </trkpt>
      <trkpt lat="50.77466" lon="2.29873">
        <ele>5.6</ele>
        <time>2025-10-01T12:32:40Z</time>
      </trkpt>
      <trkpt lat="50.77468" lon="2.29871">
        <ele>5.6</ele>
        <time>2025-10-01T12:32:41Z</time>
      </trkpt>
      <trkpt lat="50.77469" lon="2.2987">
        <ele>5.6</ele>
        <time>2025-10-01T12:32:42Z</time>
      </trkpt>
      <trkpt lat="50.7747" lon="2.29869">
        <ele>5.6</ele>
        <time>2025-10-01T12:32:43Z</time>
      </trkpt>
      <trkpt lat="50.77471" lon="2.29868">
        <ele>5.6</ele>
        <time>2025-10-01T12:32:44Z</time>
      </trkpt>
      <trkpt lat="50.77471" lon="2.29868">
        <ele>5.6</ele>
        <time>2025-10-01T12:32:45Z</time>
      </trkpt>
      <trkpt lat="50.77471" lon="2.29868">
        <ele>5.6</ele>
        <time>2025-10-01T12:32:46Z</time>
      </trkpt>
      <trkpt lat="50.77472" lon="2.29867">
        <ele>5.6</ele>
        <time>2025-10-01T12:32:47Z</time>
      </trkpt>
      <trkpt lat="50.77471" lon="2.29867">
        <ele>5.6</ele>
        <time>2025-10-01T12:32:49Z</time>
      </trkpt>
      <trkpt lat="50.77471" lon="2.29866">
        <ele>5.6</ele>
        <time>2025-10-01T12:32:51Z</time>
      </trkpt>
      <trkpt lat="50.77471" lon="2.29866">
        <ele>5.6</ele>
        <time>2025-10-01T12:32:52Z</time>
      </trkpt>
      <trkpt lat="50.77471" lon="2.29866">
        <ele>5.6</ele>
        <time>2025-10-01T12:32:53Z</time>
      </trkpt>
      <trkpt lat="50.77471" lon="2.29866">
        <ele>5.4</ele>
        <time>2025-10-01T12:32:54Z</time>
      </trkpt>
      <trkpt lat="50.77474" lon="2.29867">
        <ele>5.4</ele>
        <time>2025-10-01T12:32:58Z</time>
      </trkpt>
      <trkpt lat="50.77475" lon="2.29867">
        <ele>5.4</ele>
        <time>2025-10-01T12:32:59Z</time>
      </trkpt>
      <trkpt lat="50.77479" lon="2.29868">
        <ele>5.4</ele>
        <time>2025-10-01T12:33:02Z</time>
      </trkpt>
      <trkpt lat="50.7748" lon="2.29869">
        <ele>5.4</ele>
        <time>2025-10-01T12:33:03Z</time>
      </trkpt>
      <trkpt lat="50.77481" lon="2.2987">
        <ele>5.4</ele>
        <time>2025-10-01T12:33:04Z</time>
      </trkpt>
      <trkpt lat="50.77482" lon="2.2987">
        <ele>5.2</ele>
        <time>2025-10-01T12:33:05Z</time>
      </trkpt>
      <trkpt lat="50.77484" lon="2.29871">
        <ele>5.2</ele>
        <time>2025-10-01T12:33:06Z</time>
      </trkpt>
      <trkpt lat="50.77487" lon="2.29871">
        <ele>5.2</ele>
        <time>2025-10-01T12:33:08Z</time>
      </trkpt>
      <trkpt lat="50.77488" lon="2.29872">
        <ele>5.2</ele>
        <time>2025-10-01T12:33:09Z</time>
      </trkpt>
      <trkpt lat="50.77489" lon="2.29872">
        <ele>5.2</ele>
        <time>2025-10-01T12:33:10Z</time>
      </trkpt>
      <trkpt lat="50.7749" lon="2.29872">
        <ele>5.2</ele>
        <time>2025-10-01T12:33:11Z</time>
      </trkpt>
      <trkpt lat="50.77492" lon="2.29872">
        <ele>5.2</ele>
        <time>2025-10-01T12:33:13Z</time>
      </trkpt>
      <trkpt lat="50.77494" lon="2.29872">
        <ele>5.2</ele>
        <time>2025-10-01T12:33:14Z</time>
      </trkpt>
      <trkpt lat="50.77495" lon="2.29871">
        <ele>5.2</ele>
        <time>2025-10-01T12:33:15Z</time>
      </trkpt>
      <trkpt lat="50.775" lon="2.29868">
        <ele>5</ele>
        <time>2025-10-01T12:33:19Z</time>
      </trkpt>
      <trkpt lat="50.77501" lon="2.29866">
        <ele>4.8</ele>
        <time>2025-10-01T12:33:20Z</time>
      </trkpt>
      <trkpt lat="50.77503" lon="2.29865">
        <ele>4.8</ele>
        <time>2025-10-01T12:33:21Z</time>
      </trkpt>
      <trkpt lat="50.77504" lon="2.29864">
        <ele>4.8</ele>
        <time>2025-10-01T12:33:22Z</time>
      </trkpt>
      <trkpt lat="50.77505" lon="2.29863">
        <ele>4.8</ele>
        <time>2025-10-01T12:33:24Z</time>
      </trkpt>
      <trkpt lat="50.77509" lon="2.29861">
        <ele>4.8</ele>
        <time>2025-10-01T12:33:27Z</time>
      </trkpt>
      <trkpt lat="50.7751" lon="2.2986">
        <ele>4.8</ele>
        <time>2025-10-01T12:33:28Z</time>
      </trkpt>
      <trkpt lat="50.77511" lon="2.2986">
        <ele>4.8</ele>
        <time>2025-10-01T12:33:29Z</time>
      </trkpt>
      <trkpt lat="50.77515" lon="2.29859">
        <ele>4.8</ele>
        <time>2025-10-01T12:33:32Z</time>
      </trkpt>
      <trkpt lat="50.77515" lon="2.2986">
        <ele>4.6</ele>
        <time>2025-10-01T12:33:33Z</time>
      </trkpt>
      <trkpt lat="50.77516" lon="2.29861">
        <ele>4.6</ele>
        <time>2025-10-01T12:33:34Z</time>
      </trkpt>
      <trkpt lat="50.77517" lon="2.29861">
        <ele>4.6</ele>
        <time>2025-10-01T12:33:35Z</time>
      </trkpt>
      <trkpt lat="50.77518" lon="2.2986">
        <ele>4.6</ele>
        <time>2025-10-01T12:33:36Z</time>
      </trkpt>
      <trkpt lat="50.77519" lon="2.2986">
        <ele>4.6</ele>
        <time>2025-10-01T12:33:37Z</time>
      </trkpt>
      <trkpt lat="50.77521" lon="2.2986">
        <ele>4.6</ele>
        <time>2025-10-01T12:33:38Z</time>
      </trkpt>
      <trkpt lat="50.77525" lon="2.29861">
        <ele>4.6</ele>
        <time>2025-10-01T12:33:40Z</time>
      </trkpt>
      <trkpt lat="50.77526" lon="2.29862">
        <ele>4.6</ele>
        <time>2025-10-01T12:33:41Z</time>
      </trkpt>
      <trkpt lat="50.77529" lon="2.29863">
        <ele>4.6</ele>
        <time>2025-10-01T12:33:43Z</time>
      </trkpt>
      <trkpt lat="50.77536" lon="2.29865">
        <ele>4.6</ele>
        <time>2025-10-01T12:33:48Z</time>
      </trkpt>
      <trkpt lat="50.7754" lon="2.29868">
        <ele>4.6</ele>
        <time>2025-10-01T12:33:52Z</time>
      </trkpt>
      <trkpt lat="50.77542" lon="2.29868">
        <ele>4.6</ele>
        <time>2025-10-01T12:33:53Z</time>
      </trkpt>
      <trkpt lat="50.77545" lon="2.29871">
        <ele>4.6</ele>
        <time>2025-10-01T12:33:56Z</time>
      </trkpt>
      <trkpt lat="50.77547" lon="2.29872">
        <ele>4.6</ele>
        <time>2025-10-01T12:33:57Z</time>
      </trkpt>
      <trkpt lat="50.77548" lon="2.29873">
        <ele>4.6</ele>
        <time>2025-10-01T12:33:58Z</time>
      </trkpt>
      <trkpt lat="50.77553" lon="2.29876">
        <ele>4.6</ele>
        <time>2025-10-01T12:34:02Z</time>
      </trkpt>
      <trkpt lat="50.77558" lon="2.29879">
        <ele>4.6</ele>
        <time>2025-10-01T12:34:05Z</time>
      </trkpt>
      <trkpt lat="50.77567" lon="2.29884">
        <ele>4.6</ele>
        <time>2025-10-01T12:34:12Z</time>
      </trkpt>
      <trkpt lat="50.77568" lon="2.29884">
        <ele>4.6</ele>
        <time>2025-10-01T12:34:13Z</time>
      </trkpt>
      <trkpt lat="50.77574" lon="2.29888">
        <ele>4.8</ele>
        <time>2025-10-01T12:34:17Z</time>
      </trkpt>
      <trkpt lat="50.77575" lon="2.29889">
        <ele>4.6</ele>
        <time>2025-10-01T12:34:18Z</time>
      </trkpt>
      <trkpt lat="50.77577" lon="2.2989">
        <ele>4.6</ele>
        <time>2025-10-01T12:34:19Z</time>
      </trkpt>
      <trkpt lat="50.77578" lon="2.29891">
        <ele>4.6</ele>
        <time>2025-10-01T12:34:20Z</time>
      </trkpt>
      <trkpt lat="50.77581" lon="2.29893">
        <ele>4.6</ele>
        <time>2025-10-01T12:34:22Z</time>
      </trkpt>
      <trkpt lat="50.77586" lon="2.29894">
        <ele>4.6</ele>
        <time>2025-10-01T12:34:26Z</time>
      </trkpt>
      <trkpt lat="50.77587" lon="2.29894">
        <ele>4.6</ele>
        <time>2025-10-01T12:34:27Z</time>
      </trkpt>
      <trkpt lat="50.7759" lon="2.29893">
        <ele>4.4</ele>
        <time>2025-10-01T12:34:29Z</time>
      </trkpt>
      <trkpt lat="50.77595" lon="2.29892">
        <ele>4.4</ele>
        <time>2025-10-01T12:34:33Z</time>
      </trkpt>
      <trkpt lat="50.77597" lon="2.29892">
        <ele>4.4</ele>
        <time>2025-10-01T12:34:34Z</time>
      </trkpt>
      <trkpt lat="50.77598" lon="2.29891">
        <ele>4.4</ele>
        <time>2025-10-01T12:34:35Z</time>
      </trkpt>
      <trkpt lat="50.77599" lon="2.29891">
        <ele>4.4</ele>
        <time>2025-10-01T12:34:36Z</time>
      </trkpt>
      <trkpt lat="50.776" lon="2.2989">
        <ele>4.6</ele>
        <time>2025-10-01T12:34:37Z</time>
      </trkpt>
      <trkpt lat="50.77601" lon="2.29889">
        <ele>4.4</ele>
        <time>2025-10-01T12:34:38Z</time>
      </trkpt>
      <trkpt lat="50.77602" lon="2.29888">
        <ele>4.4</ele>
        <time>2025-10-01T12:34:39Z</time>
      </trkpt>
      <trkpt lat="50.77603" lon="2.29887">
        <ele>4.4</ele>
        <time>2025-10-01T12:34:40Z</time>
      </trkpt>
      <trkpt lat="50.77605" lon="2.29887">
        <ele>4.6</ele>
        <time>2025-10-01T12:34:41Z</time>
      </trkpt>
      <trkpt lat="50.77606" lon="2.29886">
        <ele>4.6</ele>
        <time>2025-10-01T12:34:42Z</time>
      </trkpt>
      <trkpt lat="50.7761" lon="2.29885">
        <ele>4.6</ele>
        <time>2025-10-01T12:34:45Z</time>
      </trkpt>
      <trkpt lat="50.77611" lon="2.29884">
        <ele>4.6</ele>
        <time>2025-10-01T12:34:46Z</time>
      </trkpt>
      <trkpt lat="50.77615" lon="2.29882">
        <ele>4.8</ele>
        <time>2025-10-01T12:34:49Z</time>
      </trkpt>
      <trkpt lat="50.77617" lon="2.29882">
        <ele>4.8</ele>
        <time>2025-10-01T12:34:50Z</time>
      </trkpt>
      <trkpt lat="50.77618" lon="2.29881">
        <ele>4.8</ele>
        <time>2025-10-01T12:34:51Z</time>
      </trkpt>
      <trkpt lat="50.77619" lon="2.2988">
        <ele>4.8</ele>
        <time>2025-10-01T12:34:52Z</time>
      </trkpt>
      <trkpt lat="50.77619" lon="2.2988">
        <ele>4.8</ele>
        <time>2025-10-01T12:34:53Z</time>
      </trkpt>
      <trkpt lat="50.77619" lon="2.2988">
        <ele>4.8</ele>
        <time>2025-10-01T12:34:54Z</time>
      </trkpt>
      <trkpt lat="50.77619" lon="2.2988">
        <ele>4.8</ele>
        <time>2025-10-01T12:34:55Z</time>
      </trkpt>
      <trkpt lat="50.77619" lon="2.2988">
        <ele>4.8</ele>
        <time>2025-10-01T12:34:56Z</time>
      </trkpt>
      <trkpt lat="50.7762" lon="2.29875">
        <ele>4.8</ele>
        <time>2025-10-01T12:35:00Z</time>
      </trkpt>
      <trkpt lat="50.77621" lon="2.29867">
        <ele>4.6</ele>
        <time>2025-10-01T12:35:05Z</time>
      </trkpt>
      <trkpt lat="50.77619" lon="2.29861">
        <ele>4.4</ele>
        <time>2025-10-01T12:35:08Z</time>
      </trkpt>
      <trkpt lat="50.77619" lon="2.29858">
        <ele>4.4</ele>
        <time>2025-10-01T12:35:09Z</time>
      </trkpt>
      <trkpt lat="50.77617" lon="2.29851">
        <ele>4.4</ele>
        <time>2025-10-01T12:35:12Z</time>
      </trkpt>
      <trkpt lat="50.77616" lon="2.2985">
        <ele>4.4</ele>
        <time>2025-10-01T12:35:13Z</time>
      </trkpt>
      <trkpt lat="50.77616" lon="2.29848">
        <ele>4.4</ele>
        <time>2025-10-01T12:35:14Z</time>
      </trkpt>
      <trkpt lat="50.77615" lon="2.29846">
        <ele>4.4</ele>
        <time>2025-10-01T12:35:15Z</time>
      </trkpt>
      <trkpt lat="50.77614" lon="2.29841">
        <ele>4.2</ele>
        <time>2025-10-01T12:35:18Z</time>
      </trkpt>
      <trkpt lat="50.77613" lon="2.29839">
        <ele>4.2</ele>
        <time>2025-10-01T12:35:19Z</time>
      </trkpt>
      <trkpt lat="50.77611" lon="2.29834">
        <ele>4.2</ele>
        <time>2025-10-01T12:35:22Z</time>
      </trkpt>
      <trkpt lat="50.7761" lon="2.29832">
        <ele>4.2</ele>
        <time>2025-10-01T12:35:23Z</time>
      </trkpt>
      <trkpt lat="50.7761" lon="2.29831">
        <ele>4.2</ele>
        <time>2025-10-01T12:35:24Z</time>
      </trkpt>
      <trkpt lat="50.77608" lon="2.29826">
        <ele>4.2</ele>
        <time>2025-10-01T12:35:26Z</time>
      </trkpt>
      <trkpt lat="50.77604" lon="2.29812">
        <ele>4.2</ele>
        <time>2025-10-01T12:35:32Z</time>
      </trkpt>
      <trkpt lat="50.77603" lon="2.2981">
        <ele>4.4</ele>
        <time>2025-10-01T12:35:33Z</time>
      </trkpt>
      <trkpt lat="50.77601" lon="2.298">
        <ele>4.4</ele>
        <time>2025-10-01T12:35:38Z</time>
      </trkpt>
      <trkpt lat="50.77601" lon="2.29798">
        <ele>4.4</ele>
        <time>2025-10-01T12:35:39Z</time>
      </trkpt>
      <trkpt lat="50.776" lon="2.29797">
        <ele>4.4</ele>
        <time>2025-10-01T12:35:40Z</time>
      </trkpt>
      <trkpt lat="50.776" lon="2.29795">
        <ele>4.4</ele>
        <time>2025-10-01T12:35:41Z</time>
      </trkpt>
      <trkpt lat="50.776" lon="2.29793">
        <ele>4.4</ele>
        <time>2025-10-01T12:35:42Z</time>
      </trkpt>
      <trkpt lat="50.776" lon="2.29791">
        <ele>4.4</ele>
        <time>2025-10-01T12:35:43Z</time>
      </trkpt>
      <trkpt lat="50.776" lon="2.29785">
        <ele>4.4</ele>
        <time>2025-10-01T12:35:46Z</time>
      </trkpt>
      <trkpt lat="50.776" lon="2.29784">
        <ele>4.4</ele>
        <time>2025-10-01T12:35:47Z</time>
      </trkpt>
      <trkpt lat="50.776" lon="2.29783">
        <ele>4.4</ele>
        <time>2025-10-01T12:35:48Z</time>
      </trkpt>
      <trkpt lat="50.776" lon="2.2978">
        <ele>4.4</ele>
        <time>2025-10-01T12:35:49Z</time>
      </trkpt>
      <trkpt lat="50.776" lon="2.29778">
        <ele>4.4</ele>
        <time>2025-10-01T12:35:50Z</time>
      </trkpt>
      <trkpt lat="50.77601" lon="2.29773">
        <ele>4.4</ele>
        <time>2025-10-01T12:35:52Z</time>
      </trkpt>
      <trkpt lat="50.77601" lon="2.29769">
        <ele>4.4</ele>
        <time>2025-10-01T12:35:54Z</time>
      </trkpt>
      <trkpt lat="50.77601" lon="2.29767">
        <ele>4.4</ele>
        <time>2025-10-01T12:35:55Z</time>
      </trkpt>
      <trkpt lat="50.77601" lon="2.29765">
        <ele>4.4</ele>
        <time>2025-10-01T12:35:56Z</time>
      </trkpt>
      <trkpt lat="50.77601" lon="2.29764">
        <ele>4.4</ele>
        <time>2025-10-01T12:35:57Z</time>
      </trkpt>
      <trkpt lat="50.77601" lon="2.29762">
        <ele>4.4</ele>
        <time>2025-10-01T12:35:58Z</time>
      </trkpt>
      <trkpt lat="50.77601" lon="2.2976">
        <ele>4.6</ele>
        <time>2025-10-01T12:35:59Z</time>
      </trkpt>
      <trkpt lat="50.77602" lon="2.29758">
        <ele>4.6</ele>
        <time>2025-10-01T12:36:00Z</time>
      </trkpt>
      <trkpt lat="50.77602" lon="2.29757">
        <ele>4.6</ele>
        <time>2025-10-01T12:36:01Z</time>
      </trkpt>
      <trkpt lat="50.77602" lon="2.29756">
        <ele>4.6</ele>
        <time>2025-10-01T12:36:02Z</time>
      </trkpt>
      <trkpt lat="50.77602" lon="2.29754">
        <ele>4.6</ele>
        <time>2025-10-01T12:36:03Z</time>
      </trkpt>
      <trkpt lat="50.77603" lon="2.29754">
        <ele>4.4</ele>
        <time>2025-10-01T12:36:04Z</time>
      </trkpt>
      <trkpt lat="50.77603" lon="2.29753">
        <ele>4.4</ele>
        <time>2025-10-01T12:36:05Z</time>
      </trkpt>
      <trkpt lat="50.77602" lon="2.29753">
        <ele>4.4</ele>
        <time>2025-10-01T12:36:06Z</time>
      </trkpt>
      <trkpt lat="50.77602" lon="2.29751">
        <ele>4.4</ele>
        <time>2025-10-01T12:36:07Z</time>
      </trkpt>
      <trkpt lat="50.77603" lon="2.29745">
        <ele>4.4</ele>
        <time>2025-10-01T12:36:10Z</time>
      </trkpt>
      <trkpt lat="50.77602" lon="2.29737">
        <ele>4.2</ele>
        <time>2025-10-01T12:36:14Z</time>
      </trkpt>
      <trkpt lat="50.77602" lon="2.29734">
        <ele>4.2</ele>
        <time>2025-10-01T12:36:15Z</time>
      </trkpt>
      <trkpt lat="50.77601" lon="2.29731">
        <ele>4.2</ele>
        <time>2025-10-01T12:36:16Z</time>
      </trkpt>
      <trkpt lat="50.77601" lon="2.29729">
        <ele>4.2</ele>
        <time>2025-10-01T12:36:17Z</time>
      </trkpt>
      <trkpt lat="50.77601" lon="2.29725">
        <ele>4.2</ele>
        <time>2025-10-01T12:36:19Z</time>
      </trkpt>
      <trkpt lat="50.77601" lon="2.29722">
        <ele>4</ele>
        <time>2025-10-01T12:36:20Z</time>
      </trkpt>
      <trkpt lat="50.77601" lon="2.2972">
        <ele>4</ele>
        <time>2025-10-01T12:36:21Z</time>
      </trkpt>
      <trkpt lat="50.776" lon="2.29714">
        <ele>4</ele>
        <time>2025-10-01T12:36:23Z</time>
      </trkpt>
      <trkpt lat="50.77599" lon="2.29703">
        <ele>4</ele>
        <time>2025-10-01T12:36:27Z</time>
      </trkpt>
      <trkpt lat="50.77599" lon="2.297">
        <ele>4</ele>
        <time>2025-10-01T12:36:28Z</time>
      </trkpt>
      <trkpt lat="50.77599" lon="2.29699">
        <ele>4</ele>
        <time>2025-10-01T12:36:29Z</time>
      </trkpt>
      <trkpt lat="50.77599" lon="2.29699">
        <ele>4</ele>
        <time>2025-10-01T12:36:30Z</time>
      </trkpt>
      <trkpt lat="50.776" lon="2.297">
        <ele>4</ele>
        <time>2025-10-01T12:36:32Z</time>
      </trkpt>
      <trkpt lat="50.776" lon="2.29699">
        <ele>3.8</ele>
        <time>2025-10-01T12:36:33Z</time>
      </trkpt>
      <trkpt lat="50.77599" lon="2.29694">
        <ele>3.8</ele>
        <time>2025-10-01T12:36:35Z</time>
      </trkpt>
      <trkpt lat="50.77598" lon="2.29688">
        <ele>3.8</ele>
        <time>2025-10-01T12:36:38Z</time>
      </trkpt>
      <trkpt lat="50.776" lon="2.29686">
        <ele>3.8</ele>
        <time>2025-10-01T12:36:39Z</time>
      </trkpt>
      <trkpt lat="50.776" lon="2.29685">
        <ele>3.8</ele>
        <time>2025-10-01T12:36:41Z</time>
      </trkpt>
      <trkpt lat="50.776" lon="2.29681">
        <ele>3.8</ele>
        <time>2025-10-01T12:36:42Z</time>
      </trkpt>
      <trkpt lat="50.776" lon="2.29679">
        <ele>3.6</ele>
        <time>2025-10-01T12:36:43Z</time>
      </trkpt>
      <trkpt lat="50.776" lon="2.29677">
        <ele>3.6</ele>
        <time>2025-10-01T12:36:44Z</time>
      </trkpt>
      <trkpt lat="50.77598" lon="2.29666">
        <ele>3.6</ele>
        <time>2025-10-01T12:36:47Z</time>
      </trkpt>
      <trkpt lat="50.77597" lon="2.29661">
        <ele>3.6</ele>
        <time>2025-10-01T12:36:48Z</time>
      </trkpt>
      <trkpt lat="50.77596" lon="2.29658">
        <ele>3.6</ele>
        <time>2025-10-01T12:36:49Z</time>
      </trkpt>
      <trkpt lat="50.77596" lon="2.29651">
        <ele>3.8</ele>
        <time>2025-10-01T12:36:51Z</time>
      </trkpt>
      <trkpt lat="50.77597" lon="2.29649">
        <ele>3.8</ele>
        <time>2025-10-01T12:36:52Z</time>
      </trkpt>
      <trkpt lat="50.77598" lon="2.29647">
        <ele>3.8</ele>
        <time>2025-10-01T12:36:53Z</time>
      </trkpt>
      <trkpt lat="50.77598" lon="2.29644">
        <ele>3.8</ele>
        <time>2025-10-01T12:36:54Z</time>
      </trkpt>
      <trkpt lat="50.77599" lon="2.29642">
        <ele>3.8</ele>
        <time>2025-10-01T12:36:55Z</time>
      </trkpt>
      <trkpt lat="50.77599" lon="2.29639">
        <ele>4</ele>
        <time>2025-10-01T12:36:56Z</time>
      </trkpt>
      <trkpt lat="50.77598" lon="2.29636">
        <ele>4</ele>
        <time>2025-10-01T12:36:57Z</time>
      </trkpt>
      <trkpt lat="50.77598" lon="2.29635">
        <ele>4</ele>
        <time>2025-10-01T12:36:58Z</time>
      </trkpt>
      <trkpt lat="50.77598" lon="2.29634">
        <ele>4.2</ele>
        <time>2025-10-01T12:36:59Z</time>
      </trkpt>
      <trkpt lat="50.77598" lon="2.29632">
        <ele>4.2</ele>
        <time>2025-10-01T12:37:00Z</time>
      </trkpt>
      <trkpt lat="50.77598" lon="2.29631">
        <ele>4.2</ele>
        <time>2025-10-01T12:37:01Z</time>
      </trkpt>
      <trkpt lat="50.77598" lon="2.29629">
        <ele>4.2</ele>
        <time>2025-10-01T12:37:02Z</time>
      </trkpt>
      <trkpt lat="50.77598" lon="2.29627">
        <ele>4.2</ele>
        <time>2025-10-01T12:37:03Z</time>
      </trkpt>
      <trkpt lat="50.77597" lon="2.29626">
        <ele>4</ele>
        <time>2025-10-01T12:37:04Z</time>
      </trkpt>
      <trkpt lat="50.77598" lon="2.29625">
        <ele>4</ele>
        <time>2025-10-01T12:37:05Z</time>
      </trkpt>
      <trkpt lat="50.77598" lon="2.29623">
        <ele>4</ele>
        <time>2025-10-01T12:37:06Z</time>
      </trkpt>
      <trkpt lat="50.77598" lon="2.29621">
        <ele>4</ele>
        <time>2025-10-01T12:37:07Z</time>
      </trkpt>
      <trkpt lat="50.77598" lon="2.29618">
        <ele>4</ele>
        <time>2025-10-01T12:37:08Z</time>
      </trkpt>
      <trkpt lat="50.77597" lon="2.29615">
        <ele>4</ele>
        <time>2025-10-01T12:37:09Z</time>
      </trkpt>
      <trkpt lat="50.77597" lon="2.29613">
        <ele>4</ele>
        <time>2025-10-01T12:37:10Z</time>
      </trkpt>
      <trkpt lat="50.77597" lon="2.29612">
        <ele>4</ele>
        <time>2025-10-01T12:37:11Z</time>
      </trkpt>
      <trkpt lat="50.77598" lon="2.2961">
        <ele>4</ele>
        <time>2025-10-01T12:37:12Z</time>
      </trkpt>
      <trkpt lat="50.77598" lon="2.29605">
        <ele>4</ele>
        <time>2025-10-01T12:37:14Z</time>
      </trkpt>
      <trkpt lat="50.77598" lon="2.29602">
        <ele>4</ele>
        <time>2025-10-01T12:37:15Z</time>
      </trkpt>
      <trkpt lat="50.77597" lon="2.296">
        <ele>4</ele>
        <time>2025-10-01T12:37:16Z</time>
      </trkpt>
      <trkpt lat="50.77597" lon="2.29599">
        <ele>3.8</ele>
        <time>2025-10-01T12:37:17Z</time>
      </trkpt>
      <trkpt lat="50.77597" lon="2.29597">
        <ele>3.8</ele>
        <time>2025-10-01T12:37:18Z</time>
      </trkpt>
      <trkpt lat="50.77596" lon="2.29591">
        <ele>3.8</ele>
        <time>2025-10-01T12:37:21Z</time>
      </trkpt>
      <trkpt lat="50.77595" lon="2.29589">
        <ele>3.8</ele>
        <time>2025-10-01T12:37:22Z</time>
      </trkpt>
      <trkpt lat="50.77594" lon="2.29587">
        <ele>3.8</ele>
        <time>2025-10-01T12:37:23Z</time>
      </trkpt>
      <trkpt lat="50.77594" lon="2.29586">
        <ele>3.8</ele>
        <time>2025-10-01T12:37:24Z</time>
      </trkpt>
      <trkpt lat="50.77593" lon="2.29585">
        <ele>3.8</ele>
        <time>2025-10-01T12:37:25Z</time>
      </trkpt>
      <trkpt lat="50.77594" lon="2.29584">
        <ele>3.8</ele>
        <time>2025-10-01T12:37:26Z</time>
      </trkpt>
      <trkpt lat="50.77594" lon="2.29582">
        <ele>3.8</ele>
        <time>2025-10-01T12:37:27Z</time>
      </trkpt>
      <trkpt lat="50.77594" lon="2.2958">
        <ele>3.8</ele>
        <time>2025-10-01T12:37:28Z</time>
      </trkpt>
      <trkpt lat="50.77595" lon="2.29577">
        <ele>3.8</ele>
        <time>2025-10-01T12:37:29Z</time>
      </trkpt>
      <trkpt lat="50.77595" lon="2.29576">
        <ele>3.8</ele>
        <time>2025-10-01T12:37:30Z</time>
      </trkpt>
      <trkpt lat="50.77595" lon="2.29576">
        <ele>3.8</ele>
        <time>2025-10-01T12:37:31Z</time>
      </trkpt>
      <trkpt lat="50.77596" lon="2.2957">
        <ele>3.8</ele>
        <time>2025-10-01T12:37:35Z</time>
      </trkpt>
      <trkpt lat="50.77596" lon="2.29567">
        <ele>3.8</ele>
        <time>2025-10-01T12:37:36Z</time>
      </trkpt>
      <trkpt lat="50.77596" lon="2.29565">
        <ele>3.8</ele>
        <time>2025-10-01T12:37:37Z</time>
      </trkpt>
      <trkpt lat="50.77596" lon="2.29562">
        <ele>3.8</ele>
        <time>2025-10-01T12:37:38Z</time>
      </trkpt>
      <trkpt lat="50.77596" lon="2.29559">
        <ele>3.8</ele>
        <time>2025-10-01T12:37:39Z</time>
      </trkpt>
      <trkpt lat="50.77596" lon="2.29556">
        <ele>3.8</ele>
        <time>2025-10-01T12:37:40Z</time>
      </trkpt>
      <trkpt lat="50.77598" lon="2.29547">
        <ele>3.8</ele>
        <time>2025-10-01T12:37:43Z</time>
      </trkpt>
      <trkpt lat="50.77602" lon="2.29535">
        <ele>3.8</ele>
        <time>2025-10-01T12:37:48Z</time>
      </trkpt>
      <trkpt lat="50.77601" lon="2.29532">
        <ele>3.8</ele>
        <time>2025-10-01T12:37:49Z</time>
      </trkpt>
      <trkpt lat="50.77602" lon="2.29528">
        <ele>3.8</ele>
        <time>2025-10-01T12:37:51Z</time>
      </trkpt>
      <trkpt lat="50.77603" lon="2.29526">
        <ele>3.8</ele>
        <time>2025-10-01T12:37:52Z</time>
      </trkpt>
      <trkpt lat="50.77603" lon="2.29522">
        <ele>3.8</ele>
        <time>2025-10-01T12:37:54Z</time>
      </trkpt>
      <trkpt lat="50.77603" lon="2.2952">
        <ele>3.8</ele>
        <time>2025-10-01T12:37:55Z</time>
      </trkpt>
      <trkpt lat="50.77603" lon="2.29519">
        <ele>3.8</ele>
        <time>2025-10-01T12:37:56Z</time>
      </trkpt>
      <trkpt lat="50.77603" lon="2.29517">
        <ele>3.8</ele>
        <time>2025-10-01T12:37:57Z</time>
      </trkpt>
      <trkpt lat="50.77603" lon="2.29516">
        <ele>3.8</ele>
        <time>2025-10-01T12:37:58Z</time>
      </trkpt>
      <trkpt lat="50.77603" lon="2.29514">
        <ele>3.8</ele>
        <time>2025-10-01T12:37:59Z</time>
      </trkpt>
      <trkpt lat="50.77603" lon="2.29512">
        <ele>3.8</ele>
        <time>2025-10-01T12:38:00Z</time>
      </trkpt>
      <trkpt lat="50.77603" lon="2.2951">
        <ele>3.6</ele>
        <time>2025-10-01T12:38:01Z</time>
      </trkpt>
      <trkpt lat="50.77603" lon="2.29507">
        <ele>3.6</ele>
        <time>2025-10-01T12:38:02Z</time>
      </trkpt>
      <trkpt lat="50.77604" lon="2.29504">
        <ele>3.6</ele>
        <time>2025-10-01T12:38:03Z</time>
      </trkpt>
      <trkpt lat="50.77605" lon="2.29499">
        <ele>3.6</ele>
        <time>2025-10-01T12:38:05Z</time>
      </trkpt>
      <trkpt lat="50.77605" lon="2.29497">
        <ele>3.6</ele>
        <time>2025-10-01T12:38:06Z</time>
      </trkpt>
      <trkpt lat="50.77605" lon="2.29494">
        <ele>3.6</ele>
        <time>2025-10-01T12:38:08Z</time>
      </trkpt>
      <trkpt lat="50.77606" lon="2.29477">
        <ele>3.6</ele>
        <time>2025-10-01T12:38:15Z</time>
      </trkpt>
      <trkpt lat="50.77606" lon="2.29475">
        <ele>3.6</ele>
        <time>2025-10-01T12:38:16Z</time>
      </trkpt>
      <trkpt lat="50.77606" lon="2.29473">
        <ele>3.6</ele>
        <time>2025-10-01T12:38:17Z</time>
      </trkpt>
      <trkpt lat="50.77606" lon="2.29471">
        <ele>3.6</ele>
        <time>2025-10-01T12:38:18Z</time>
      </trkpt>
      <trkpt lat="50.77606" lon="2.29469">
        <ele>3.6</ele>
        <time>2025-10-01T12:38:19Z</time>
      </trkpt>
      <trkpt lat="50.77605" lon="2.29467">
        <ele>3.6</ele>
        <time>2025-10-01T12:38:20Z</time>
      </trkpt>
      <trkpt lat="50.77606" lon="2.29465">
        <ele>3.6</ele>
        <time>2025-10-01T12:38:21Z</time>
      </trkpt>
      <trkpt lat="50.77606" lon="2.29464">
        <ele>3.6</ele>
        <time>2025-10-01T12:38:22Z</time>
      </trkpt>
      <trkpt lat="50.77607" lon="2.29459">
        <ele>3.6</ele>
        <time>2025-10-01T12:38:24Z</time>
      </trkpt>
      <trkpt lat="50.77607" lon="2.29458">
        <ele>3.6</ele>
        <time>2025-10-01T12:38:25Z</time>
      </trkpt>
      <trkpt lat="50.77607" lon="2.29457">
        <ele>3.6</ele>
        <time>2025-10-01T12:38:26Z</time>
      </trkpt>
      <trkpt lat="50.77608" lon="2.29456">
        <ele>3.6</ele>
        <time>2025-10-01T12:38:27Z</time>
      </trkpt>
      <trkpt lat="50.77609" lon="2.29454">
        <ele>3.6</ele>
        <time>2025-10-01T12:38:29Z</time>
      </trkpt>
      <trkpt lat="50.77609" lon="2.29454">
        <ele>3.6</ele>
        <time>2025-10-01T12:38:30Z</time>
      </trkpt>
      <trkpt lat="50.77609" lon="2.29453">
        <ele>3.6</ele>
        <time>2025-10-01T12:38:31Z</time>
      </trkpt>
      <trkpt lat="50.77609" lon="2.29451">
        <ele>3.6</ele>
        <time>2025-10-01T12:38:32Z</time>
      </trkpt>
      <trkpt lat="50.77609" lon="2.29449">
        <ele>3.6</ele>
        <time>2025-10-01T12:38:33Z</time>
      </trkpt>
      <trkpt lat="50.77609" lon="2.29446">
        <ele>3.8</ele>
        <time>2025-10-01T12:38:34Z</time>
      </trkpt>
      <trkpt lat="50.77609" lon="2.29444">
        <ele>3.8</ele>
        <time>2025-10-01T12:38:35Z</time>
      </trkpt>
      <trkpt lat="50.77609" lon="2.29439">
        <ele>3.8</ele>
        <time>2025-10-01T12:38:37Z</time>
      </trkpt>
      <trkpt lat="50.77609" lon="2.29437">
        <ele>3.8</ele>
        <time>2025-10-01T12:38:38Z</time>
      </trkpt>
      <trkpt lat="50.77609" lon="2.29435">
        <ele>3.8</ele>
        <time>2025-10-01T12:38:39Z</time>
      </trkpt>
      <trkpt lat="50.77609" lon="2.29432">
        <ele>3.8</ele>
        <time>2025-10-01T12:38:40Z</time>
      </trkpt>
      <trkpt lat="50.77609" lon="2.29429">
        <ele>3.8</ele>
        <time>2025-10-01T12:38:41Z</time>
      </trkpt>
      <trkpt lat="50.7761" lon="2.29426">
        <ele>3.8</ele>
        <time>2025-10-01T12:38:44Z</time>
      </trkpt>
      <trkpt lat="50.7761" lon="2.29426">
        <ele>3.8</ele>
        <time>2025-10-01T12:38:45Z</time>
      </trkpt>
      <trkpt lat="50.7761" lon="2.29426">
        <ele>3.8</ele>
        <time>2025-10-01T12:38:46Z</time>
      </trkpt>
      <trkpt lat="50.7761" lon="2.2942">
        <ele>3.2</ele>
        <time>2025-10-01T12:40:25Z</time>
      </trkpt>
      <trkpt lat="50.77611" lon="2.29418">
        <ele>3.2</ele>
        <time>2025-10-01T12:40:26Z</time>
      </trkpt>
      <trkpt lat="50.77612" lon="2.29414">
        <ele>3.2</ele>
        <time>2025-10-01T12:40:29Z</time>
      </trkpt>
      <trkpt lat="50.77612" lon="2.29412">
        <ele>3.2</ele>
        <time>2025-10-01T12:40:30Z</time>
      </trkpt>
      <trkpt lat="50.77612" lon="2.29409">
        <ele>3.2</ele>
        <time>2025-10-01T12:40:32Z</time>
      </trkpt>
      <trkpt lat="50.77611" lon="2.29404">
        <ele>3.2</ele>
        <time>2025-10-01T12:40:34Z</time>
      </trkpt>
      <trkpt lat="50.77614" lon="2.29385">
        <ele>3.2</ele>
        <time>2025-10-01T12:40:41Z</time>
      </trkpt>
      <trkpt lat="50.77615" lon="2.29378">
        <ele>3.2</ele>
        <time>2025-10-01T12:40:44Z</time>
      </trkpt>
      <trkpt lat="50.77616" lon="2.29376">
        <ele>3.2</ele>
        <time>2025-10-01T12:40:45Z</time>
      </trkpt>
      <trkpt lat="50.77617" lon="2.29372">
        <ele>3.2</ele>
        <time>2025-10-01T12:40:47Z</time>
      </trkpt>
      <trkpt lat="50.77617" lon="2.2937">
        <ele>3.2</ele>
        <time>2025-10-01T12:40:48Z</time>
      </trkpt>
      <trkpt lat="50.77617" lon="2.29367">
        <ele>3.2</ele>
        <time>2025-10-01T12:40:49Z</time>
      </trkpt>
      <trkpt lat="50.77617" lon="2.29365">
        <ele>3.2</ele>
        <time>2025-10-01T12:40:50Z</time>
      </trkpt>
      <trkpt lat="50.77617" lon="2.29362">
        <ele>3.2</ele>
        <time>2025-10-01T12:40:51Z</time>
      </trkpt>
      <trkpt lat="50.77617" lon="2.2936">
        <ele>3.2</ele>
        <time>2025-10-01T12:40:52Z</time>
      </trkpt>
      <trkpt lat="50.77618" lon="2.29348">
        <ele>3.2</ele>
        <time>2025-10-01T12:40:58Z</time>
      </trkpt>
      <trkpt lat="50.77618" lon="2.29347">
        <ele>3.2</ele>
        <time>2025-10-01T12:40:59Z</time>
      </trkpt>
      <trkpt lat="50.77618" lon="2.29345">
        <ele>3.2</ele>
        <time>2025-10-01T12:41:00Z</time>
      </trkpt>
      <trkpt lat="50.77618" lon="2.29343">
        <ele>3.2</ele>
        <time>2025-10-01T12:41:01Z</time>
      </trkpt>
      <trkpt lat="50.77618" lon="2.29341">
        <ele>3.2</ele>
        <time>2025-10-01T12:41:02Z</time>
      </trkpt>
      <trkpt lat="50.77619" lon="2.29338">
        <ele>3.2</ele>
        <time>2025-10-01T12:41:03Z</time>
      </trkpt>
      <trkpt lat="50.7762" lon="2.29335">
        <ele>3.2</ele>
        <time>2025-10-01T12:41:05Z</time>
      </trkpt>
      <trkpt lat="50.77621" lon="2.29333">
        <ele>3.2</ele>
        <time>2025-10-01T12:41:06Z</time>
      </trkpt>
      <trkpt lat="50.77621" lon="2.29331">
        <ele>3.2</ele>
        <time>2025-10-01T12:41:07Z</time>
      </trkpt>
      <trkpt lat="50.7762" lon="2.29329">
        <ele>3.2</ele>
        <time>2025-10-01T12:41:08Z</time>
      </trkpt>
      <trkpt lat="50.7762" lon="2.29327">
        <ele>3.2</ele>
        <time>2025-10-01T12:41:09Z</time>
      </trkpt>
      <trkpt lat="50.7762" lon="2.29325">
        <ele>3.2</ele>
        <time>2025-10-01T12:41:10Z</time>
      </trkpt>
      <trkpt lat="50.7762" lon="2.29323">
        <ele>3.2</ele>
        <time>2025-10-01T12:41:11Z</time>
      </trkpt>
      <trkpt lat="50.77621" lon="2.29321">
        <ele>3.2</ele>
        <time>2025-10-01T12:41:12Z</time>
      </trkpt>
      <trkpt lat="50.77621" lon="2.29317">
        <ele>3.2</ele>
        <time>2025-10-01T12:41:14Z</time>
      </trkpt>
      <trkpt lat="50.77621" lon="2.29315">
        <ele>3.2</ele>
        <time>2025-10-01T12:41:15Z</time>
      </trkpt>
      <trkpt lat="50.77621" lon="2.29313">
        <ele>3.2</ele>
        <time>2025-10-01T12:41:16Z</time>
      </trkpt>
      <trkpt lat="50.77621" lon="2.29311">
        <ele>3.2</ele>
        <time>2025-10-01T12:41:17Z</time>
      </trkpt>
      <trkpt lat="50.77621" lon="2.29309">
        <ele>3.2</ele>
        <time>2025-10-01T12:41:18Z</time>
      </trkpt>
      <trkpt lat="50.77621" lon="2.29307">
        <ele>3.2</ele>
        <time>2025-10-01T12:41:19Z</time>
      </trkpt>
      <trkpt lat="50.77622" lon="2.29304">
        <ele>3.2</ele>
        <time>2025-10-01T12:41:20Z</time>
      </trkpt>
      <trkpt lat="50.77622" lon="2.29302">
        <ele>3.2</ele>
        <time>2025-10-01T12:41:21Z</time>
      </trkpt>
      <trkpt lat="50.77622" lon="2.293">
        <ele>3.2</ele>
        <time>2025-10-01T12:41:22Z</time>
      </trkpt>
      <trkpt lat="50.77622" lon="2.29298">
        <ele>3.2</ele>
        <time>2025-10-01T12:41:23Z</time>
      </trkpt>
      <trkpt lat="50.77622" lon="2.29296">
        <ele>3.2</ele>
        <time>2025-10-01T12:41:24Z</time>
      </trkpt>
      <trkpt lat="50.77623" lon="2.29294">
        <ele>3.2</ele>
        <time>2025-10-01T12:41:25Z</time>
      </trkpt>
      <trkpt lat="50.77623" lon="2.29292">
        <ele>3.2</ele>
        <time>2025-10-01T12:41:26Z</time>
      </trkpt>
      <trkpt lat="50.77624" lon="2.29291">
        <ele>3.2</ele>
        <time>2025-10-01T12:41:27Z</time>
      </trkpt>
      <trkpt lat="50.77625" lon="2.29288">
        <ele>3.2</ele>
        <time>2025-10-01T12:41:28Z</time>
      </trkpt>
      <trkpt lat="50.77625" lon="2.29286">
        <ele>3.2</ele>
        <time>2025-10-01T12:41:29Z</time>
      </trkpt>
      <trkpt lat="50.77627" lon="2.29284">
        <ele>3.2</ele>
        <time>2025-10-01T12:41:31Z</time>
      </trkpt>
      <trkpt lat="50.77627" lon="2.29282">
        <ele>3.4</ele>
        <time>2025-10-01T12:41:32Z</time>
      </trkpt>
      <trkpt lat="50.77627" lon="2.29281">
        <ele>3.4</ele>
        <time>2025-10-01T12:41:33Z</time>
      </trkpt>
      <trkpt lat="50.77628" lon="2.29279">
        <ele>3.4</ele>
        <time>2025-10-01T12:41:34Z</time>
      </trkpt>
      <trkpt lat="50.77628" lon="2.29277">
        <ele>3.4</ele>
        <time>2025-10-01T12:41:35Z</time>
      </trkpt>
      <trkpt lat="50.77629" lon="2.29277">
        <ele>3.4</ele>
        <time>2025-10-01T12:41:36Z</time>
      </trkpt>
      <trkpt lat="50.77629" lon="2.29277">
        <ele>3.4</ele>
        <time>2025-10-01T12:41:37Z</time>
      </trkpt>
      <trkpt lat="50.7763" lon="2.29276">
        <ele>3.4</ele>
        <time>2025-10-01T12:41:38Z</time>
      </trkpt>
      <trkpt lat="50.7763" lon="2.29275">
        <ele>3.4</ele>
        <time>2025-10-01T12:41:39Z</time>
      </trkpt>
      <trkpt lat="50.77632" lon="2.29272">
        <ele>3.4</ele>
        <time>2025-10-01T12:41:41Z</time>
      </trkpt>
      <trkpt lat="50.77633" lon="2.2927">
        <ele>3.4</ele>
        <time>2025-10-01T12:41:42Z</time>
      </trkpt>
      <trkpt lat="50.77633" lon="2.29268">
        <ele>3.4</ele>
        <time>2025-10-01T12:41:43Z</time>
      </trkpt>
      <trkpt lat="50.77633" lon="2.29266">
        <ele>3.4</ele>
        <time>2025-10-01T12:41:44Z</time>
      </trkpt>
      <trkpt lat="50.77633" lon="2.29265">
        <ele>3.4</ele>
        <time>2025-10-01T12:41:45Z</time>
      </trkpt>
      <trkpt lat="50.77634" lon="2.29263">
        <ele>3.4</ele>
        <time>2025-10-01T12:41:46Z</time>
      </trkpt>
      <trkpt lat="50.77636" lon="2.2926">
        <ele>3.4</ele>
        <time>2025-10-01T12:41:48Z</time>
      </trkpt>
      <trkpt lat="50.77636" lon="2.29258">
        <ele>3.4</ele>
        <time>2025-10-01T12:41:49Z</time>
      </trkpt>
      <trkpt lat="50.77637" lon="2.29255">
        <ele>3.4</ele>
        <time>2025-10-01T12:41:51Z</time>
      </trkpt>
      <trkpt lat="50.77638" lon="2.29254">
        <ele>3.4</ele>
        <time>2025-10-01T12:41:52Z</time>
      </trkpt>
      <trkpt lat="50.77638" lon="2.29253">
        <ele>3.4</ele>
        <time>2025-10-01T12:41:53Z</time>
      </trkpt>
      <trkpt lat="50.77639" lon="2.29252">
        <ele>3.4</ele>
        <time>2025-10-01T12:41:54Z</time>
      </trkpt>
      <trkpt lat="50.7764" lon="2.29248">
        <ele>3.4</ele>
        <time>2025-10-01T12:41:56Z</time>
      </trkpt>
      <trkpt lat="50.77642" lon="2.29245">
        <ele>3.4</ele>
        <time>2025-10-01T12:41:57Z</time>
      </trkpt>
      <trkpt lat="50.77645" lon="2.29237">
        <ele>3.4</ele>
        <time>2025-10-01T12:42:02Z</time>
      </trkpt>
      <trkpt lat="50.77646" lon="2.29234">
        <ele>3.4</ele>
        <time>2025-10-01T12:42:04Z</time>
      </trkpt>
      <trkpt lat="50.77647" lon="2.29233">
        <ele>3.4</ele>
        <time>2025-10-01T12:42:05Z</time>
      </trkpt>
      <trkpt lat="50.77649" lon="2.2923">
        <ele>3.4</ele>
        <time>2025-10-01T12:42:07Z</time>
      </trkpt>
      <trkpt lat="50.77652" lon="2.29229">
        <ele>3.4</ele>
        <time>2025-10-01T12:42:09Z</time>
      </trkpt>
      <trkpt lat="50.77661" lon="2.29224">
        <ele>3.4</ele>
        <time>2025-10-01T12:42:17Z</time>
      </trkpt>
      <trkpt lat="50.77664" lon="2.29221">
        <ele>3.4</ele>
        <time>2025-10-01T12:42:19Z</time>
      </trkpt>
      <trkpt lat="50.77671" lon="2.29218">
        <ele>3.4</ele>
        <time>2025-10-01T12:42:24Z</time>
      </trkpt>
      <trkpt lat="50.77672" lon="2.29218">
        <ele>3.4</ele>
        <time>2025-10-01T12:42:25Z</time>
      </trkpt>
      <trkpt lat="50.77674" lon="2.29218">
        <ele>3.4</ele>
        <time>2025-10-01T12:42:26Z</time>
      </trkpt>
      <trkpt lat="50.77675" lon="2.29217">
        <ele>3.4</ele>
        <time>2025-10-01T12:42:27Z</time>
      </trkpt>
      <trkpt lat="50.77677" lon="2.29216">
        <ele>3.4</ele>
        <time>2025-10-01T12:42:28Z</time>
      </trkpt>
      <trkpt lat="50.77678" lon="2.29215">
        <ele>3.4</ele>
        <time>2025-10-01T12:42:29Z</time>
      </trkpt>
      <trkpt lat="50.77679" lon="2.29215">
        <ele>3.4</ele>
        <time>2025-10-01T12:42:30Z</time>
      </trkpt>
      <trkpt lat="50.7768" lon="2.29215">
        <ele>3.4</ele>
        <time>2025-10-01T12:42:31Z</time>
      </trkpt>
      <trkpt lat="50.77682" lon="2.29214">
        <ele>3.4</ele>
        <time>2025-10-01T12:42:32Z</time>
      </trkpt>
      <trkpt lat="50.77683" lon="2.29213">
        <ele>3.2</ele>
        <time>2025-10-01T12:42:33Z</time>
      </trkpt>
      <trkpt lat="50.77684" lon="2.29213">
        <ele>3.2</ele>
        <time>2025-10-01T12:42:34Z</time>
      </trkpt>
      <trkpt lat="50.77687" lon="2.29211">
        <ele>3.2</ele>
        <time>2025-10-01T12:42:36Z</time>
      </trkpt>
      <trkpt lat="50.77694" lon="2.29207">
        <ele>3</ele>
        <time>2025-10-01T12:42:41Z</time>
      </trkpt>
      <trkpt lat="50.77698" lon="2.29205">
        <ele>3</ele>
        <time>2025-10-01T12:42:44Z</time>
      </trkpt>
      <trkpt lat="50.77698" lon="2.29205">
        <ele>3</ele>
        <time>2025-10-01T12:42:45Z</time>
      </trkpt>
      <trkpt lat="50.77699" lon="2.29204">
        <ele>3</ele>
        <time>2025-10-01T12:42:46Z</time>
      </trkpt>
      <trkpt lat="50.77701" lon="2.29203">
        <ele>3</ele>
        <time>2025-10-01T12:42:47Z</time>
      </trkpt>
      <trkpt lat="50.77702" lon="2.29202">
        <ele>3</ele>
        <time>2025-10-01T12:42:48Z</time>
      </trkpt>
      <trkpt lat="50.77703" lon="2.29202">
        <ele>3</ele>
        <time>2025-10-01T12:42:49Z</time>
      </trkpt>
      <trkpt lat="50.77704" lon="2.29201">
        <ele>3</ele>
        <time>2025-10-01T12:42:50Z</time>
      </trkpt>
      <trkpt lat="50.77705" lon="2.292">
        <ele>3</ele>
        <time>2025-10-01T12:42:51Z</time>
      </trkpt>
      <trkpt lat="50.77713" lon="2.29197">
        <ele>3</ele>
        <time>2025-10-01T12:42:56Z</time>
      </trkpt>
      <trkpt lat="50.77715" lon="2.29197">
        <ele>3</ele>
        <time>2025-10-01T12:42:57Z</time>
      </trkpt>
      <trkpt lat="50.77716" lon="2.29196">
        <ele>3</ele>
        <time>2025-10-01T12:42:58Z</time>
      </trkpt>
      <trkpt lat="50.77717" lon="2.29195">
        <ele>3</ele>
        <time>2025-10-01T12:42:59Z</time>
      </trkpt>
      <trkpt lat="50.77723" lon="2.29193">
        <ele>3.2</ele>
        <time>2025-10-01T12:43:03Z</time>
      </trkpt>
      <trkpt lat="50.77724" lon="2.29192">
        <ele>3.2</ele>
        <time>2025-10-01T12:43:04Z</time>
      </trkpt>
      <trkpt lat="50.77725" lon="2.29191">
        <ele>3.2</ele>
        <time>2025-10-01T12:43:05Z</time>
      </trkpt>
      <trkpt lat="50.77728" lon="2.2919">
        <ele>3.2</ele>
        <time>2025-10-01T12:43:07Z</time>
      </trkpt>
      <trkpt lat="50.77729" lon="2.29189">
        <ele>3.2</ele>
        <time>2025-10-01T12:43:08Z</time>
      </trkpt>
      <trkpt lat="50.77732" lon="2.29187">
        <ele>3.2</ele>
        <time>2025-10-01T12:43:10Z</time>
      </trkpt>
      <trkpt lat="50.77733" lon="2.29186">
        <ele>3.2</ele>
        <time>2025-10-01T12:43:11Z</time>
      </trkpt>
      <trkpt lat="50.77734" lon="2.29186">
        <ele>3.2</ele>
        <time>2025-10-01T12:43:12Z</time>
      </trkpt>
      <trkpt lat="50.77735" lon="2.29186">
        <ele>3.2</ele>
        <time>2025-10-01T12:43:13Z</time>
      </trkpt>
      <trkpt lat="50.77736" lon="2.29185">
        <ele>3.2</ele>
        <time>2025-10-01T12:43:14Z</time>
      </trkpt>
      <trkpt lat="50.77737" lon="2.29184">
        <ele>3.2</ele>
        <time>2025-10-01T12:43:15Z</time>
      </trkpt>
      <trkpt lat="50.77739" lon="2.29184">
        <ele>3.2</ele>
        <time>2025-10-01T12:43:16Z</time>
      </trkpt>
      <trkpt lat="50.7774" lon="2.29183">
        <ele>3.2</ele>
        <time>2025-10-01T12:43:17Z</time>
      </trkpt>
      <trkpt lat="50.77744" lon="2.29181">
        <ele>3.2</ele>
        <time>2025-10-01T12:43:20Z</time>
      </trkpt>
      <trkpt lat="50.77745" lon="2.2918">
        <ele>3.2</ele>
        <time>2025-10-01T12:43:21Z</time>
      </trkpt>
      <trkpt lat="50.77746" lon="2.29179">
        <ele>3.2</ele>
        <time>2025-10-01T12:43:22Z</time>
      </trkpt>
      <trkpt lat="50.77747" lon="2.29178">
        <ele>3.2</ele>
        <time>2025-10-01T12:43:23Z</time>
      </trkpt>
      <trkpt lat="50.77748" lon="2.29178">
        <ele>3.2</ele>
        <time>2025-10-01T12:43:24Z</time>
      </trkpt>
      <trkpt lat="50.77749" lon="2.29178">
        <ele>3.2</ele>
        <time>2025-10-01T12:43:25Z</time>
      </trkpt>
      <trkpt lat="50.7775" lon="2.29176">
        <ele>3.2</ele>
        <time>2025-10-01T12:43:26Z</time>
      </trkpt>
      <trkpt lat="50.77753" lon="2.29172">
        <ele>3.2</ele>
        <time>2025-10-01T12:43:29Z</time>
      </trkpt>
      <trkpt lat="50.77755" lon="2.29171">
        <ele>3.2</ele>
        <time>2025-10-01T12:43:30Z</time>
      </trkpt>
      <trkpt lat="50.77757" lon="2.29168">
        <ele>3.2</ele>
        <time>2025-10-01T12:43:32Z</time>
      </trkpt>
      <trkpt lat="50.77758" lon="2.29164">
        <ele>3.2</ele>
        <time>2025-10-01T12:43:34Z</time>
      </trkpt>
      <trkpt lat="50.77758" lon="2.29162">
        <ele>3.2</ele>
        <time>2025-10-01T12:43:35Z</time>
      </trkpt>
      <trkpt lat="50.77758" lon="2.29161">
        <ele>3.2</ele>
        <time>2025-10-01T12:43:36Z</time>
      </trkpt>
      <trkpt lat="50.77758" lon="2.2916">
        <ele>3.2</ele>
        <time>2025-10-01T12:43:37Z</time>
      </trkpt>
      <trkpt lat="50.77758" lon="2.2916">
        <ele>3.2</ele>
        <time>2025-10-01T12:43:38Z</time>
      </trkpt>
      <trkpt lat="50.77759" lon="2.2916">
        <ele>2.6</ele>
        <time>2025-10-01T12:44:12Z</time>
      </trkpt>
      <trkpt lat="50.7776" lon="2.2916">
        <ele>2.6</ele>
        <time>2025-10-01T12:44:13Z</time>
      </trkpt>
      <trkpt lat="50.77762" lon="2.29158">
        <ele>2.6</ele>
        <time>2025-10-01T12:44:15Z</time>
      </trkpt>
      <trkpt lat="50.77763" lon="2.29157">
        <ele>2.6</ele>
        <time>2025-10-01T12:44:16Z</time>
      </trkpt>
      <trkpt lat="50.77764" lon="2.29154">
        <ele>2.6</ele>
        <time>2025-10-01T12:44:18Z</time>
      </trkpt>
      <trkpt lat="50.77765" lon="2.29153">
        <ele>2.6</ele>
        <time>2025-10-01T12:44:19Z</time>
      </trkpt>
      <trkpt lat="50.77768" lon="2.2915">
        <ele>2.6</ele>
        <time>2025-10-01T12:44:22Z</time>
      </trkpt>
      <trkpt lat="50.77771" lon="2.29149">
        <ele>2.6</ele>
        <time>2025-10-01T12:44:25Z</time>
      </trkpt>
      <trkpt lat="50.77772" lon="2.29149">
        <ele>2.6</ele>
        <time>2025-10-01T12:44:26Z</time>
      </trkpt>
      <trkpt lat="50.77773" lon="2.2915">
        <ele>2.8</ele>
        <time>2025-10-01T12:44:27Z</time>
      </trkpt>
      <trkpt lat="50.77774" lon="2.2915">
        <ele>2.8</ele>
        <time>2025-10-01T12:44:28Z</time>
      </trkpt>
      <trkpt lat="50.77774" lon="2.29149">
        <ele>3</ele>
        <time>2025-10-01T12:44:29Z</time>
      </trkpt>
      <trkpt lat="50.77775" lon="2.29149">
        <ele>3</ele>
        <time>2025-10-01T12:44:30Z</time>
      </trkpt>
      <trkpt lat="50.77774" lon="2.29148">
        <ele>3.2</ele>
        <time>2025-10-01T12:44:31Z</time>
      </trkpt>
      <trkpt lat="50.77774" lon="2.29147">
        <ele>3.2</ele>
        <time>2025-10-01T12:44:32Z</time>
      </trkpt>
      <trkpt lat="50.77774" lon="2.29148">
        <ele>3.2</ele>
        <time>2025-10-01T12:44:34Z</time>
      </trkpt>
      <trkpt lat="50.77775" lon="2.29148">
        <ele>3.2</ele>
        <time>2025-10-01T12:44:35Z</time>
      </trkpt>
      <trkpt lat="50.77777" lon="2.29147">
        <ele>3.2</ele>
        <time>2025-10-01T12:44:37Z</time>
      </trkpt>
      <trkpt lat="50.77778" lon="2.29146">
        <ele>3.2</ele>
        <time>2025-10-01T12:44:39Z</time>
      </trkpt>
      <trkpt lat="50.77778" lon="2.29146">
        <ele>3.2</ele>
        <time>2025-10-01T12:44:40Z</time>
      </trkpt>
      <trkpt lat="50.77779" lon="2.29145">
        <ele>3.2</ele>
        <time>2025-10-01T12:44:41Z</time>
      </trkpt>
      <trkpt lat="50.7778" lon="2.29144">
        <ele>3.2</ele>
        <time>2025-10-01T12:44:42Z</time>
      </trkpt>
      <trkpt lat="50.77783" lon="2.29138">
        <ele>3.2</ele>
        <time>2025-10-01T12:44:45Z</time>
      </trkpt>
      <trkpt lat="50.77784" lon="2.29137">
        <ele>3.2</ele>
        <time>2025-10-01T12:44:46Z</time>
      </trkpt>
      <trkpt lat="50.77785" lon="2.29136">
        <ele>3.2</ele>
        <time>2025-10-01T12:44:47Z</time>
      </trkpt>
      <trkpt lat="50.77787" lon="2.29133">
        <ele>3.2</ele>
        <time>2025-10-01T12:44:49Z</time>
      </trkpt>
      <trkpt lat="50.77789" lon="2.2913">
        <ele>3.2</ele>
        <time>2025-10-01T12:44:51Z</time>
      </trkpt>
      <trkpt lat="50.77791" lon="2.29129">
        <ele>3.2</ele>
        <time>2025-10-01T12:44:53Z</time>
      </trkpt>
      <trkpt lat="50.77792" lon="2.29128">
        <ele>3.2</ele>
        <time>2025-10-01T12:44:54Z</time>
      </trkpt>
      <trkpt lat="50.77793" lon="2.29127">
        <ele>3.2</ele>
        <time>2025-10-01T12:44:55Z</time>
      </trkpt>
      <trkpt lat="50.77796" lon="2.29123">
        <ele>3.2</ele>
        <time>2025-10-01T12:44:58Z</time>
      </trkpt>
      <trkpt lat="50.77797" lon="2.29122">
        <ele>3.2</ele>
        <time>2025-10-01T12:44:59Z</time>
      </trkpt>
      <trkpt lat="50.77799" lon="2.29121">
        <ele>3.2</ele>
        <time>2025-10-01T12:45:00Z</time>
      </trkpt>
      <trkpt lat="50.778" lon="2.29121">
        <ele>3.2</ele>
        <time>2025-10-01T12:45:01Z</time>
      </trkpt>
      <trkpt lat="50.77801" lon="2.2912">
        <ele>3.2</ele>
        <time>2025-10-01T12:45:02Z</time>
      </trkpt>
      <trkpt lat="50.77803" lon="2.29119">
        <ele>3.2</ele>
        <time>2025-10-01T12:45:03Z</time>
      </trkpt>
      <trkpt lat="50.77805" lon="2.29118">
        <ele>3.2</ele>
        <time>2025-10-01T12:45:05Z</time>
      </trkpt>
      <trkpt lat="50.77807" lon="2.29118">
        <ele>3</ele>
        <time>2025-10-01T12:45:07Z</time>
      </trkpt>
      <trkpt lat="50.77809" lon="2.29118">
        <ele>3</ele>
        <time>2025-10-01T12:45:08Z</time>
      </trkpt>
      <trkpt lat="50.7781" lon="2.29118">
        <ele>3</ele>
        <time>2025-10-01T12:45:09Z</time>
      </trkpt>
      <trkpt lat="50.77813" lon="2.29116">
        <ele>3</ele>
        <time>2025-10-01T12:45:12Z</time>
      </trkpt>
      <trkpt lat="50.77814" lon="2.29115">
        <ele>2.8</ele>
        <time>2025-10-01T12:45:13Z</time>
      </trkpt>
      <trkpt lat="50.77816" lon="2.29114">
        <ele>2.8</ele>
        <time>2025-10-01T12:45:14Z</time>
      </trkpt>
      <trkpt lat="50.77817" lon="2.29114">
        <ele>2.8</ele>
        <time>2025-10-01T12:45:15Z</time>
      </trkpt>
      <trkpt lat="50.77822" lon="2.29114">
        <ele>2.8</ele>
        <time>2025-10-01T12:45:19Z</time>
      </trkpt>
      <trkpt lat="50.77823" lon="2.29114">
        <ele>2.8</ele>
        <time>2025-10-01T12:45:20Z</time>
      </trkpt>
      <trkpt lat="50.77824" lon="2.29115">
        <ele>2.8</ele>
        <time>2025-10-01T12:45:21Z</time>
      </trkpt>
      <trkpt lat="50.77826" lon="2.29115">
        <ele>2.8</ele>
        <time>2025-10-01T12:45:22Z</time>
      </trkpt>
      <trkpt lat="50.77827" lon="2.29115">
        <ele>2.8</ele>
        <time>2025-10-01T12:45:23Z</time>
      </trkpt>
      <trkpt lat="50.7783" lon="2.29115">
        <ele>2.8</ele>
        <time>2025-10-01T12:45:26Z</time>
      </trkpt>
      <trkpt lat="50.77831" lon="2.29115">
        <ele>2.8</ele>
        <time>2025-10-01T12:45:27Z</time>
      </trkpt>
      <trkpt lat="50.77832" lon="2.29114">
        <ele>2.8</ele>
        <time>2025-10-01T12:45:28Z</time>
      </trkpt>
      <trkpt lat="50.77835" lon="2.29115">
        <ele>2.8</ele>
        <time>2025-10-01T12:45:31Z</time>
      </trkpt>
      <trkpt lat="50.77836" lon="2.29114">
        <ele>2.8</ele>
        <time>2025-10-01T12:45:32Z</time>
      </trkpt>
      <trkpt lat="50.77837" lon="2.29114">
        <ele>2.8</ele>
        <time>2025-10-01T12:45:33Z</time>
      </trkpt>
      <trkpt lat="50.77845" lon="2.29113">
        <ele>3.2</ele>
        <time>2025-10-01T12:45:39Z</time>
      </trkpt>
      <trkpt lat="50.77846" lon="2.29113">
        <ele>3.2</ele>
        <time>2025-10-01T12:45:40Z</time>
      </trkpt>
      <trkpt lat="50.77847" lon="2.29112">
        <ele>3.2</ele>
        <time>2025-10-01T12:45:41Z</time>
      </trkpt>
      <trkpt lat="50.77849" lon="2.29111">
        <ele>3.2</ele>
        <time>2025-10-01T12:45:43Z</time>
      </trkpt>
      <trkpt lat="50.7785" lon="2.29111">
        <ele>3.2</ele>
        <time>2025-10-01T12:45:44Z</time>
      </trkpt>
      <trkpt lat="50.77851" lon="2.29111">
        <ele>3</ele>
        <time>2025-10-01T12:45:45Z</time>
      </trkpt>
      <trkpt lat="50.77852" lon="2.29111">
        <ele>3</ele>
        <time>2025-10-01T12:45:46Z</time>
      </trkpt>
      <trkpt lat="50.77854" lon="2.29111">
        <ele>3</ele>
        <time>2025-10-01T12:45:47Z</time>
      </trkpt>
      <trkpt lat="50.77855" lon="2.29111">
        <ele>3</ele>
        <time>2025-10-01T12:45:48Z</time>
      </trkpt>
      <trkpt lat="50.77857" lon="2.2911">
        <ele>2.8</ele>
        <time>2025-10-01T12:45:50Z</time>
      </trkpt>
      <trkpt lat="50.77859" lon="2.29109">
        <ele>2.8</ele>
        <time>2025-10-01T12:45:51Z</time>
      </trkpt>
      <trkpt lat="50.7786" lon="2.29108">
        <ele>2.8</ele>
        <time>2025-10-01T12:45:52Z</time>
      </trkpt>
      <trkpt lat="50.7786" lon="2.29107">
        <ele>2.8</ele>
        <time>2025-10-01T12:45:53Z</time>
      </trkpt>
      <trkpt lat="50.77861" lon="2.29106">
        <ele>2.8</ele>
        <time>2025-10-01T12:45:54Z</time>
      </trkpt>
      <trkpt lat="50.77862" lon="2.29105">
        <ele>2.8</ele>
        <time>2025-10-01T12:45:55Z</time>
      </trkpt>
      <trkpt lat="50.77863" lon="2.29104">
        <ele>2.8</ele>
        <time>2025-10-01T12:45:56Z</time>
      </trkpt>
      <trkpt lat="50.77864" lon="2.29103">
        <ele>2.8</ele>
        <time>2025-10-01T12:45:57Z</time>
      </trkpt>
      <trkpt lat="50.77865" lon="2.29102">
        <ele>2.8</ele>
        <time>2025-10-01T12:45:58Z</time>
      </trkpt>
      <trkpt lat="50.77865" lon="2.29101">
        <ele>2.8</ele>
        <time>2025-10-01T12:45:59Z</time>
      </trkpt>
      <trkpt lat="50.77865" lon="2.29099">
        <ele>2.8</ele>
        <time>2025-10-01T12:46:00Z</time>
      </trkpt>
      <trkpt lat="50.77865" lon="2.29097">
        <ele>2.8</ele>
        <time>2025-10-01T12:46:01Z</time>
      </trkpt>
      <trkpt lat="50.77866" lon="2.29095">
        <ele>3</ele>
        <time>2025-10-01T12:46:02Z</time>
      </trkpt>
      <trkpt lat="50.77866" lon="2.29093">
        <ele>3</ele>
        <time>2025-10-01T12:46:03Z</time>
      </trkpt>
      <trkpt lat="50.77866" lon="2.2909">
        <ele>3.2</ele>
        <time>2025-10-01T12:46:04Z</time>
      </trkpt>
      <trkpt lat="50.77866" lon="2.29086">
        <ele>3.2</ele>
        <time>2025-10-01T12:46:06Z</time>
      </trkpt>
      <trkpt lat="50.77865" lon="2.29084">
        <ele>3.2</ele>
        <time>2025-10-01T12:46:07Z</time>
      </trkpt>
      <trkpt lat="50.77865" lon="2.29082">
        <ele>3.2</ele>
        <time>2025-10-01T12:46:08Z</time>
      </trkpt>
      <trkpt lat="50.77865" lon="2.29078">
        <ele>3.2</ele>
        <time>2025-10-01T12:46:10Z</time>
      </trkpt>
      <trkpt lat="50.77864" lon="2.29077">
        <ele>3.2</ele>
        <time>2025-10-01T12:46:11Z</time>
      </trkpt>
      <trkpt lat="50.77863" lon="2.29073">
        <ele>3.4</ele>
        <time>2025-10-01T12:46:13Z</time>
      </trkpt>
      <trkpt lat="50.77863" lon="2.29072">
        <ele>3.4</ele>
        <time>2025-10-01T12:46:14Z</time>
      </trkpt>
      <trkpt lat="50.77863" lon="2.29071">
        <ele>3.4</ele>
        <time>2025-10-01T12:46:15Z</time>
      </trkpt>
      <trkpt lat="50.77863" lon="2.29069">
        <ele>3.4</ele>
        <time>2025-10-01T12:46:16Z</time>
      </trkpt>
      <trkpt lat="50.77862" lon="2.29067">
        <ele>3.4</ele>
        <time>2025-10-01T12:46:17Z</time>
      </trkpt>
      <trkpt lat="50.77861" lon="2.29066">
        <ele>3.4</ele>
        <time>2025-10-01T12:46:18Z</time>
      </trkpt>
      <trkpt lat="50.77861" lon="2.29064">
        <ele>3.4</ele>
        <time>2025-10-01T12:46:19Z</time>
      </trkpt>
      <trkpt lat="50.77861" lon="2.29062">
        <ele>3.4</ele>
        <time>2025-10-01T12:46:20Z</time>
      </trkpt>
      <trkpt lat="50.7786" lon="2.29058">
        <ele>3.4</ele>
        <time>2025-10-01T12:46:22Z</time>
      </trkpt>
      <trkpt lat="50.77858" lon="2.29049">
        <ele>3.2</ele>
        <time>2025-10-01T12:46:26Z</time>
      </trkpt>
      <trkpt lat="50.77858" lon="2.29041">
        <ele>3.2</ele>
        <time>2025-10-01T12:46:30Z</time>
      </trkpt>
      <trkpt lat="50.77859" lon="2.29035">
        <ele>3</ele>
        <time>2025-10-01T12:46:33Z</time>
      </trkpt>
      <trkpt lat="50.7786" lon="2.29032">
        <ele>3</ele>
        <time>2025-10-01T12:46:35Z</time>
      </trkpt>
      <trkpt lat="50.7786" lon="2.29031">
        <ele>3</ele>
        <time>2025-10-01T12:46:36Z</time>
      </trkpt>
      <trkpt lat="50.77861" lon="2.29029">
        <ele>3</ele>
        <time>2025-10-01T12:46:37Z</time>
      </trkpt>
      <trkpt lat="50.77861" lon="2.29028">
        <ele>3</ele>
        <time>2025-10-01T12:46:38Z</time>
      </trkpt>
      <trkpt lat="50.77861" lon="2.29026">
        <ele>3</ele>
        <time>2025-10-01T12:46:39Z</time>
      </trkpt>
      <trkpt lat="50.77862" lon="2.29025">
        <ele>3</ele>
        <time>2025-10-01T12:46:40Z</time>
      </trkpt>
      <trkpt lat="50.77862" lon="2.29024">
        <ele>3</ele>
        <time>2025-10-01T12:46:41Z</time>
      </trkpt>
      <trkpt lat="50.77863" lon="2.29023">
        <ele>3</ele>
        <time>2025-10-01T12:46:42Z</time>
      </trkpt>
      <trkpt lat="50.77863" lon="2.29021">
        <ele>3</ele>
        <time>2025-10-01T12:46:43Z</time>
      </trkpt>
      <trkpt lat="50.77863" lon="2.29019">
        <ele>3</ele>
        <time>2025-10-01T12:46:45Z</time>
      </trkpt>
      <trkpt lat="50.77863" lon="2.29018">
        <ele>3</ele>
        <time>2025-10-01T12:46:46Z</time>
      </trkpt>
      <trkpt lat="50.77862" lon="2.29017">
        <ele>3</ele>
        <time>2025-10-01T12:46:47Z</time>
      </trkpt>
      <trkpt lat="50.7786" lon="2.29016">
        <ele>2.8</ele>
        <time>2025-10-01T12:46:49Z</time>
      </trkpt>
      <trkpt lat="50.77858" lon="2.29016">
        <ele>2.8</ele>
        <time>2025-10-01T12:46:51Z</time>
      </trkpt>
      <trkpt lat="50.77857" lon="2.29016">
        <ele>2.8</ele>
        <time>2025-10-01T12:46:52Z</time>
      </trkpt>
      <trkpt lat="50.77856" lon="2.29017">
        <ele>2.8</ele>
        <time>2025-10-01T12:46:53Z</time>
      </trkpt>
      <trkpt lat="50.77855" lon="2.29017">
        <ele>2.8</ele>
        <time>2025-10-01T12:46:54Z</time>
      </trkpt>
      <trkpt lat="50.77854" lon="2.29017">
        <ele>2.8</ele>
        <time>2025-10-01T12:46:55Z</time>
      </trkpt>
      <trkpt lat="50.77853" lon="2.29017">
        <ele>2.8</ele>
        <time>2025-10-01T12:46:56Z</time>
      </trkpt>
      <trkpt lat="50.77851" lon="2.29018">
        <ele>2.8</ele>
        <time>2025-10-01T12:46:58Z</time>
      </trkpt>
      <trkpt lat="50.7785" lon="2.29018">
        <ele>2.8</ele>
        <time>2025-10-01T12:46:59Z</time>
      </trkpt>
      <trkpt lat="50.77846" lon="2.29018">
        <ele>2.8</ele>
        <time>2025-10-01T12:47:02Z</time>
      </trkpt>
      <trkpt lat="50.77845" lon="2.29018">
        <ele>2.8</ele>
        <time>2025-10-01T12:47:03Z</time>
      </trkpt>
      <trkpt lat="50.77844" lon="2.29018">
        <ele>2.8</ele>
        <time>2025-10-01T12:47:04Z</time>
      </trkpt>
      <trkpt lat="50.77831" lon="2.29016">
        <ele>2.8</ele>
        <time>2025-10-01T12:47:15Z</time>
      </trkpt>
      <trkpt lat="50.77827" lon="2.29014">
        <ele>2.8</ele>
        <time>2025-10-01T12:47:18Z</time>
      </trkpt>
      <trkpt lat="50.77827" lon="2.29013">
        <ele>2.8</ele>
        <time>2025-10-01T12:47:19Z</time>
      </trkpt>
      <trkpt lat="50.77826" lon="2.29012">
        <ele>2.8</ele>
        <time>2025-10-01T12:47:20Z</time>
      </trkpt>
      <trkpt lat="50.77826" lon="2.29011">
        <ele>2.8</ele>
        <time>2025-10-01T12:47:21Z</time>
      </trkpt>
      <trkpt lat="50.77826" lon="2.29009">
        <ele>2.8</ele>
        <time>2025-10-01T12:47:22Z</time>
      </trkpt>
      <trkpt lat="50.77826" lon="2.29007">
        <ele>2.8</ele>
        <time>2025-10-01T12:47:23Z</time>
      </trkpt>
      <trkpt lat="50.77826" lon="2.29006">
        <ele>2.8</ele>
        <time>2025-10-01T12:47:24Z</time>
      </trkpt>
      <trkpt lat="50.77826" lon="2.29004">
        <ele>2.8</ele>
        <time>2025-10-01T12:47:25Z</time>
      </trkpt>
      <trkpt lat="50.77826" lon="2.29002">
        <ele>2.8</ele>
        <time>2025-10-01T12:47:26Z</time>
      </trkpt>
      <trkpt lat="50.77825" lon="2.29">
        <ele>2.6</ele>
        <time>2025-10-01T12:47:27Z</time>
      </trkpt>
      <trkpt lat="50.77825" lon="2.28997">
        <ele>2.6</ele>
        <time>2025-10-01T12:47:29Z</time>
      </trkpt>
      <trkpt lat="50.77824" lon="2.28996">
        <ele>2.6</ele>
        <time>2025-10-01T12:47:30Z</time>
      </trkpt>
      <trkpt lat="50.77824" lon="2.28994">
        <ele>2.6</ele>
        <time>2025-10-01T12:47:31Z</time>
      </trkpt>
      <trkpt lat="50.77825" lon="2.28992">
        <ele>2.6</ele>
        <time>2025-10-01T12:47:32Z</time>
      </trkpt>
      <trkpt lat="50.77825" lon="2.2899">
        <ele>2.6</ele>
        <time>2025-10-01T12:47:33Z</time>
      </trkpt>
      <trkpt lat="50.77825" lon="2.28988">
        <ele>2.6</ele>
        <time>2025-10-01T12:47:34Z</time>
      </trkpt>
      <trkpt lat="50.77825" lon="2.28986">
        <ele>2.6</ele>
        <time>2025-10-01T12:47:35Z</time>
      </trkpt>
      <trkpt lat="50.77825" lon="2.28984">
        <ele>2.6</ele>
        <time>2025-10-01T12:47:36Z</time>
      </trkpt>
      <trkpt lat="50.77825" lon="2.28982">
        <ele>2.6</ele>
        <time>2025-10-01T12:47:37Z</time>
      </trkpt>
      <trkpt lat="50.77825" lon="2.28978">
        <ele>2.6</ele>
        <time>2025-10-01T12:47:38Z</time>
      </trkpt>
      <trkpt lat="50.77825" lon="2.28975">
        <ele>2.6</ele>
        <time>2025-10-01T12:47:39Z</time>
      </trkpt>
      <trkpt lat="50.77825" lon="2.2897">
        <ele>2.6</ele>
        <time>2025-10-01T12:47:42Z</time>
      </trkpt>
      <trkpt lat="50.77826" lon="2.28967">
        <ele>2.6</ele>
        <time>2025-10-01T12:47:43Z</time>
      </trkpt>
      <trkpt lat="50.77826" lon="2.28965">
        <ele>2.6</ele>
        <time>2025-10-01T12:47:44Z</time>
      </trkpt>
      <trkpt lat="50.77826" lon="2.28962">
        <ele>2.6</ele>
        <time>2025-10-01T12:47:45Z</time>
      </trkpt>
      <trkpt lat="50.77825" lon="2.28957">
        <ele>2.6</ele>
        <time>2025-10-01T12:47:47Z</time>
      </trkpt>
      <trkpt lat="50.77825" lon="2.28956">
        <ele>2.6</ele>
        <time>2025-10-01T12:47:48Z</time>
      </trkpt>
      <trkpt lat="50.77825" lon="2.28955">
        <ele>2.6</ele>
        <time>2025-10-01T12:47:49Z</time>
      </trkpt>
      <trkpt lat="50.77826" lon="2.28955">
        <ele>2.6</ele>
        <time>2025-10-01T12:47:50Z</time>
      </trkpt>
      <trkpt lat="50.77827" lon="2.2895">
        <ele>2.8</ele>
        <time>2025-10-01T12:47:52Z</time>
      </trkpt>
      <trkpt lat="50.77827" lon="2.28949">
        <ele>2.8</ele>
        <time>2025-10-01T12:47:53Z</time>
      </trkpt>
      <trkpt lat="50.77828" lon="2.28947">
        <ele>2.8</ele>
        <time>2025-10-01T12:47:54Z</time>
      </trkpt>
      <trkpt lat="50.77829" lon="2.28946">
        <ele>2.8</ele>
        <time>2025-10-01T12:47:55Z</time>
      </trkpt>
      <trkpt lat="50.7783" lon="2.28945">
        <ele>2.8</ele>
        <time>2025-10-01T12:47:56Z</time>
      </trkpt>
      <trkpt lat="50.7783" lon="2.28943">
        <ele>2.8</ele>
        <time>2025-10-01T12:47:57Z</time>
      </trkpt>
      <trkpt lat="50.77832" lon="2.28936">
        <ele>3</ele>
        <time>2025-10-01T12:48:01Z</time>
      </trkpt>
      <trkpt lat="50.77833" lon="2.28935">
        <ele>3</ele>
        <time>2025-10-01T12:48:02Z</time>
      </trkpt>
      <trkpt lat="50.77834" lon="2.28933">
        <ele>3</ele>
        <time>2025-10-01T12:48:03Z</time>
      </trkpt>
      <trkpt lat="50.77837" lon="2.28926">
        <ele>3</ele>
        <time>2025-10-01T12:48:07Z</time>
      </trkpt>
      <trkpt lat="50.77839" lon="2.28926">
        <ele>3</ele>
        <time>2025-10-01T12:48:08Z</time>
      </trkpt>
      <trkpt lat="50.7784" lon="2.28924">
        <ele>3</ele>
        <time>2025-10-01T12:48:09Z</time>
      </trkpt>
      <trkpt lat="50.77841" lon="2.28923">
        <ele>3</ele>
        <time>2025-10-01T12:48:10Z</time>
      </trkpt>
      <trkpt lat="50.77841" lon="2.28919">
        <ele>3</ele>
        <time>2025-10-01T12:48:12Z</time>
      </trkpt>
      <trkpt lat="50.77842" lon="2.28918">
        <ele>3.2</ele>
        <time>2025-10-01T12:48:13Z</time>
      </trkpt>
      <trkpt lat="50.77843" lon="2.28917">
        <ele>3.2</ele>
        <time>2025-10-01T12:48:14Z</time>
      </trkpt>
      <trkpt lat="50.77845" lon="2.28911">
        <ele>3.2</ele>
        <time>2025-10-01T12:48:17Z</time>
      </trkpt>
      <trkpt lat="50.77847" lon="2.28909">
        <ele>3.2</ele>
        <time>2025-10-01T12:48:19Z</time>
      </trkpt>
      <trkpt lat="50.77848" lon="2.28907">
        <ele>3.2</ele>
        <time>2025-10-01T12:48:20Z</time>
      </trkpt>
      <trkpt lat="50.77848" lon="2.28905">
        <ele>3.2</ele>
        <time>2025-10-01T12:48:21Z</time>
      </trkpt>
      <trkpt lat="50.77849" lon="2.28903">
        <ele>3.2</ele>
        <time>2025-10-01T12:48:22Z</time>
      </trkpt>
      <trkpt lat="50.7785" lon="2.28901">
        <ele>3.2</ele>
        <time>2025-10-01T12:48:23Z</time>
      </trkpt>
      <trkpt lat="50.7785" lon="2.28899">
        <ele>3.2</ele>
        <time>2025-10-01T12:48:24Z</time>
      </trkpt>
      <trkpt lat="50.77851" lon="2.28898">
        <ele>3.2</ele>
        <time>2025-10-01T12:48:25Z</time>
      </trkpt>
      <trkpt lat="50.77851" lon="2.28896">
        <ele>3.2</ele>
        <time>2025-10-01T12:48:26Z</time>
      </trkpt>
      <trkpt lat="50.77851" lon="2.28893">
        <ele>3.2</ele>
        <time>2025-10-01T12:48:27Z</time>
      </trkpt>
      <trkpt lat="50.77851" lon="2.28891">
        <ele>3.2</ele>
        <time>2025-10-01T12:48:28Z</time>
      </trkpt>
      <trkpt lat="50.77851" lon="2.28889">
        <ele>3.2</ele>
        <time>2025-10-01T12:48:29Z</time>
      </trkpt>
      <trkpt lat="50.7785" lon="2.28888">
        <ele>3.2</ele>
        <time>2025-10-01T12:48:30Z</time>
      </trkpt>
      <trkpt lat="50.77849" lon="2.28885">
        <ele>3.2</ele>
        <time>2025-10-01T12:48:32Z</time>
      </trkpt>
      <trkpt lat="50.77849" lon="2.28883">
        <ele>3.2</ele>
        <time>2025-10-01T12:48:33Z</time>
      </trkpt>
      <trkpt lat="50.77849" lon="2.28881">
        <ele>3.2</ele>
        <time>2025-10-01T12:48:34Z</time>
      </trkpt>
      <trkpt lat="50.77849" lon="2.2888">
        <ele>3.2</ele>
        <time>2025-10-01T12:48:35Z</time>
      </trkpt>
      <trkpt lat="50.77848" lon="2.28877">
        <ele>3.2</ele>
        <time>2025-10-01T12:48:37Z</time>
      </trkpt>
      <trkpt lat="50.77848" lon="2.28875">
        <ele>3.2</ele>
        <time>2025-10-01T12:48:38Z</time>
      </trkpt>
      <trkpt lat="50.77848" lon="2.28874">
        <ele>3.2</ele>
        <time>2025-10-01T12:48:39Z</time>
      </trkpt>
      <trkpt lat="50.77848" lon="2.28871">
        <ele>3.2</ele>
        <time>2025-10-01T12:48:42Z</time>
      </trkpt>
      <trkpt lat="50.77848" lon="2.28868">
        <ele>3.2</ele>
        <time>2025-10-01T12:48:43Z</time>
      </trkpt>
      <trkpt lat="50.77847" lon="2.28861">
        <ele>3.4</ele>
        <time>2025-10-01T12:48:46Z</time>
      </trkpt>
      <trkpt lat="50.77847" lon="2.2886">
        <ele>3.4</ele>
        <time>2025-10-01T12:48:47Z</time>
      </trkpt>
      <trkpt lat="50.77846" lon="2.28858">
        <ele>3.4</ele>
        <time>2025-10-01T12:48:48Z</time>
      </trkpt>
      <trkpt lat="50.77847" lon="2.28856">
        <ele>3.4</ele>
        <time>2025-10-01T12:48:49Z</time>
      </trkpt>
      <trkpt lat="50.77847" lon="2.28854">
        <ele>3.4</ele>
        <time>2025-10-01T12:48:50Z</time>
      </trkpt>
      <trkpt lat="50.77847" lon="2.28853">
        <ele>3.4</ele>
        <time>2025-10-01T12:48:51Z</time>
      </trkpt>
      <trkpt lat="50.77848" lon="2.28852">
        <ele>3.4</ele>
        <time>2025-10-01T12:48:52Z</time>
      </trkpt>
      <trkpt lat="50.77849" lon="2.28851">
        <ele>3.4</ele>
        <time>2025-10-01T12:48:53Z</time>
      </trkpt>
      <trkpt lat="50.7785" lon="2.28851">
        <ele>3.4</ele>
        <time>2025-10-01T12:48:54Z</time>
      </trkpt>
      <trkpt lat="50.77851" lon="2.2885">
        <ele>3.4</ele>
        <time>2025-10-01T12:48:55Z</time>
      </trkpt>
      <trkpt lat="50.77852" lon="2.2885">
        <ele>3.4</ele>
        <time>2025-10-01T12:48:56Z</time>
      </trkpt>
      <trkpt lat="50.77853" lon="2.28851">
        <ele>3.4</ele>
        <time>2025-10-01T12:48:57Z</time>
      </trkpt>
      <trkpt lat="50.77855" lon="2.28851">
        <ele>3.4</ele>
        <time>2025-10-01T12:48:58Z</time>
      </trkpt>
      <trkpt lat="50.77855" lon="2.28851">
        <ele>3.4</ele>
        <time>2025-10-01T12:48:59Z</time>
      </trkpt>
      <trkpt lat="50.77857" lon="2.28851">
        <ele>3.4</ele>
        <time>2025-10-01T12:49:00Z</time>
      </trkpt>
      <trkpt lat="50.77858" lon="2.28851">
        <ele>3.4</ele>
        <time>2025-10-01T12:49:01Z</time>
      </trkpt>
      <trkpt lat="50.77859" lon="2.28851">
        <ele>3.4</ele>
        <time>2025-10-01T12:49:02Z</time>
      </trkpt>
      <trkpt lat="50.77861" lon="2.28851">
        <ele>3.4</ele>
        <time>2025-10-01T12:49:03Z</time>
      </trkpt>
      <trkpt lat="50.77864" lon="2.2885">
        <ele>3.4</ele>
        <time>2025-10-01T12:49:05Z</time>
      </trkpt>
      <trkpt lat="50.77866" lon="2.28849">
        <ele>3.4</ele>
        <time>2025-10-01T12:49:07Z</time>
      </trkpt>
      <trkpt lat="50.77869" lon="2.28847">
        <ele>3.4</ele>
        <time>2025-10-01T12:49:09Z</time>
      </trkpt>
      <trkpt lat="50.77871" lon="2.28847">
        <ele>3.4</ele>
        <time>2025-10-01T12:49:10Z</time>
      </trkpt>
      <trkpt lat="50.77879" lon="2.28845">
        <ele>3.2</ele>
        <time>2025-10-01T12:49:16Z</time>
      </trkpt>
      <trkpt lat="50.7788" lon="2.28846">
        <ele>3.2</ele>
        <time>2025-10-01T12:49:17Z</time>
      </trkpt>
      <trkpt lat="50.77883" lon="2.28845">
        <ele>3.2</ele>
        <time>2025-10-01T12:49:19Z</time>
      </trkpt>
      <trkpt lat="50.77887" lon="2.28846">
        <ele>3</ele>
        <time>2025-10-01T12:49:22Z</time>
      </trkpt>
      <trkpt lat="50.77888" lon="2.28846">
        <ele>3</ele>
        <time>2025-10-01T12:49:23Z</time>
      </trkpt>
      <trkpt lat="50.77889" lon="2.28845">
        <ele>3</ele>
        <time>2025-10-01T12:49:24Z</time>
      </trkpt>
      <trkpt lat="50.7789" lon="2.28845">
        <ele>3</ele>
        <time>2025-10-01T12:49:25Z</time>
      </trkpt>
      <trkpt lat="50.77891" lon="2.28846">
        <ele>3</ele>
        <time>2025-10-01T12:49:26Z</time>
      </trkpt>
      <trkpt lat="50.77895" lon="2.28848">
        <ele>3</ele>
        <time>2025-10-01T12:49:29Z</time>
      </trkpt>
      <trkpt lat="50.77897" lon="2.28849">
        <ele>3</ele>
        <time>2025-10-01T12:49:30Z</time>
      </trkpt>
      <trkpt lat="50.77899" lon="2.2885">
        <ele>3</ele>
        <time>2025-10-01T12:49:32Z</time>
      </trkpt>
      <trkpt lat="50.779" lon="2.2885">
        <ele>3</ele>
        <time>2025-10-01T12:49:33Z</time>
      </trkpt>
      <trkpt lat="50.77901" lon="2.2885">
        <ele>3</ele>
        <time>2025-10-01T12:49:34Z</time>
      </trkpt>
      <trkpt lat="50.77902" lon="2.2885">
        <ele>3</ele>
        <time>2025-10-01T12:49:35Z</time>
      </trkpt>
      <trkpt lat="50.77904" lon="2.2885">
        <ele>3</ele>
        <time>2025-10-01T12:49:36Z</time>
      </trkpt>
      <trkpt lat="50.77905" lon="2.2885">
        <ele>3</ele>
        <time>2025-10-01T12:49:37Z</time>
      </trkpt>
      <trkpt lat="50.77906" lon="2.2885">
        <ele>3</ele>
        <time>2025-10-01T12:49:38Z</time>
      </trkpt>
      <trkpt lat="50.77907" lon="2.28849">
        <ele>3</ele>
        <time>2025-10-01T12:49:39Z</time>
      </trkpt>
      <trkpt lat="50.77908" lon="2.28849">
        <ele>3</ele>
        <time>2025-10-01T12:49:40Z</time>
      </trkpt>
      <trkpt lat="50.77909" lon="2.28849">
        <ele>3</ele>
        <time>2025-10-01T12:49:41Z</time>
      </trkpt>
      <trkpt lat="50.7791" lon="2.28849">
        <ele>3</ele>
        <time>2025-10-01T12:49:42Z</time>
      </trkpt>
      <trkpt lat="50.77912" lon="2.28849">
        <ele>3</ele>
        <time>2025-10-01T12:49:43Z</time>
      </trkpt>
      <trkpt lat="50.77916" lon="2.28846">
        <ele>3</ele>
        <time>2025-10-01T12:49:47Z</time>
      </trkpt>
      <trkpt lat="50.77917" lon="2.28846">
        <ele>3</ele>
        <time>2025-10-01T12:49:48Z</time>
      </trkpt>
      <trkpt lat="50.7792" lon="2.28847">
        <ele>3</ele>
        <time>2025-10-01T12:49:50Z</time>
      </trkpt>
      <trkpt lat="50.77921" lon="2.28846">
        <ele>3</ele>
        <time>2025-10-01T12:49:51Z</time>
      </trkpt>
      <trkpt lat="50.77924" lon="2.28845">
        <ele>3</ele>
        <time>2025-10-01T12:49:53Z</time>
      </trkpt>
      <trkpt lat="50.77925" lon="2.28845">
        <ele>3</ele>
        <time>2025-10-01T12:49:54Z</time>
      </trkpt>
      <trkpt lat="50.77927" lon="2.28845">
        <ele>3</ele>
        <time>2025-10-01T12:49:55Z</time>
      </trkpt>
      <trkpt lat="50.77929" lon="2.28846">
        <ele>3</ele>
        <time>2025-10-01T12:49:56Z</time>
      </trkpt>
      <trkpt lat="50.7793" lon="2.28847">
        <ele>3</ele>
        <time>2025-10-01T12:49:57Z</time>
      </trkpt>
      <trkpt lat="50.77932" lon="2.28846">
        <ele>3</ele>
        <time>2025-10-01T12:49:58Z</time>
      </trkpt>
      <trkpt lat="50.77933" lon="2.28846">
        <ele>3</ele>
        <time>2025-10-01T12:49:59Z</time>
      </trkpt>
      <trkpt lat="50.77934" lon="2.28845">
        <ele>3</ele>
        <time>2025-10-01T12:50:00Z</time>
      </trkpt>
      <trkpt lat="50.77935" lon="2.28844">
        <ele>3</ele>
        <time>2025-10-01T12:50:01Z</time>
      </trkpt>
      <trkpt lat="50.77936" lon="2.28844">
        <ele>3</ele>
        <time>2025-10-01T12:50:02Z</time>
      </trkpt>
      <trkpt lat="50.77938" lon="2.28845">
        <ele>3</ele>
        <time>2025-10-01T12:50:03Z</time>
      </trkpt>
      <trkpt lat="50.77939" lon="2.28845">
        <ele>3</ele>
        <time>2025-10-01T12:50:04Z</time>
      </trkpt>
      <trkpt lat="50.77941" lon="2.28845">
        <ele>3</ele>
        <time>2025-10-01T12:50:05Z</time>
      </trkpt>
      <trkpt lat="50.77942" lon="2.28844">
        <ele>3</ele>
        <time>2025-10-01T12:50:06Z</time>
      </trkpt>
      <trkpt lat="50.77943" lon="2.28844">
        <ele>3</ele>
        <time>2025-10-01T12:50:07Z</time>
      </trkpt>
      <trkpt lat="50.77943" lon="2.28844">
        <ele>3</ele>
        <time>2025-10-01T12:50:08Z</time>
      </trkpt>
      <trkpt lat="50.77945" lon="2.28844">
        <ele>3.2</ele>
        <time>2025-10-01T12:50:09Z</time>
      </trkpt>
      <trkpt lat="50.77946" lon="2.28845">
        <ele>3.2</ele>
        <time>2025-10-01T12:50:10Z</time>
      </trkpt>
      <trkpt lat="50.77947" lon="2.28846">
        <ele>3.2</ele>
        <time>2025-10-01T12:50:11Z</time>
      </trkpt>
      <trkpt lat="50.77948" lon="2.28846">
        <ele>3</ele>
        <time>2025-10-01T12:50:12Z</time>
      </trkpt>
      <trkpt lat="50.77949" lon="2.28845">
        <ele>3</ele>
        <time>2025-10-01T12:50:13Z</time>
      </trkpt>
      <trkpt lat="50.7795" lon="2.28844">
        <ele>3</ele>
        <time>2025-10-01T12:50:14Z</time>
      </trkpt>
      <trkpt lat="50.77951" lon="2.28844">
        <ele>3.4</ele>
        <time>2025-10-01T12:50:15Z</time>
      </trkpt>
      <trkpt lat="50.77953" lon="2.28844">
        <ele>3.4</ele>
        <time>2025-10-01T12:50:16Z</time>
      </trkpt>
      <trkpt lat="50.77955" lon="2.28843">
        <ele>3.4</ele>
        <time>2025-10-01T12:50:17Z</time>
      </trkpt>
      <trkpt lat="50.77956" lon="2.28843">
        <ele>3.2</ele>
        <time>2025-10-01T12:50:18Z</time>
      </trkpt>
      <trkpt lat="50.77957" lon="2.28842">
        <ele>3.2</ele>
        <time>2025-10-01T12:50:19Z</time>
      </trkpt>
      <trkpt lat="50.77958" lon="2.28841">
        <ele>3.4</ele>
        <time>2025-10-01T12:50:20Z</time>
      </trkpt>
      <trkpt lat="50.77959" lon="2.2884">
        <ele>3.4</ele>
        <time>2025-10-01T12:50:21Z</time>
      </trkpt>
      <trkpt lat="50.7796" lon="2.2884">
        <ele>3.4</ele>
        <time>2025-10-01T12:50:22Z</time>
      </trkpt>
      <trkpt lat="50.77961" lon="2.2884">
        <ele>3.2</ele>
        <time>2025-10-01T12:50:23Z</time>
      </trkpt>
      <trkpt lat="50.77963" lon="2.2884">
        <ele>3.2</ele>
        <time>2025-10-01T12:50:24Z</time>
      </trkpt>
      <trkpt lat="50.77965" lon="2.28839">
        <ele>3.2</ele>
        <time>2025-10-01T12:50:26Z</time>
      </trkpt>
      <trkpt lat="50.77966" lon="2.28839">
        <ele>3.2</ele>
        <time>2025-10-01T12:50:27Z</time>
      </trkpt>
      <trkpt lat="50.77968" lon="2.28839">
        <ele>3.2</ele>
        <time>2025-10-01T12:50:28Z</time>
      </trkpt>
      <trkpt lat="50.77969" lon="2.28838">
        <ele>3</ele>
        <time>2025-10-01T12:50:29Z</time>
      </trkpt>
      <trkpt lat="50.7797" lon="2.28837">
        <ele>3</ele>
        <time>2025-10-01T12:50:30Z</time>
      </trkpt>
      <trkpt lat="50.77971" lon="2.28835">
        <ele>3</ele>
        <time>2025-10-01T12:50:31Z</time>
      </trkpt>
      <trkpt lat="50.77971" lon="2.28833">
        <ele>3</ele>
        <time>2025-10-01T12:50:32Z</time>
      </trkpt>
      <trkpt lat="50.77971" lon="2.28831">
        <ele>3</ele>
        <time>2025-10-01T12:50:33Z</time>
      </trkpt>
      <trkpt lat="50.77971" lon="2.28827">
        <ele>3</ele>
        <time>2025-10-01T12:50:35Z</time>
      </trkpt>
      <trkpt lat="50.77971" lon="2.28824">
        <ele>3</ele>
        <time>2025-10-01T12:50:36Z</time>
      </trkpt>
      <trkpt lat="50.77972" lon="2.28822">
        <ele>3</ele>
        <time>2025-10-01T12:50:37Z</time>
      </trkpt>
      <trkpt lat="50.77973" lon="2.28815">
        <ele>3</ele>
        <time>2025-10-01T12:50:40Z</time>
      </trkpt>
      <trkpt lat="50.77973" lon="2.28814">
        <ele>3</ele>
        <time>2025-10-01T12:50:41Z</time>
      </trkpt>
      <trkpt lat="50.77973" lon="2.28814">
        <ele>3</ele>
        <time>2025-10-01T12:50:42Z</time>
      </trkpt>
      <trkpt lat="50.77973" lon="2.28808">
        <ele>2.8</ele>
        <time>2025-10-01T12:50:44Z</time>
      </trkpt>
      <trkpt lat="50.77973" lon="2.28806">
        <ele>2.8</ele>
        <time>2025-10-01T12:50:45Z</time>
      </trkpt>
      <trkpt lat="50.77973" lon="2.28805">
        <ele>2.8</ele>
        <time>2025-10-01T12:50:46Z</time>
      </trkpt>
      <trkpt lat="50.77974" lon="2.28803">
        <ele>2.8</ele>
        <time>2025-10-01T12:50:47Z</time>
      </trkpt>
      <trkpt lat="50.77974" lon="2.28801">
        <ele>2.8</ele>
        <time>2025-10-01T12:50:48Z</time>
      </trkpt>
      <trkpt lat="50.77974" lon="2.28798">
        <ele>2.8</ele>
        <time>2025-10-01T12:50:49Z</time>
      </trkpt>
      <trkpt lat="50.77974" lon="2.28795">
        <ele>2.8</ele>
        <time>2025-10-01T12:50:50Z</time>
      </trkpt>
      <trkpt lat="50.77973" lon="2.28794">
        <ele>2.8</ele>
        <time>2025-10-01T12:50:51Z</time>
      </trkpt>
      <trkpt lat="50.77972" lon="2.28792">
        <ele>2.8</ele>
        <time>2025-10-01T12:50:52Z</time>
      </trkpt>
      <trkpt lat="50.77971" lon="2.2879">
        <ele>2.8</ele>
        <time>2025-10-01T12:50:53Z</time>
      </trkpt>
      <trkpt lat="50.77972" lon="2.28788">
        <ele>2.8</ele>
        <time>2025-10-01T12:50:54Z</time>
      </trkpt>
      <trkpt lat="50.77972" lon="2.28786">
        <ele>2.8</ele>
        <time>2025-10-01T12:50:55Z</time>
      </trkpt>
      <trkpt lat="50.77971" lon="2.28784">
        <ele>2.8</ele>
        <time>2025-10-01T12:50:56Z</time>
      </trkpt>
      <trkpt lat="50.77972" lon="2.2878">
        <ele>2.8</ele>
        <time>2025-10-01T12:50:58Z</time>
      </trkpt>
      <trkpt lat="50.77971" lon="2.28778">
        <ele>3</ele>
        <time>2025-10-01T12:50:59Z</time>
      </trkpt>
      <trkpt lat="50.77971" lon="2.28768">
        <ele>2.8</ele>
        <time>2025-10-01T12:51:04Z</time>
      </trkpt>
      <trkpt lat="50.77972" lon="2.28766">
        <ele>2.8</ele>
        <time>2025-10-01T12:51:05Z</time>
      </trkpt>
      <trkpt lat="50.77973" lon="2.28761">
        <ele>2.8</ele>
        <time>2025-10-01T12:51:08Z</time>
      </trkpt>
      <trkpt lat="50.77973" lon="2.28757">
        <ele>2.8</ele>
        <time>2025-10-01T12:51:10Z</time>
      </trkpt>
      <trkpt lat="50.77973" lon="2.28755">
        <ele>2.8</ele>
        <time>2025-10-01T12:51:11Z</time>
      </trkpt>
      <trkpt lat="50.77973" lon="2.28754">
        <ele>2.8</ele>
        <time>2025-10-01T12:51:12Z</time>
      </trkpt>
      <trkpt lat="50.77974" lon="2.28753">
        <ele>2.8</ele>
        <time>2025-10-01T12:51:13Z</time>
      </trkpt>
      <trkpt lat="50.77974" lon="2.2875">
        <ele>2.8</ele>
        <time>2025-10-01T12:51:14Z</time>
      </trkpt>
      <trkpt lat="50.77974" lon="2.28748">
        <ele>2.8</ele>
        <time>2025-10-01T12:51:15Z</time>
      </trkpt>
      <trkpt lat="50.77974" lon="2.28745">
        <ele>2.8</ele>
        <time>2025-10-01T12:51:17Z</time>
      </trkpt>
      <trkpt lat="50.77974" lon="2.28743">
        <ele>2.8</ele>
        <time>2025-10-01T12:51:18Z</time>
      </trkpt>
      <trkpt lat="50.77974" lon="2.28741">
        <ele>2.8</ele>
        <time>2025-10-01T12:51:19Z</time>
      </trkpt>
      <trkpt lat="50.77974" lon="2.28739">
        <ele>2.8</ele>
        <time>2025-10-01T12:51:20Z</time>
      </trkpt>
      <trkpt lat="50.77975" lon="2.28736">
        <ele>2.8</ele>
        <time>2025-10-01T12:51:22Z</time>
      </trkpt>
      <trkpt lat="50.77975" lon="2.28734">
        <ele>2.8</ele>
        <time>2025-10-01T12:51:23Z</time>
      </trkpt>
      <trkpt lat="50.77975" lon="2.28733">
        <ele>2.8</ele>
        <time>2025-10-01T12:51:24Z</time>
      </trkpt>
      <trkpt lat="50.77976" lon="2.28731">
        <ele>2.8</ele>
        <time>2025-10-01T12:51:25Z</time>
      </trkpt>
      <trkpt lat="50.77976" lon="2.28729">
        <ele>2.8</ele>
        <time>2025-10-01T12:51:26Z</time>
      </trkpt>
      <trkpt lat="50.77976" lon="2.28722">
        <ele>2.8</ele>
        <time>2025-10-01T12:51:29Z</time>
      </trkpt>
      <trkpt lat="50.77976" lon="2.2872">
        <ele>3</ele>
        <time>2025-10-01T12:51:30Z</time>
      </trkpt>
      <trkpt lat="50.77975" lon="2.28718">
        <ele>2.8</ele>
        <time>2025-10-01T12:51:31Z</time>
      </trkpt>
      <trkpt lat="50.77975" lon="2.28716">
        <ele>2.8</ele>
        <time>2025-10-01T12:51:32Z</time>
      </trkpt>
      <trkpt lat="50.77975" lon="2.28715">
        <ele>3</ele>
        <time>2025-10-01T12:51:33Z</time>
      </trkpt>
      <trkpt lat="50.77975" lon="2.28714">
        <ele>3</ele>
        <time>2025-10-01T12:51:34Z</time>
      </trkpt>
      <trkpt lat="50.77975" lon="2.28712">
        <ele>3</ele>
        <time>2025-10-01T12:51:35Z</time>
      </trkpt>
      <trkpt lat="50.77974" lon="2.28707">
        <ele>3</ele>
        <time>2025-10-01T12:51:37Z</time>
      </trkpt>
      <trkpt lat="50.77974" lon="2.28702">
        <ele>3</ele>
        <time>2025-10-01T12:51:39Z</time>
      </trkpt>
      <trkpt lat="50.77974" lon="2.287">
        <ele>3</ele>
        <time>2025-10-01T12:51:40Z</time>
      </trkpt>
      <trkpt lat="50.77974" lon="2.28698">
        <ele>3</ele>
        <time>2025-10-01T12:51:41Z</time>
      </trkpt>
      <trkpt lat="50.77974" lon="2.28696">
        <ele>3</ele>
        <time>2025-10-01T12:51:42Z</time>
      </trkpt>
      <trkpt lat="50.77973" lon="2.28689">
        <ele>3</ele>
        <time>2025-10-01T12:51:45Z</time>
      </trkpt>
      <trkpt lat="50.77974" lon="2.28684">
        <ele>3</ele>
        <time>2025-10-01T12:51:47Z</time>
      </trkpt>
      <trkpt lat="50.77974" lon="2.28684">
        <ele>3</ele>
        <time>2025-10-01T12:51:48Z</time>
      </trkpt>
      <trkpt lat="50.77974" lon="2.28683">
        <ele>3</ele>
        <time>2025-10-01T12:51:49Z</time>
      </trkpt>
      <trkpt lat="50.77974" lon="2.28681">
        <ele>3</ele>
        <time>2025-10-01T12:51:50Z</time>
      </trkpt>
      <trkpt lat="50.77975" lon="2.28678">
        <ele>3</ele>
        <time>2025-10-01T12:51:51Z</time>
      </trkpt>
      <trkpt lat="50.77977" lon="2.28671">
        <ele>3</ele>
        <time>2025-10-01T12:51:55Z</time>
      </trkpt>
      <trkpt lat="50.77978" lon="2.28669">
        <ele>3</ele>
        <time>2025-10-01T12:51:56Z</time>
      </trkpt>
      <trkpt lat="50.77978" lon="2.28663">
        <ele>2.8</ele>
        <time>2025-10-01T12:51:59Z</time>
      </trkpt>
      <trkpt lat="50.77979" lon="2.28655">
        <ele>2.8</ele>
        <time>2025-10-01T12:52:03Z</time>
      </trkpt>
      <trkpt lat="50.77979" lon="2.28653">
        <ele>2.8</ele>
        <time>2025-10-01T12:52:04Z</time>
      </trkpt>
      <trkpt lat="50.7798" lon="2.28651">
        <ele>2.8</ele>
        <time>2025-10-01T12:52:05Z</time>
      </trkpt>
      <trkpt lat="50.77979" lon="2.28649">
        <ele>2.8</ele>
        <time>2025-10-01T12:52:06Z</time>
      </trkpt>
      <trkpt lat="50.77979" lon="2.28649">
        <ele>2.8</ele>
        <time>2025-10-01T12:52:07Z</time>
      </trkpt>
      <trkpt lat="50.77979" lon="2.28649">
        <ele>2.8</ele>
        <time>2025-10-01T12:52:08Z</time>
      </trkpt>
      <trkpt lat="50.77978" lon="2.28649">
        <ele>2.8</ele>
        <time>2025-10-01T12:52:09Z</time>
      </trkpt>
      <trkpt lat="50.77977" lon="2.28649">
        <ele>2.8</ele>
        <time>2025-10-01T12:52:10Z</time>
      </trkpt>
      <trkpt lat="50.77971" lon="2.28651">
        <ele>2.8</ele>
        <time>2025-10-01T12:52:15Z</time>
      </trkpt>
      <trkpt lat="50.7797" lon="2.28651">
        <ele>2.8</ele>
        <time>2025-10-01T12:52:16Z</time>
      </trkpt>
      <trkpt lat="50.77965" lon="2.28653">
        <ele>2.6</ele>
        <time>2025-10-01T12:52:20Z</time>
      </trkpt>
      <trkpt lat="50.77964" lon="2.28653">
        <ele>2.6</ele>
        <time>2025-10-01T12:52:21Z</time>
      </trkpt>
      <trkpt lat="50.7796" lon="2.28655">
        <ele>2.6</ele>
        <time>2025-10-01T12:52:23Z</time>
      </trkpt>
      <trkpt lat="50.77959" lon="2.28656">
        <ele>2.6</ele>
        <time>2025-10-01T12:52:24Z</time>
      </trkpt>
      <trkpt lat="50.77957" lon="2.28659">
        <ele>2.6</ele>
        <time>2025-10-01T12:52:26Z</time>
      </trkpt>
      <trkpt lat="50.77956" lon="2.2866">
        <ele>2.6</ele>
        <time>2025-10-01T12:52:28Z</time>
      </trkpt>
      <trkpt lat="50.77955" lon="2.28661">
        <ele>2.6</ele>
        <time>2025-10-01T12:52:29Z</time>
      </trkpt>
      <trkpt lat="50.77955" lon="2.28662">
        <ele>2.6</ele>
        <time>2025-10-01T12:52:30Z</time>
      </trkpt>
      <trkpt lat="50.77954" lon="2.28663">
        <ele>2.6</ele>
        <time>2025-10-01T12:52:31Z</time>
      </trkpt>
      <trkpt lat="50.77953" lon="2.28664">
        <ele>2.6</ele>
        <time>2025-10-01T12:52:32Z</time>
      </trkpt>
      <trkpt lat="50.77952" lon="2.28664">
        <ele>2.4</ele>
        <time>2025-10-01T12:52:33Z</time>
      </trkpt>
      <trkpt lat="50.77951" lon="2.28664">
        <ele>2.4</ele>
        <time>2025-10-01T12:52:34Z</time>
      </trkpt>
      <trkpt lat="50.7795" lon="2.28665">
        <ele>2.4</ele>
        <time>2025-10-01T12:52:35Z</time>
      </trkpt>
      <trkpt lat="50.77949" lon="2.28665">
        <ele>2.4</ele>
        <time>2025-10-01T12:52:36Z</time>
      </trkpt>
      <trkpt lat="50.77948" lon="2.28665">
        <ele>2.4</ele>
        <time>2025-10-01T12:52:37Z</time>
      </trkpt>
      <trkpt lat="50.77948" lon="2.28666">
        <ele>2.4</ele>
        <time>2025-10-01T12:52:38Z</time>
      </trkpt>
      <trkpt lat="50.77947" lon="2.28666">
        <ele>2.4</ele>
        <time>2025-10-01T12:52:39Z</time>
      </trkpt>
      <trkpt lat="50.77946" lon="2.28667">
        <ele>2.4</ele>
        <time>2025-10-01T12:52:40Z</time>
      </trkpt>
      <trkpt lat="50.77945" lon="2.28669">
        <ele>2.4</ele>
        <time>2025-10-01T12:52:42Z</time>
      </trkpt>
      <trkpt lat="50.77944" lon="2.2867">
        <ele>2.4</ele>
        <time>2025-10-01T12:52:43Z</time>
      </trkpt>
      <trkpt lat="50.77943" lon="2.28671">
        <ele>2.4</ele>
        <time>2025-10-01T12:52:44Z</time>
      </trkpt>
      <trkpt lat="50.77942" lon="2.28672">
        <ele>2.4</ele>
        <time>2025-10-01T12:52:45Z</time>
      </trkpt>
      <trkpt lat="50.77941" lon="2.28673">
        <ele>2.4</ele>
        <time>2025-10-01T12:52:46Z</time>
      </trkpt>
      <trkpt lat="50.7794" lon="2.28674">
        <ele>2.4</ele>
        <time>2025-10-01T12:52:47Z</time>
      </trkpt>
      <trkpt lat="50.7794" lon="2.28675">
        <ele>2.4</ele>
        <time>2025-10-01T12:52:48Z</time>
      </trkpt>
      <trkpt lat="50.77938" lon="2.28677">
        <ele>2.4</ele>
        <time>2025-10-01T12:52:50Z</time>
      </trkpt>
      <trkpt lat="50.77937" lon="2.28677">
        <ele>2.4</ele>
        <time>2025-10-01T12:52:51Z</time>
      </trkpt>
      <trkpt lat="50.77936" lon="2.28677">
        <ele>2.4</ele>
        <time>2025-10-01T12:52:52Z</time>
      </trkpt>
      <trkpt lat="50.77936" lon="2.28678">
        <ele>2.4</ele>
        <time>2025-10-01T12:52:53Z</time>
      </trkpt>
      <trkpt lat="50.77931" lon="2.28679">
        <ele>2.4</ele>
        <time>2025-10-01T12:52:57Z</time>
      </trkpt>
      <trkpt lat="50.7793" lon="2.28679">
        <ele>2.4</ele>
        <time>2025-10-01T12:52:58Z</time>
      </trkpt>
      <trkpt lat="50.77926" lon="2.28679">
        <ele>2.4</ele>
        <time>2025-10-01T12:53:01Z</time>
      </trkpt>
      <trkpt lat="50.77926" lon="2.28679">
        <ele>2.4</ele>
        <time>2025-10-01T12:53:02Z</time>
      </trkpt>
      <trkpt lat="50.7792" lon="2.28682">
        <ele>2.4</ele>
        <time>2025-10-01T12:53:07Z</time>
      </trkpt>
      <trkpt lat="50.77916" lon="2.28683">
        <ele>2.2</ele>
        <time>2025-10-01T12:53:11Z</time>
      </trkpt>
      <trkpt lat="50.77914" lon="2.28683">
        <ele>2.2</ele>
        <time>2025-10-01T12:53:12Z</time>
      </trkpt>
      <trkpt lat="50.77913" lon="2.28683">
        <ele>2.2</ele>
        <time>2025-10-01T12:53:13Z</time>
      </trkpt>
      <trkpt lat="50.77909" lon="2.28684">
        <ele>2.2</ele>
        <time>2025-10-01T12:53:16Z</time>
      </trkpt>
      <trkpt lat="50.77905" lon="2.28686">
        <ele>2.2</ele>
        <time>2025-10-01T12:53:20Z</time>
      </trkpt>
      <trkpt lat="50.77905" lon="2.28686">
        <ele>2.2</ele>
        <time>2025-10-01T12:53:21Z</time>
      </trkpt>
      <trkpt lat="50.77904" lon="2.28687">
        <ele>2.2</ele>
        <time>2025-10-01T12:53:22Z</time>
      </trkpt>
      <trkpt lat="50.77903" lon="2.28688">
        <ele>2.2</ele>
        <time>2025-10-01T12:53:23Z</time>
      </trkpt>
      <trkpt lat="50.77902" lon="2.28688">
        <ele>2.2</ele>
        <time>2025-10-01T12:53:24Z</time>
      </trkpt>
      <trkpt lat="50.77901" lon="2.28689">
        <ele>2.2</ele>
        <time>2025-10-01T12:53:25Z</time>
      </trkpt>
      <trkpt lat="50.779" lon="2.2869">
        <ele>2.2</ele>
        <time>2025-10-01T12:53:26Z</time>
      </trkpt>
      <trkpt lat="50.77899" lon="2.2869">
        <ele>2.2</ele>
        <time>2025-10-01T12:53:27Z</time>
      </trkpt>
      <trkpt lat="50.77898" lon="2.2869">
        <ele>2.2</ele>
        <time>2025-10-01T12:53:28Z</time>
      </trkpt>
      <trkpt lat="50.77896" lon="2.2869">
        <ele>2.2</ele>
        <time>2025-10-01T12:53:29Z</time>
      </trkpt>
      <trkpt lat="50.77893" lon="2.2869">
        <ele>2.2</ele>
        <time>2025-10-01T12:53:31Z</time>
      </trkpt>
      <trkpt lat="50.77892" lon="2.2869">
        <ele>2.2</ele>
        <time>2025-10-01T12:53:32Z</time>
      </trkpt>
      <trkpt lat="50.77884" lon="2.2869">
        <ele>2.2</ele>
        <time>2025-10-01T12:53:38Z</time>
      </trkpt>
      <trkpt lat="50.77882" lon="2.2869">
        <ele>2.2</ele>
        <time>2025-10-01T12:53:39Z</time>
      </trkpt>
      <trkpt lat="50.77881" lon="2.2869">
        <ele>2.2</ele>
        <time>2025-10-01T12:53:40Z</time>
      </trkpt>
      <trkpt lat="50.7788" lon="2.2869">
        <ele>2.2</ele>
        <time>2025-10-01T12:53:41Z</time>
      </trkpt>
      <trkpt lat="50.7788" lon="2.2869">
        <ele>2.2</ele>
        <time>2025-10-01T12:53:42Z</time>
      </trkpt>
      <trkpt lat="50.77879" lon="2.28691">
        <ele>2.2</ele>
        <time>2025-10-01T12:53:43Z</time>
      </trkpt>
      <trkpt lat="50.77878" lon="2.28691">
        <ele>2.2</ele>
        <time>2025-10-01T12:53:44Z</time>
      </trkpt>
      <trkpt lat="50.77874" lon="2.28692">
        <ele>2.2</ele>
        <time>2025-10-01T12:53:47Z</time>
      </trkpt>
      <trkpt lat="50.77873" lon="2.28692">
        <ele>2.2</ele>
        <time>2025-10-01T12:53:48Z</time>
      </trkpt>
      <trkpt lat="50.77872" lon="2.28692">
        <ele>2.2</ele>
        <time>2025-10-01T12:53:49Z</time>
      </trkpt>
      <trkpt lat="50.77872" lon="2.28692">
        <ele>2.2</ele>
        <time>2025-10-01T12:53:50Z</time>
      </trkpt>
      <trkpt lat="50.7787" lon="2.28692">
        <ele>2.2</ele>
        <time>2025-10-01T12:53:51Z</time>
      </trkpt>
      <trkpt lat="50.77868" lon="2.28692">
        <ele>2.2</ele>
        <time>2025-10-01T12:53:52Z</time>
      </trkpt>
      <trkpt lat="50.77865" lon="2.28692">
        <ele>2.2</ele>
        <time>2025-10-01T12:53:54Z</time>
      </trkpt>
      <trkpt lat="50.77864" lon="2.28693">
        <ele>2.4</ele>
        <time>2025-10-01T12:53:55Z</time>
      </trkpt>
      <trkpt lat="50.77864" lon="2.28694">
        <ele>2.4</ele>
        <time>2025-10-01T12:53:56Z</time>
      </trkpt>
      <trkpt lat="50.77862" lon="2.28695">
        <ele>2.4</ele>
        <time>2025-10-01T12:53:57Z</time>
      </trkpt>
      <trkpt lat="50.77861" lon="2.28695">
        <ele>2.4</ele>
        <time>2025-10-01T12:53:58Z</time>
      </trkpt>
      <trkpt lat="50.77859" lon="2.28695">
        <ele>2.4</ele>
        <time>2025-10-01T12:53:59Z</time>
      </trkpt>
      <trkpt lat="50.77857" lon="2.28695">
        <ele>2.4</ele>
        <time>2025-10-01T12:54:00Z</time>
      </trkpt>
      <trkpt lat="50.77856" lon="2.28695">
        <ele>2.4</ele>
        <time>2025-10-01T12:54:01Z</time>
      </trkpt>
      <trkpt lat="50.77855" lon="2.28696">
        <ele>2.4</ele>
        <time>2025-10-01T12:54:02Z</time>
      </trkpt>
      <trkpt lat="50.77854" lon="2.28696">
        <ele>2.4</ele>
        <time>2025-10-01T12:54:03Z</time>
      </trkpt>
      <trkpt lat="50.77853" lon="2.28695">
        <ele>2.4</ele>
        <time>2025-10-01T12:54:04Z</time>
      </trkpt>
      <trkpt lat="50.77851" lon="2.28694">
        <ele>2.4</ele>
        <time>2025-10-01T12:54:05Z</time>
      </trkpt>
      <trkpt lat="50.77848" lon="2.28693">
        <ele>2.4</ele>
        <time>2025-10-01T12:54:07Z</time>
      </trkpt>
      <trkpt lat="50.77847" lon="2.28692">
        <ele>2.4</ele>
        <time>2025-10-01T12:54:08Z</time>
      </trkpt>
      <trkpt lat="50.77844" lon="2.28689">
        <ele>2.4</ele>
        <time>2025-10-01T12:54:10Z</time>
      </trkpt>
      <trkpt lat="50.77842" lon="2.28688">
        <ele>2.4</ele>
        <time>2025-10-01T12:54:11Z</time>
      </trkpt>
      <trkpt lat="50.77841" lon="2.28686">
        <ele>2.4</ele>
        <time>2025-10-01T12:54:12Z</time>
      </trkpt>
      <trkpt lat="50.7784" lon="2.28683">
        <ele>2.4</ele>
        <time>2025-10-01T12:54:13Z</time>
      </trkpt>
      <trkpt lat="50.77839" lon="2.28679">
        <ele>2.4</ele>
        <time>2025-10-01T12:54:16Z</time>
      </trkpt>
      <trkpt lat="50.77838" lon="2.28678">
        <ele>2.4</ele>
        <time>2025-10-01T12:54:17Z</time>
      </trkpt>
      <trkpt lat="50.77838" lon="2.28677">
        <ele>2.4</ele>
        <time>2025-10-01T12:54:18Z</time>
      </trkpt>
      <trkpt lat="50.77837" lon="2.28676">
        <ele>2.4</ele>
        <time>2025-10-01T12:54:19Z</time>
      </trkpt>
      <trkpt lat="50.77835" lon="2.28671">
        <ele>2.4</ele>
        <time>2025-10-01T12:54:22Z</time>
      </trkpt>
      <trkpt lat="50.77834" lon="2.28669">
        <ele>2.4</ele>
        <time>2025-10-01T12:54:24Z</time>
      </trkpt>
      <trkpt lat="50.77833" lon="2.28667">
        <ele>2.4</ele>
        <time>2025-10-01T12:54:25Z</time>
      </trkpt>
      <trkpt lat="50.77832" lon="2.28665">
        <ele>2.4</ele>
        <time>2025-10-01T12:54:26Z</time>
      </trkpt>
      <trkpt lat="50.77829" lon="2.2866">
        <ele>2.4</ele>
        <time>2025-10-01T12:54:29Z</time>
      </trkpt>
      <trkpt lat="50.77828" lon="2.2866">
        <ele>2.4</ele>
        <time>2025-10-01T12:54:30Z</time>
      </trkpt>
      <trkpt lat="50.77827" lon="2.28659">
        <ele>2.4</ele>
        <time>2025-10-01T12:54:31Z</time>
      </trkpt>
      <trkpt lat="50.7782" lon="2.28655">
        <ele>2.6</ele>
        <time>2025-10-01T12:54:36Z</time>
      </trkpt>
      <trkpt lat="50.77819" lon="2.28655">
        <ele>2.6</ele>
        <time>2025-10-01T12:54:37Z</time>
      </trkpt>
      <trkpt lat="50.77817" lon="2.28655">
        <ele>2.6</ele>
        <time>2025-10-01T12:54:39Z</time>
      </trkpt>
      <trkpt lat="50.77816" lon="2.28656">
        <ele>2.6</ele>
        <time>2025-10-01T12:54:40Z</time>
      </trkpt>
      <trkpt lat="50.77815" lon="2.28657">
        <ele>2.4</ele>
        <time>2025-10-01T12:54:41Z</time>
      </trkpt>
      <trkpt lat="50.77814" lon="2.28658">
        <ele>2.4</ele>
        <time>2025-10-01T12:54:42Z</time>
      </trkpt>
      <trkpt lat="50.77813" lon="2.28658">
        <ele>2.4</ele>
        <time>2025-10-01T12:54:43Z</time>
      </trkpt>
      <trkpt lat="50.77811" lon="2.28658">
        <ele>2.4</ele>
        <time>2025-10-01T12:54:44Z</time>
      </trkpt>
      <trkpt lat="50.77808" lon="2.28658">
        <ele>2.4</ele>
        <time>2025-10-01T12:54:46Z</time>
      </trkpt>
      <trkpt lat="50.77807" lon="2.28658">
        <ele>2.4</ele>
        <time>2025-10-01T12:54:47Z</time>
      </trkpt>
      <trkpt lat="50.77806" lon="2.28658">
        <ele>2.4</ele>
        <time>2025-10-01T12:54:48Z</time>
      </trkpt>
      <trkpt lat="50.77805" lon="2.28658">
        <ele>2.4</ele>
        <time>2025-10-01T12:54:49Z</time>
      </trkpt>
      <trkpt lat="50.77804" lon="2.28657">
        <ele>2.4</ele>
        <time>2025-10-01T12:54:50Z</time>
      </trkpt>
      <trkpt lat="50.77802" lon="2.28656">
        <ele>2.4</ele>
        <time>2025-10-01T12:54:51Z</time>
      </trkpt>
      <trkpt lat="50.77801" lon="2.28656">
        <ele>2.4</ele>
        <time>2025-10-01T12:54:52Z</time>
      </trkpt>
      <trkpt lat="50.77799" lon="2.28655">
        <ele>2.4</ele>
        <time>2025-10-01T12:54:54Z</time>
      </trkpt>
      <trkpt lat="50.77797" lon="2.28655">
        <ele>2.4</ele>
        <time>2025-10-01T12:54:55Z</time>
      </trkpt>
      <trkpt lat="50.77796" lon="2.28654">
        <ele>2.4</ele>
        <time>2025-10-01T12:54:56Z</time>
      </trkpt>
      <trkpt lat="50.77795" lon="2.28654">
        <ele>2.4</ele>
        <time>2025-10-01T12:54:57Z</time>
      </trkpt>
      <trkpt lat="50.77794" lon="2.28653">
        <ele>2.4</ele>
        <time>2025-10-01T12:54:58Z</time>
      </trkpt>
      <trkpt lat="50.77793" lon="2.28652">
        <ele>2.4</ele>
        <time>2025-10-01T12:54:59Z</time>
      </trkpt>
      <trkpt lat="50.7779" lon="2.28651">
        <ele>2.4</ele>
        <time>2025-10-01T12:55:01Z</time>
      </trkpt>
      <trkpt lat="50.77789" lon="2.2865">
        <ele>2.4</ele>
        <time>2025-10-01T12:55:02Z</time>
      </trkpt>
      <trkpt lat="50.77788" lon="2.2865">
        <ele>2.4</ele>
        <time>2025-10-01T12:55:03Z</time>
      </trkpt>
      <trkpt lat="50.77788" lon="2.28649">
        <ele>2.4</ele>
        <time>2025-10-01T12:55:04Z</time>
      </trkpt>
      <trkpt lat="50.77788" lon="2.28649">
        <ele>2.4</ele>
        <time>2025-10-01T12:55:05Z</time>
      </trkpt>
      <trkpt lat="50.77787" lon="2.28649">
        <ele>2.4</ele>
        <time>2025-10-01T12:55:06Z</time>
      </trkpt>
      <trkpt lat="50.77786" lon="2.28649">
        <ele>2.4</ele>
        <time>2025-10-01T12:55:07Z</time>
      </trkpt>
      <trkpt lat="50.77785" lon="2.28649">
        <ele>2.4</ele>
        <time>2025-10-01T12:55:08Z</time>
      </trkpt>
      <trkpt lat="50.77784" lon="2.28648">
        <ele>2.4</ele>
        <time>2025-10-01T12:55:09Z</time>
      </trkpt>
      <trkpt lat="50.77781" lon="2.28646">
        <ele>2.4</ele>
        <time>2025-10-01T12:55:11Z</time>
      </trkpt>
      <trkpt lat="50.77779" lon="2.28645">
        <ele>2.4</ele>
        <time>2025-10-01T12:55:12Z</time>
      </trkpt>
      <trkpt lat="50.77778" lon="2.28644">
        <ele>2.4</ele>
        <time>2025-10-01T12:55:13Z</time>
      </trkpt>
      <trkpt lat="50.77777" lon="2.28644">
        <ele>2.4</ele>
        <time>2025-10-01T12:55:14Z</time>
      </trkpt>
      <trkpt lat="50.77777" lon="2.28644">
        <ele>2.4</ele>
        <time>2025-10-01T12:55:15Z</time>
      </trkpt>
      <trkpt lat="50.77776" lon="2.28644">
        <ele>2.4</ele>
        <time>2025-10-01T12:55:16Z</time>
      </trkpt>
      <trkpt lat="50.77775" lon="2.28642">
        <ele>2.4</ele>
        <time>2025-10-01T12:55:17Z</time>
      </trkpt>
      <trkpt lat="50.77774" lon="2.28641">
        <ele>2.4</ele>
        <time>2025-10-01T12:55:18Z</time>
      </trkpt>
      <trkpt lat="50.77772" lon="2.28641">
        <ele>2.4</ele>
        <time>2025-10-01T12:55:19Z</time>
      </trkpt>
      <trkpt lat="50.77771" lon="2.28639">
        <ele>2.4</ele>
        <time>2025-10-01T12:55:20Z</time>
      </trkpt>
      <trkpt lat="50.7777" lon="2.28638">
        <ele>2.4</ele>
        <time>2025-10-01T12:55:22Z</time>
      </trkpt>
      <trkpt lat="50.77769" lon="2.28636">
        <ele>2.4</ele>
        <time>2025-10-01T12:55:23Z</time>
      </trkpt>
      <trkpt lat="50.77767" lon="2.28635">
        <ele>2.4</ele>
        <time>2025-10-01T12:55:25Z</time>
      </trkpt>
      <trkpt lat="50.77764" lon="2.28633">
        <ele>2.4</ele>
        <time>2025-10-01T12:55:28Z</time>
      </trkpt>
      <trkpt lat="50.77762" lon="2.28631">
        <ele>2.4</ele>
        <time>2025-10-01T12:55:29Z</time>
      </trkpt>
      <trkpt lat="50.77761" lon="2.2863">
        <ele>2.4</ele>
        <time>2025-10-01T12:55:30Z</time>
      </trkpt>
      <trkpt lat="50.77759" lon="2.28629">
        <ele>2.4</ele>
        <time>2025-10-01T12:55:31Z</time>
      </trkpt>
      <trkpt lat="50.77758" lon="2.28629">
        <ele>2.4</ele>
        <time>2025-10-01T12:55:32Z</time>
      </trkpt>
      <trkpt lat="50.77757" lon="2.28628">
        <ele>2.4</ele>
        <time>2025-10-01T12:55:33Z</time>
      </trkpt>
      <trkpt lat="50.77756" lon="2.28628">
        <ele>2.4</ele>
        <time>2025-10-01T12:55:34Z</time>
      </trkpt>
      <trkpt lat="50.77754" lon="2.28628">
        <ele>2.4</ele>
        <time>2025-10-01T12:55:35Z</time>
      </trkpt>
      <trkpt lat="50.77752" lon="2.28627">
        <ele>2.4</ele>
        <time>2025-10-01T12:55:36Z</time>
      </trkpt>
      <trkpt lat="50.77748" lon="2.28626">
        <ele>2.2</ele>
        <time>2025-10-01T12:55:38Z</time>
      </trkpt>
      <trkpt lat="50.77746" lon="2.28626">
        <ele>2.2</ele>
        <time>2025-10-01T12:55:39Z</time>
      </trkpt>
      <trkpt lat="50.77745" lon="2.28627">
        <ele>2.2</ele>
        <time>2025-10-01T12:55:40Z</time>
      </trkpt>
      <trkpt lat="50.77744" lon="2.28628">
        <ele>2.2</ele>
        <time>2025-10-01T12:55:41Z</time>
      </trkpt>
      <trkpt lat="50.77742" lon="2.28629">
        <ele>2.2</ele>
        <time>2025-10-01T12:55:42Z</time>
      </trkpt>
      <trkpt lat="50.77741" lon="2.28631">
        <ele>2.2</ele>
        <time>2025-10-01T12:55:43Z</time>
      </trkpt>
      <trkpt lat="50.7774" lon="2.28632">
        <ele>2.2</ele>
        <time>2025-10-01T12:55:44Z</time>
      </trkpt>
      <trkpt lat="50.77739" lon="2.28634">
        <ele>2.2</ele>
        <time>2025-10-01T12:55:45Z</time>
      </trkpt>
      <trkpt lat="50.77738" lon="2.28637">
        <ele>2.2</ele>
        <time>2025-10-01T12:55:46Z</time>
      </trkpt>
      <trkpt lat="50.77737" lon="2.28639">
        <ele>2.2</ele>
        <time>2025-10-01T12:55:47Z</time>
      </trkpt>
      <trkpt lat="50.77734" lon="2.28648">
        <ele>2.2</ele>
        <time>2025-10-01T12:55:53Z</time>
      </trkpt>
      <trkpt lat="50.77734" lon="2.28649">
        <ele>2.2</ele>
        <time>2025-10-01T12:55:54Z</time>
      </trkpt>
      <trkpt lat="50.77733" lon="2.28649">
        <ele>2.2</ele>
        <time>2025-10-01T12:55:55Z</time>
      </trkpt>
      <trkpt lat="50.77732" lon="2.2865">
        <ele>2.2</ele>
        <time>2025-10-01T12:55:56Z</time>
      </trkpt>
      <trkpt lat="50.77731" lon="2.2865">
        <ele>2.2</ele>
        <time>2025-10-01T12:55:57Z</time>
      </trkpt>
      <trkpt lat="50.77729" lon="2.2865">
        <ele>2.2</ele>
        <time>2025-10-01T12:55:58Z</time>
      </trkpt>
      <trkpt lat="50.77728" lon="2.2865">
        <ele>2.2</ele>
        <time>2025-10-01T12:55:59Z</time>
      </trkpt>
      <trkpt lat="50.77727" lon="2.28649">
        <ele>2.2</ele>
        <time>2025-10-01T12:56:00Z</time>
      </trkpt>
      <trkpt lat="50.77726" lon="2.2865">
        <ele>2.2</ele>
        <time>2025-10-01T12:56:01Z</time>
      </trkpt>
      <trkpt lat="50.77725" lon="2.28649">
        <ele>2.2</ele>
        <time>2025-10-01T12:56:02Z</time>
      </trkpt>
      <trkpt lat="50.77724" lon="2.2865">
        <ele>2.2</ele>
        <time>2025-10-01T12:56:03Z</time>
      </trkpt>
      <trkpt lat="50.77723" lon="2.28649">
        <ele>2.2</ele>
        <time>2025-10-01T12:56:04Z</time>
      </trkpt>
      <trkpt lat="50.77721" lon="2.28649">
        <ele>2.4</ele>
        <time>2025-10-01T12:56:05Z</time>
      </trkpt>
      <trkpt lat="50.77719" lon="2.28648">
        <ele>2.4</ele>
        <time>2025-10-01T12:56:08Z</time>
      </trkpt>
      <trkpt lat="50.77718" lon="2.28647">
        <ele>2.6</ele>
        <time>2025-10-01T12:56:09Z</time>
      </trkpt>
      <trkpt lat="50.77718" lon="2.28648">
        <ele>2.6</ele>
        <time>2025-10-01T12:56:10Z</time>
      </trkpt>
      <trkpt lat="50.77716" lon="2.28647">
        <ele>2.6</ele>
        <time>2025-10-01T12:56:11Z</time>
      </trkpt>
      <trkpt lat="50.77712" lon="2.28645">
        <ele>2.6</ele>
        <time>2025-10-01T12:56:14Z</time>
      </trkpt>
      <trkpt lat="50.7771" lon="2.28644">
        <ele>2.6</ele>
        <time>2025-10-01T12:56:15Z</time>
      </trkpt>
      <trkpt lat="50.77708" lon="2.28642">
        <ele>2.6</ele>
        <time>2025-10-01T12:56:16Z</time>
      </trkpt>
      <trkpt lat="50.77706" lon="2.28641">
        <ele>2.6</ele>
        <time>2025-10-01T12:56:18Z</time>
      </trkpt>
      <trkpt lat="50.77704" lon="2.2864">
        <ele>2.6</ele>
        <time>2025-10-01T12:56:19Z</time>
      </trkpt>
      <trkpt lat="50.77703" lon="2.2864">
        <ele>2.6</ele>
        <time>2025-10-01T12:56:20Z</time>
      </trkpt>
      <trkpt lat="50.77702" lon="2.28639">
        <ele>2.6</ele>
        <time>2025-10-01T12:56:21Z</time>
      </trkpt>
      <trkpt lat="50.77701" lon="2.28638">
        <ele>2.6</ele>
        <time>2025-10-01T12:56:22Z</time>
      </trkpt>
      <trkpt lat="50.77701" lon="2.28638">
        <ele>2.6</ele>
        <time>2025-10-01T12:56:23Z</time>
      </trkpt>
      <trkpt lat="50.777" lon="2.28638">
        <ele>2.6</ele>
        <time>2025-10-01T12:56:24Z</time>
      </trkpt>
      <trkpt lat="50.77699" lon="2.28638">
        <ele>2.6</ele>
        <time>2025-10-01T12:56:25Z</time>
      </trkpt>
      <trkpt lat="50.77698" lon="2.28638">
        <ele>2.6</ele>
        <time>2025-10-01T12:56:26Z</time>
      </trkpt>
      <trkpt lat="50.77696" lon="2.28637">
        <ele>2.6</ele>
        <time>2025-10-01T12:56:27Z</time>
      </trkpt>
      <trkpt lat="50.7769" lon="2.28634">
        <ele>2.4</ele>
        <time>2025-10-01T12:56:30Z</time>
      </trkpt>
      <trkpt lat="50.77689" lon="2.28634">
        <ele>2.4</ele>
        <time>2025-10-01T12:56:31Z</time>
      </trkpt>
      <trkpt lat="50.77688" lon="2.28633">
        <ele>2.4</ele>
        <time>2025-10-01T12:56:32Z</time>
      </trkpt>
      <trkpt lat="50.77688" lon="2.28633">
        <ele>2.4</ele>
        <time>2025-10-01T12:56:33Z</time>
      </trkpt>
      <trkpt lat="50.77687" lon="2.28632">
        <ele>2.4</ele>
        <time>2025-10-01T12:56:34Z</time>
      </trkpt>
      <trkpt lat="50.77683" lon="2.28631">
        <ele>2.2</ele>
        <time>2025-10-01T12:56:36Z</time>
      </trkpt>
      <trkpt lat="50.77681" lon="2.28631">
        <ele>2.2</ele>
        <time>2025-10-01T12:56:37Z</time>
      </trkpt>
      <trkpt lat="50.7768" lon="2.28631">
        <ele>2.2</ele>
        <time>2025-10-01T12:56:38Z</time>
      </trkpt>
      <trkpt lat="50.77679" lon="2.28632">
        <ele>2.2</ele>
        <time>2025-10-01T12:56:39Z</time>
      </trkpt>
      <trkpt lat="50.77678" lon="2.28634">
        <ele>2.2</ele>
        <time>2025-10-01T12:56:40Z</time>
      </trkpt>
      <trkpt lat="50.77677" lon="2.28635">
        <ele>2.2</ele>
        <time>2025-10-01T12:56:41Z</time>
      </trkpt>
      <trkpt lat="50.77675" lon="2.28636">
        <ele>2.2</ele>
        <time>2025-10-01T12:56:43Z</time>
      </trkpt>
      <trkpt lat="50.77674" lon="2.28636">
        <ele>2.2</ele>
        <time>2025-10-01T12:56:45Z</time>
      </trkpt>
      <trkpt lat="50.77674" lon="2.28636">
        <ele>2.2</ele>
        <time>2025-10-01T12:56:46Z</time>
      </trkpt>
      <trkpt lat="50.77674" lon="2.28636">
        <ele>2.2</ele>
        <time>2025-10-01T12:56:47Z</time>
      </trkpt>
      <trkpt lat="50.77674" lon="2.28636">
        <ele>2.2</ele>
        <time>2025-10-01T12:56:48Z</time>
      </trkpt>
      <trkpt lat="50.77674" lon="2.28636">
        <ele>2.2</ele>
        <time>2025-10-01T12:56:50Z</time>
      </trkpt>
      <trkpt lat="50.77674" lon="2.28636">
        <ele>2.2</ele>
        <time>2025-10-01T12:56:51Z</time>
      </trkpt>
      <trkpt lat="50.77674" lon="2.28636">
        <ele>2.2</ele>
        <time>2025-10-01T12:56:53Z</time>
      </trkpt>
      <trkpt lat="50.77674" lon="2.28637">
        <ele>2.2</ele>
        <time>2025-10-01T12:56:54Z</time>
      </trkpt>
      <trkpt lat="50.77673" lon="2.28637">
        <ele>2.2</ele>
        <time>2025-10-01T12:57:10Z</time>
      </trkpt>
      <trkpt lat="50.77671" lon="2.28637">
        <ele>2</ele>
        <time>2025-10-01T12:57:14Z</time>
      </trkpt>
      <trkpt lat="50.7767" lon="2.28637">
        <ele>2</ele>
        <time>2025-10-01T12:57:15Z</time>
      </trkpt>
      <trkpt lat="50.7767" lon="2.28637">
        <ele>2</ele>
        <time>2025-10-01T12:57:16Z</time>
      </trkpt>
      <trkpt lat="50.7767" lon="2.28637">
        <ele>2</ele>
        <time>2025-10-01T12:57:17Z</time>
      </trkpt>
      <trkpt lat="50.77664" lon="2.28654">
        <ele>2.6</ele>
        <time>2025-10-01T12:58:19Z</time>
      </trkpt>
      <trkpt lat="50.77665" lon="2.28658">
        <ele>2.6</ele>
        <time>2025-10-01T12:58:21Z</time>
      </trkpt>
      <trkpt lat="50.77666" lon="2.2866">
        <ele>2.6</ele>
        <time>2025-10-01T12:58:22Z</time>
      </trkpt>
      <trkpt lat="50.77666" lon="2.28664">
        <ele>2.6</ele>
        <time>2025-10-01T12:58:24Z</time>
      </trkpt>
      <trkpt lat="50.77667" lon="2.28671">
        <ele>2.6</ele>
        <time>2025-10-01T12:58:28Z</time>
      </trkpt>
      <trkpt lat="50.77669" lon="2.28684">
        <ele>2.8</ele>
        <time>2025-10-01T12:58:34Z</time>
      </trkpt>
      <trkpt lat="50.77669" lon="2.28686">
        <ele>2.8</ele>
        <time>2025-10-01T12:58:35Z</time>
      </trkpt>
      <trkpt lat="50.77669" lon="2.28688">
        <ele>2.8</ele>
        <time>2025-10-01T12:58:36Z</time>
      </trkpt>
      <trkpt lat="50.7767" lon="2.28693">
        <ele>2.8</ele>
        <time>2025-10-01T12:58:38Z</time>
      </trkpt>
      <trkpt lat="50.77671" lon="2.28701">
        <ele>2.8</ele>
        <time>2025-10-01T12:58:41Z</time>
      </trkpt>
      <trkpt lat="50.77672" lon="2.28703">
        <ele>2.8</ele>
        <time>2025-10-01T12:58:42Z</time>
      </trkpt>
      <trkpt lat="50.77672" lon="2.28707">
        <ele>2.8</ele>
        <time>2025-10-01T12:58:44Z</time>
      </trkpt>
      <trkpt lat="50.77672" lon="2.28719">
        <ele>2.8</ele>
        <time>2025-10-01T12:58:49Z</time>
      </trkpt>
      <trkpt lat="50.77672" lon="2.28721">
        <ele>2.8</ele>
        <time>2025-10-01T12:58:50Z</time>
      </trkpt>
      <trkpt lat="50.77672" lon="2.28722">
        <ele>2.8</ele>
        <time>2025-10-01T12:58:51Z</time>
      </trkpt>
      <trkpt lat="50.77671" lon="2.28722">
        <ele>3</ele>
        <time>2025-10-01T12:58:52Z</time>
      </trkpt>
      <trkpt lat="50.77671" lon="2.28722">
        <ele>3</ele>
        <time>2025-10-01T12:58:53Z</time>
      </trkpt>
      <trkpt lat="50.77671" lon="2.28722">
        <ele>3</ele>
        <time>2025-10-01T12:58:54Z</time>
      </trkpt>
      <trkpt lat="50.77672" lon="2.28724">
        <ele>3</ele>
        <time>2025-10-01T12:58:55Z</time>
      </trkpt>
      <trkpt lat="50.77672" lon="2.28725">
        <ele>3</ele>
        <time>2025-10-01T12:58:56Z</time>
      </trkpt>
      <trkpt lat="50.77672" lon="2.28727">
        <ele>3</ele>
        <time>2025-10-01T12:58:57Z</time>
      </trkpt>
      <trkpt lat="50.77672" lon="2.28736">
        <ele>3</ele>
        <time>2025-10-01T12:59:01Z</time>
      </trkpt>
      <trkpt lat="50.77673" lon="2.2874">
        <ele>3</ele>
        <time>2025-10-01T12:59:03Z</time>
      </trkpt>
      <trkpt lat="50.77673" lon="2.28742">
        <ele>3</ele>
        <time>2025-10-01T12:59:04Z</time>
      </trkpt>
      <trkpt lat="50.77672" lon="2.28744">
        <ele>3</ele>
        <time>2025-10-01T12:59:05Z</time>
      </trkpt>
      <trkpt lat="50.77672" lon="2.28745">
        <ele>3</ele>
        <time>2025-10-01T12:59:06Z</time>
      </trkpt>
      <trkpt lat="50.77672" lon="2.28747">
        <ele>3</ele>
        <time>2025-10-01T12:59:07Z</time>
      </trkpt>
      <trkpt lat="50.77671" lon="2.28749">
        <ele>3.2</ele>
        <time>2025-10-01T12:59:08Z</time>
      </trkpt>
      <trkpt lat="50.77672" lon="2.2875">
        <ele>3.2</ele>
        <time>2025-10-01T12:59:09Z</time>
      </trkpt>
      <trkpt lat="50.77672" lon="2.28751">
        <ele>3.2</ele>
        <time>2025-10-01T12:59:10Z</time>
      </trkpt>
      <trkpt lat="50.77672" lon="2.28753">
        <ele>3.2</ele>
        <time>2025-10-01T12:59:11Z</time>
      </trkpt>
      <trkpt lat="50.77672" lon="2.28755">
        <ele>3.2</ele>
        <time>2025-10-01T12:59:12Z</time>
      </trkpt>
      <trkpt lat="50.77671" lon="2.28756">
        <ele>3.2</ele>
        <time>2025-10-01T12:59:13Z</time>
      </trkpt>
      <trkpt lat="50.77671" lon="2.28757">
        <ele>3.2</ele>
        <time>2025-10-01T12:59:14Z</time>
      </trkpt>
      <trkpt lat="50.77672" lon="2.28759">
        <ele>3.2</ele>
        <time>2025-10-01T12:59:15Z</time>
      </trkpt>
      <trkpt lat="50.77672" lon="2.28761">
        <ele>3.2</ele>
        <time>2025-10-01T12:59:16Z</time>
      </trkpt>
      <trkpt lat="50.77673" lon="2.28772">
        <ele>3.2</ele>
        <time>2025-10-01T12:59:21Z</time>
      </trkpt>
      <trkpt lat="50.77673" lon="2.28775">
        <ele>3.2</ele>
        <time>2025-10-01T12:59:23Z</time>
      </trkpt>
      <trkpt lat="50.77673" lon="2.28777">
        <ele>3.2</ele>
        <time>2025-10-01T12:59:24Z</time>
      </trkpt>
      <trkpt lat="50.77674" lon="2.28782">
        <ele>3.2</ele>
        <time>2025-10-01T12:59:27Z</time>
      </trkpt>
      <trkpt lat="50.77674" lon="2.28784">
        <ele>3.2</ele>
        <time>2025-10-01T12:59:28Z</time>
      </trkpt>
      <trkpt lat="50.77674" lon="2.28786">
        <ele>3</ele>
        <time>2025-10-01T12:59:29Z</time>
      </trkpt>
      <trkpt lat="50.77674" lon="2.28793">
        <ele>3</ele>
        <time>2025-10-01T12:59:32Z</time>
      </trkpt>
      <trkpt lat="50.77675" lon="2.28807">
        <ele>2.8</ele>
        <time>2025-10-01T12:59:39Z</time>
      </trkpt>
      <trkpt lat="50.77675" lon="2.28813">
        <ele>2.8</ele>
        <time>2025-10-01T12:59:42Z</time>
      </trkpt>
      <trkpt lat="50.77676" lon="2.28815">
        <ele>2.8</ele>
        <time>2025-10-01T12:59:43Z</time>
      </trkpt>
      <trkpt lat="50.77676" lon="2.28817">
        <ele>2.8</ele>
        <time>2025-10-01T12:59:44Z</time>
      </trkpt>
      <trkpt lat="50.77676" lon="2.28819">
        <ele>2.8</ele>
        <time>2025-10-01T12:59:45Z</time>
      </trkpt>
      <trkpt lat="50.77676" lon="2.28821">
        <ele>2.8</ele>
        <time>2025-10-01T12:59:46Z</time>
      </trkpt>
      <trkpt lat="50.77677" lon="2.28824">
        <ele>2.8</ele>
        <time>2025-10-01T12:59:47Z</time>
      </trkpt>
      <trkpt lat="50.77678" lon="2.28826">
        <ele>2.8</ele>
        <time>2025-10-01T12:59:48Z</time>
      </trkpt>
      <trkpt lat="50.77679" lon="2.28832">
        <ele>2.6</ele>
        <time>2025-10-01T12:59:51Z</time>
      </trkpt>
      <trkpt lat="50.77679" lon="2.28834">
        <ele>2.6</ele>
        <time>2025-10-01T12:59:52Z</time>
      </trkpt>
      <trkpt lat="50.7768" lon="2.28836">
        <ele>2.6</ele>
        <time>2025-10-01T12:59:53Z</time>
      </trkpt>
      <trkpt lat="50.7768" lon="2.28838">
        <ele>2.6</ele>
        <time>2025-10-01T12:59:55Z</time>
      </trkpt>
      <trkpt lat="50.7768" lon="2.2884">
        <ele>2.6</ele>
        <time>2025-10-01T12:59:56Z</time>
      </trkpt>
      <trkpt lat="50.77681" lon="2.28842">
        <ele>2.6</ele>
        <time>2025-10-01T12:59:57Z</time>
      </trkpt>
      <trkpt lat="50.77681" lon="2.28844">
        <ele>2.6</ele>
        <time>2025-10-01T12:59:58Z</time>
      </trkpt>
      <trkpt lat="50.77681" lon="2.28845">
        <ele>2.6</ele>
        <time>2025-10-01T12:59:59Z</time>
      </trkpt>
      <trkpt lat="50.77682" lon="2.28851">
        <ele>2.6</ele>
        <time>2025-10-01T13:00:01Z</time>
      </trkpt>
      <trkpt lat="50.77682" lon="2.28852">
        <ele>2.6</ele>
        <time>2025-10-01T13:00:02Z</time>
      </trkpt>
      <trkpt lat="50.77682" lon="2.28858">
        <ele>2.6</ele>
        <time>2025-10-01T13:00:05Z</time>
      </trkpt>
      <trkpt lat="50.77682" lon="2.2886">
        <ele>2.4</ele>
        <time>2025-10-01T13:00:06Z</time>
      </trkpt>
      <trkpt lat="50.77683" lon="2.28863">
        <ele>2.4</ele>
        <time>2025-10-01T13:00:09Z</time>
      </trkpt>
      <trkpt lat="50.77683" lon="2.28864">
        <ele>2.4</ele>
        <time>2025-10-01T13:00:10Z</time>
      </trkpt>
      <trkpt lat="50.77683" lon="2.28866">
        <ele>2.4</ele>
        <time>2025-10-01T13:00:11Z</time>
      </trkpt>
      <trkpt lat="50.77683" lon="2.28868">
        <ele>2.4</ele>
        <time>2025-10-01T13:00:12Z</time>
      </trkpt>
      <trkpt lat="50.77683" lon="2.28871">
        <ele>2.4</ele>
        <time>2025-10-01T13:00:13Z</time>
      </trkpt>
      <trkpt lat="50.77684" lon="2.28873">
        <ele>2.4</ele>
        <time>2025-10-01T13:00:14Z</time>
      </trkpt>
      <trkpt lat="50.77683" lon="2.28879">
        <ele>2.4</ele>
        <time>2025-10-01T13:00:17Z</time>
      </trkpt>
      <trkpt lat="50.77684" lon="2.28881">
        <ele>2.4</ele>
        <time>2025-10-01T13:00:18Z</time>
      </trkpt>
      <trkpt lat="50.77685" lon="2.28884">
        <ele>2.4</ele>
        <time>2025-10-01T13:00:19Z</time>
      </trkpt>
      <trkpt lat="50.77686" lon="2.28885">
        <ele>2.4</ele>
        <time>2025-10-01T13:00:20Z</time>
      </trkpt>
      <trkpt lat="50.77687" lon="2.28888">
        <ele>2.4</ele>
        <time>2025-10-01T13:00:21Z</time>
      </trkpt>
      <trkpt lat="50.77688" lon="2.2889">
        <ele>2.4</ele>
        <time>2025-10-01T13:00:22Z</time>
      </trkpt>
      <trkpt lat="50.77689" lon="2.28891">
        <ele>2.4</ele>
        <time>2025-10-01T13:00:23Z</time>
      </trkpt>
      <trkpt lat="50.7769" lon="2.28893">
        <ele>2.4</ele>
        <time>2025-10-01T13:00:24Z</time>
      </trkpt>
      <trkpt lat="50.77692" lon="2.28897">
        <ele>2.6</ele>
        <time>2025-10-01T13:00:26Z</time>
      </trkpt>
      <trkpt lat="50.77696" lon="2.28905">
        <ele>2.6</ele>
        <time>2025-10-01T13:00:29Z</time>
      </trkpt>
      <trkpt lat="50.77699" lon="2.28912">
        <ele>2.6</ele>
        <time>2025-10-01T13:00:32Z</time>
      </trkpt>
      <trkpt lat="50.77703" lon="2.28921">
        <ele>2.6</ele>
        <time>2025-10-01T13:00:37Z</time>
      </trkpt>
      <trkpt lat="50.77704" lon="2.28922">
        <ele>2.6</ele>
        <time>2025-10-01T13:00:38Z</time>
      </trkpt>
      <trkpt lat="50.77705" lon="2.28924">
        <ele>2.6</ele>
        <time>2025-10-01T13:00:39Z</time>
      </trkpt>
      <trkpt lat="50.77705" lon="2.28926">
        <ele>2.6</ele>
        <time>2025-10-01T13:00:40Z</time>
      </trkpt>
      <trkpt lat="50.77706" lon="2.28928">
        <ele>2.6</ele>
        <time>2025-10-01T13:00:41Z</time>
      </trkpt>
      <trkpt lat="50.77708" lon="2.28933">
        <ele>2.6</ele>
        <time>2025-10-01T13:00:44Z</time>
      </trkpt>
      <trkpt lat="50.77709" lon="2.28935">
        <ele>2.6</ele>
        <time>2025-10-01T13:00:45Z</time>
      </trkpt>
      <trkpt lat="50.77712" lon="2.28942">
        <ele>2.6</ele>
        <time>2025-10-01T13:00:49Z</time>
      </trkpt>
      <trkpt lat="50.77713" lon="2.28948">
        <ele>2.6</ele>
        <time>2025-10-01T13:00:52Z</time>
      </trkpt>
      <trkpt lat="50.77713" lon="2.28949">
        <ele>2.6</ele>
        <time>2025-10-01T13:00:53Z</time>
      </trkpt>
      <trkpt lat="50.77713" lon="2.28951">
        <ele>2.6</ele>
        <time>2025-10-01T13:00:54Z</time>
      </trkpt>
      <trkpt lat="50.77713" lon="2.28954">
        <ele>2.4</ele>
        <time>2025-10-01T13:00:55Z</time>
      </trkpt>
      <trkpt lat="50.77713" lon="2.28957">
        <ele>2.4</ele>
        <time>2025-10-01T13:00:56Z</time>
      </trkpt>
      <trkpt lat="50.77713" lon="2.2897">
        <ele>2.4</ele>
        <time>2025-10-01T13:01:02Z</time>
      </trkpt>
      <trkpt lat="50.77713" lon="2.28971">
        <ele>2.4</ele>
        <time>2025-10-01T13:01:03Z</time>
      </trkpt>
      <trkpt lat="50.77713" lon="2.28975">
        <ele>2.4</ele>
        <time>2025-10-01T13:01:05Z</time>
      </trkpt>
      <trkpt lat="50.77715" lon="2.28982">
        <ele>2.4</ele>
        <time>2025-10-01T13:01:08Z</time>
      </trkpt>
      <trkpt lat="50.77715" lon="2.28986">
        <ele>2.4</ele>
        <time>2025-10-01T13:01:10Z</time>
      </trkpt>
      <trkpt lat="50.77715" lon="2.28987">
        <ele>2.4</ele>
        <time>2025-10-01T13:01:11Z</time>
      </trkpt>
      <trkpt lat="50.77718" lon="2.28999">
        <ele>2.6</ele>
        <time>2025-10-01T13:01:17Z</time>
      </trkpt>
      <trkpt lat="50.77719" lon="2.29001">
        <ele>2.8</ele>
        <time>2025-10-01T13:01:18Z</time>
      </trkpt>
      <trkpt lat="50.77719" lon="2.29003">
        <ele>2.8</ele>
        <time>2025-10-01T13:01:19Z</time>
      </trkpt>
      <trkpt lat="50.77719" lon="2.29004">
        <ele>2.8</ele>
        <time>2025-10-01T13:01:20Z</time>
      </trkpt>
      <trkpt lat="50.77719" lon="2.29006">
        <ele>2.8</ele>
        <time>2025-10-01T13:01:21Z</time>
      </trkpt>
      <trkpt lat="50.77719" lon="2.29008">
        <ele>2.8</ele>
        <time>2025-10-01T13:01:22Z</time>
      </trkpt>
      <trkpt lat="50.77719" lon="2.2901">
        <ele>2.8</ele>
        <time>2025-10-01T13:01:23Z</time>
      </trkpt>
      <trkpt lat="50.77718" lon="2.29013">
        <ele>2.8</ele>
        <time>2025-10-01T13:01:24Z</time>
      </trkpt>
      <trkpt lat="50.77718" lon="2.29014">
        <ele>2.8</ele>
        <time>2025-10-01T13:01:25Z</time>
      </trkpt>
      <trkpt lat="50.77717" lon="2.29015">
        <ele>2.8</ele>
        <time>2025-10-01T13:01:26Z</time>
      </trkpt>
      <trkpt lat="50.77717" lon="2.29017">
        <ele>2.8</ele>
        <time>2025-10-01T13:01:27Z</time>
      </trkpt>
      <trkpt lat="50.77716" lon="2.29018">
        <ele>2.8</ele>
        <time>2025-10-01T13:01:28Z</time>
      </trkpt>
      <trkpt lat="50.77714" lon="2.29019">
        <ele>2.8</ele>
        <time>2025-10-01T13:01:31Z</time>
      </trkpt>
      <trkpt lat="50.77713" lon="2.2902">
        <ele>2.8</ele>
        <time>2025-10-01T13:01:32Z</time>
      </trkpt>
      <trkpt lat="50.77711" lon="2.29021">
        <ele>2.8</ele>
        <time>2025-10-01T13:01:33Z</time>
      </trkpt>
      <trkpt lat="50.7771" lon="2.29021">
        <ele>2.8</ele>
        <time>2025-10-01T13:01:34Z</time>
      </trkpt>
      <trkpt lat="50.77706" lon="2.29021">
        <ele>2.8</ele>
        <time>2025-10-01T13:01:37Z</time>
      </trkpt>
      <trkpt lat="50.77705" lon="2.29021">
        <ele>2.8</ele>
        <time>2025-10-01T13:01:38Z</time>
      </trkpt>
      <trkpt lat="50.77703" lon="2.29022">
        <ele>2.8</ele>
        <time>2025-10-01T13:01:40Z</time>
      </trkpt>
      <trkpt lat="50.77693" lon="2.29028">
        <ele>2.8</ele>
        <time>2025-10-01T13:01:47Z</time>
      </trkpt>
      <trkpt lat="50.77692" lon="2.29029">
        <ele>2.6</ele>
        <time>2025-10-01T13:01:48Z</time>
      </trkpt>
      <trkpt lat="50.77691" lon="2.2903">
        <ele>2.6</ele>
        <time>2025-10-01T13:01:49Z</time>
      </trkpt>
      <trkpt lat="50.77689" lon="2.2903">
        <ele>2.4</ele>
        <time>2025-10-01T13:01:50Z</time>
      </trkpt>
      <trkpt lat="50.77687" lon="2.29032">
        <ele>2.6</ele>
        <time>2025-10-01T13:01:52Z</time>
      </trkpt>
      <trkpt lat="50.77686" lon="2.29034">
        <ele>2.4</ele>
        <time>2025-10-01T13:01:53Z</time>
      </trkpt>
      <trkpt lat="50.77685" lon="2.29035">
        <ele>2.2</ele>
        <time>2025-10-01T13:01:54Z</time>
      </trkpt>
      <trkpt lat="50.77684" lon="2.29035">
        <ele>2.4</ele>
        <time>2025-10-01T13:01:55Z</time>
      </trkpt>
      <trkpt lat="50.77683" lon="2.29036">
        <ele>2.4</ele>
        <time>2025-10-01T13:01:56Z</time>
      </trkpt>
      <trkpt lat="50.77681" lon="2.29036">
        <ele>2.2</ele>
        <time>2025-10-01T13:01:57Z</time>
      </trkpt>
      <trkpt lat="50.77679" lon="2.29037">
        <ele>2.2</ele>
        <time>2025-10-01T13:01:58Z</time>
      </trkpt>
      <trkpt lat="50.77678" lon="2.29038">
        <ele>2.2</ele>
        <time>2025-10-01T13:01:59Z</time>
      </trkpt>
      <trkpt lat="50.77675" lon="2.29041">
        <ele>2.4</ele>
        <time>2025-10-01T13:02:01Z</time>
      </trkpt>
      <trkpt lat="50.77668" lon="2.29045">
        <ele>2</ele>
        <time>2025-10-01T13:02:06Z</time>
      </trkpt>
      <trkpt lat="50.77666" lon="2.29046">
        <ele>2</ele>
        <time>2025-10-01T13:02:08Z</time>
      </trkpt>
      <trkpt lat="50.77665" lon="2.29047">
        <ele>2</ele>
        <time>2025-10-01T13:02:09Z</time>
      </trkpt>
      <trkpt lat="50.77664" lon="2.29048">
        <ele>2</ele>
        <time>2025-10-01T13:02:10Z</time>
      </trkpt>
      <trkpt lat="50.77663" lon="2.29048">
        <ele>2</ele>
        <time>2025-10-01T13:02:11Z</time>
      </trkpt>
      <trkpt lat="50.77662" lon="2.29049">
        <ele>2</ele>
        <time>2025-10-01T13:02:12Z</time>
      </trkpt>
      <trkpt lat="50.77661" lon="2.2905">
        <ele>2</ele>
        <time>2025-10-01T13:02:13Z</time>
      </trkpt>
      <trkpt lat="50.7766" lon="2.29051">
        <ele>2</ele>
        <time>2025-10-01T13:02:14Z</time>
      </trkpt>
      <trkpt lat="50.77656" lon="2.29054">
        <ele>2.2</ele>
        <time>2025-10-01T13:02:17Z</time>
      </trkpt>
      <trkpt lat="50.77654" lon="2.29054">
        <ele>2.2</ele>
        <time>2025-10-01T13:02:18Z</time>
      </trkpt>
      <trkpt lat="50.77653" lon="2.29055">
        <ele>2.2</ele>
        <time>2025-10-01T13:02:19Z</time>
      </trkpt>
      <trkpt lat="50.77652" lon="2.29056">
        <ele>2</ele>
        <time>2025-10-01T13:02:20Z</time>
      </trkpt>
      <trkpt lat="50.7765" lon="2.29056">
        <ele>2.2</ele>
        <time>2025-10-01T13:02:21Z</time>
      </trkpt>
      <trkpt lat="50.77645" lon="2.29058">
        <ele>2.2</ele>
        <time>2025-10-01T13:02:25Z</time>
      </trkpt>
      <trkpt lat="50.77644" lon="2.29058">
        <ele>2.2</ele>
        <time>2025-10-01T13:02:26Z</time>
      </trkpt>
      <trkpt lat="50.77642" lon="2.29058">
        <ele>2.2</ele>
        <time>2025-10-01T13:02:27Z</time>
      </trkpt>
      <trkpt lat="50.77641" lon="2.29058">
        <ele>2.2</ele>
        <time>2025-10-01T13:02:28Z</time>
      </trkpt>
      <trkpt lat="50.7764" lon="2.29059">
        <ele>2.2</ele>
        <time>2025-10-01T13:02:29Z</time>
      </trkpt>
      <trkpt lat="50.77639" lon="2.29059">
        <ele>2.2</ele>
        <time>2025-10-01T13:02:30Z</time>
      </trkpt>
      <trkpt lat="50.77638" lon="2.29059">
        <ele>2.2</ele>
        <time>2025-10-01T13:02:31Z</time>
      </trkpt>
      <trkpt lat="50.77636" lon="2.2906">
        <ele>2.2</ele>
        <time>2025-10-01T13:02:32Z</time>
      </trkpt>
      <trkpt lat="50.77635" lon="2.29061">
        <ele>2.2</ele>
        <time>2025-10-01T13:02:33Z</time>
      </trkpt>
      <trkpt lat="50.77633" lon="2.29063">
        <ele>2.2</ele>
        <time>2025-10-01T13:02:34Z</time>
      </trkpt>
      <trkpt lat="50.77632" lon="2.29064">
        <ele>2.2</ele>
        <time>2025-10-01T13:02:35Z</time>
      </trkpt>
      <trkpt lat="50.77631" lon="2.29065">
        <ele>2.2</ele>
        <time>2025-10-01T13:02:36Z</time>
      </trkpt>
      <trkpt lat="50.7763" lon="2.29066">
        <ele>2.4</ele>
        <time>2025-10-01T13:02:37Z</time>
      </trkpt>
      <trkpt lat="50.77629" lon="2.29067">
        <ele>2.2</ele>
        <time>2025-10-01T13:02:38Z</time>
      </trkpt>
      <trkpt lat="50.77627" lon="2.29066">
        <ele>2.2</ele>
        <time>2025-10-01T13:02:40Z</time>
      </trkpt>
      <trkpt lat="50.77625" lon="2.29066">
        <ele>2.2</ele>
        <time>2025-10-01T13:02:41Z</time>
      </trkpt>
      <trkpt lat="50.77624" lon="2.29067">
        <ele>2.2</ele>
        <time>2025-10-01T13:02:42Z</time>
      </trkpt>
      <trkpt lat="50.77622" lon="2.29068">
        <ele>2.2</ele>
        <time>2025-10-01T13:02:43Z</time>
      </trkpt>
      <trkpt lat="50.77621" lon="2.29068">
        <ele>2.2</ele>
        <time>2025-10-01T13:02:44Z</time>
      </trkpt>
      <trkpt lat="50.7762" lon="2.29069">
        <ele>2.2</ele>
        <time>2025-10-01T13:02:45Z</time>
      </trkpt>
      <trkpt lat="50.77619" lon="2.29069">
        <ele>2.2</ele>
        <time>2025-10-01T13:02:46Z</time>
      </trkpt>
      <trkpt lat="50.77615" lon="2.29071">
        <ele>2.4</ele>
        <time>2025-10-01T13:02:49Z</time>
      </trkpt>
      <trkpt lat="50.77614" lon="2.29072">
        <ele>2.4</ele>
        <time>2025-10-01T13:02:50Z</time>
      </trkpt>
      <trkpt lat="50.77611" lon="2.29073">
        <ele>2.4</ele>
        <time>2025-10-01T13:02:52Z</time>
      </trkpt>
      <trkpt lat="50.7761" lon="2.29074">
        <ele>2.4</ele>
        <time>2025-10-01T13:02:53Z</time>
      </trkpt>
      <trkpt lat="50.77609" lon="2.29074">
        <ele>2.4</ele>
        <time>2025-10-01T13:02:54Z</time>
      </trkpt>
      <trkpt lat="50.77607" lon="2.29075">
        <ele>2.4</ele>
        <time>2025-10-01T13:02:56Z</time>
      </trkpt>
      <trkpt lat="50.77601" lon="2.29078">
        <ele>2.4</ele>
        <time>2025-10-01T13:03:00Z</time>
      </trkpt>
      <trkpt lat="50.77592" lon="2.29087">
        <ele>2.2</ele>
        <time>2025-10-01T13:03:07Z</time>
      </trkpt>
      <trkpt lat="50.77589" lon="2.2909">
        <ele>2.2</ele>
        <time>2025-10-01T13:03:10Z</time>
      </trkpt>
      <trkpt lat="50.77585" lon="2.29094">
        <ele>2.2</ele>
        <time>2025-10-01T13:03:13Z</time>
      </trkpt>
      <trkpt lat="50.77584" lon="2.29095">
        <ele>2.2</ele>
        <time>2025-10-01T13:03:14Z</time>
      </trkpt>
      <trkpt lat="50.77582" lon="2.29095">
        <ele>2.2</ele>
        <time>2025-10-01T13:03:15Z</time>
      </trkpt>
      <trkpt lat="50.77578" lon="2.29098">
        <ele>2.4</ele>
        <time>2025-10-01T13:03:18Z</time>
      </trkpt>
      <trkpt lat="50.77576" lon="2.29099">
        <ele>2.4</ele>
        <time>2025-10-01T13:03:20Z</time>
      </trkpt>
      <trkpt lat="50.77571" lon="2.29102">
        <ele>2.4</ele>
        <time>2025-10-01T13:03:23Z</time>
      </trkpt>
      <trkpt lat="50.77571" lon="2.29103">
        <ele>2.4</ele>
        <time>2025-10-01T13:03:24Z</time>
      </trkpt>
      <trkpt lat="50.7757" lon="2.29105">
        <ele>2.4</ele>
        <time>2025-10-01T13:03:25Z</time>
      </trkpt>
      <trkpt lat="50.77569" lon="2.29107">
        <ele>2.4</ele>
        <time>2025-10-01T13:03:26Z</time>
      </trkpt>
      <trkpt lat="50.77568" lon="2.29108">
        <ele>2.4</ele>
        <time>2025-10-01T13:03:27Z</time>
      </trkpt>
      <trkpt lat="50.77567" lon="2.29109">
        <ele>2.4</ele>
        <time>2025-10-01T13:03:28Z</time>
      </trkpt>
      <trkpt lat="50.77562" lon="2.29112">
        <ele>2.6</ele>
        <time>2025-10-01T13:03:32Z</time>
      </trkpt>
      <trkpt lat="50.77559" lon="2.29114">
        <ele>2.6</ele>
        <time>2025-10-01T13:03:34Z</time>
      </trkpt>
      <trkpt lat="50.77552" lon="2.29119">
        <ele>2.6</ele>
        <time>2025-10-01T13:03:39Z</time>
      </trkpt>
      <trkpt lat="50.7755" lon="2.29121">
        <ele>2.6</ele>
        <time>2025-10-01T13:03:41Z</time>
      </trkpt>
      <trkpt lat="50.77549" lon="2.29122">
        <ele>2.6</ele>
        <time>2025-10-01T13:03:42Z</time>
      </trkpt>
      <trkpt lat="50.77547" lon="2.29122">
        <ele>2.6</ele>
        <time>2025-10-01T13:03:43Z</time>
      </trkpt>
      <trkpt lat="50.77546" lon="2.29123">
        <ele>2.6</ele>
        <time>2025-10-01T13:03:44Z</time>
      </trkpt>
      <trkpt lat="50.77545" lon="2.29125">
        <ele>2.6</ele>
        <time>2025-10-01T13:03:45Z</time>
      </trkpt>
      <trkpt lat="50.77544" lon="2.29126">
        <ele>2.6</ele>
        <time>2025-10-01T13:03:47Z</time>
      </trkpt>
      <trkpt lat="50.77543" lon="2.29126">
        <ele>2.6</ele>
        <time>2025-10-01T13:03:48Z</time>
      </trkpt>
      <trkpt lat="50.77542" lon="2.29127">
        <ele>2.6</ele>
        <time>2025-10-01T13:03:49Z</time>
      </trkpt>
      <trkpt lat="50.77541" lon="2.29128">
        <ele>2.6</ele>
        <time>2025-10-01T13:03:50Z</time>
      </trkpt>
      <trkpt lat="50.7754" lon="2.29129">
        <ele>2.6</ele>
        <time>2025-10-01T13:03:51Z</time>
      </trkpt>
      <trkpt lat="50.77539" lon="2.29131">
        <ele>2.6</ele>
        <time>2025-10-01T13:03:52Z</time>
      </trkpt>
      <trkpt lat="50.77538" lon="2.29132">
        <ele>2.6</ele>
        <time>2025-10-01T13:03:53Z</time>
      </trkpt>
      <trkpt lat="50.77537" lon="2.29133">
        <ele>2.6</ele>
        <time>2025-10-01T13:03:54Z</time>
      </trkpt>
      <trkpt lat="50.77535" lon="2.29134">
        <ele>2.6</ele>
        <time>2025-10-01T13:03:55Z</time>
      </trkpt>
      <trkpt lat="50.77534" lon="2.29134">
        <ele>2.6</ele>
        <time>2025-10-01T13:03:56Z</time>
      </trkpt>
      <trkpt lat="50.77533" lon="2.29134">
        <ele>2.6</ele>
        <time>2025-10-01T13:03:57Z</time>
      </trkpt>
      <trkpt lat="50.77531" lon="2.29135">
        <ele>2.6</ele>
        <time>2025-10-01T13:03:58Z</time>
      </trkpt>
      <trkpt lat="50.77526" lon="2.29139">
        <ele>2.6</ele>
        <time>2025-10-01T13:04:02Z</time>
      </trkpt>
      <trkpt lat="50.77523" lon="2.29143">
        <ele>2.6</ele>
        <time>2025-10-01T13:04:05Z</time>
      </trkpt>
      <trkpt lat="50.77522" lon="2.29143">
        <ele>2.6</ele>
        <time>2025-10-01T13:04:06Z</time>
      </trkpt>
      <trkpt lat="50.77521" lon="2.29144">
        <ele>2.6</ele>
        <time>2025-10-01T13:04:07Z</time>
      </trkpt>
      <trkpt lat="50.77519" lon="2.29145">
        <ele>2.6</ele>
        <time>2025-10-01T13:04:08Z</time>
      </trkpt>
      <trkpt lat="50.77515" lon="2.2915">
        <ele>2.6</ele>
        <time>2025-10-01T13:04:11Z</time>
      </trkpt>
      <trkpt lat="50.77514" lon="2.29151">
        <ele>2.6</ele>
        <time>2025-10-01T13:04:12Z</time>
      </trkpt>
      <trkpt lat="50.77513" lon="2.29152">
        <ele>2.6</ele>
        <time>2025-10-01T13:04:13Z</time>
      </trkpt>
      <trkpt lat="50.77511" lon="2.29152">
        <ele>2.6</ele>
        <time>2025-10-01T13:04:14Z</time>
      </trkpt>
      <trkpt lat="50.7751" lon="2.29153">
        <ele>2.6</ele>
        <time>2025-10-01T13:04:15Z</time>
      </trkpt>
      <trkpt lat="50.77503" lon="2.29159">
        <ele>2.8</ele>
        <time>2025-10-01T13:04:21Z</time>
      </trkpt>
      <trkpt lat="50.77502" lon="2.29159">
        <ele>2.8</ele>
        <time>2025-10-01T13:04:22Z</time>
      </trkpt>
      <trkpt lat="50.775" lon="2.2916">
        <ele>2.8</ele>
        <time>2025-10-01T13:04:23Z</time>
      </trkpt>
      <trkpt lat="50.77499" lon="2.29161">
        <ele>2.8</ele>
        <time>2025-10-01T13:04:24Z</time>
      </trkpt>
      <trkpt lat="50.77495" lon="2.29163">
        <ele>3</ele>
        <time>2025-10-01T13:04:27Z</time>
      </trkpt>
      <trkpt lat="50.77494" lon="2.29164">
        <ele>3</ele>
        <time>2025-10-01T13:04:28Z</time>
      </trkpt>
      <trkpt lat="50.77494" lon="2.29165">
        <ele>3</ele>
        <time>2025-10-01T13:04:29Z</time>
      </trkpt>
      <trkpt lat="50.77492" lon="2.29167">
        <ele>3</ele>
        <time>2025-10-01T13:04:30Z</time>
      </trkpt>
      <trkpt lat="50.77491" lon="2.29168">
        <ele>2.8</ele>
        <time>2025-10-01T13:04:31Z</time>
      </trkpt>
      <trkpt lat="50.7749" lon="2.2917">
        <ele>2.8</ele>
        <time>2025-10-01T13:04:32Z</time>
      </trkpt>
      <trkpt lat="50.77489" lon="2.29171">
        <ele>2.8</ele>
        <time>2025-10-01T13:04:33Z</time>
      </trkpt>
      <trkpt lat="50.77484" lon="2.29176">
        <ele>2.8</ele>
        <time>2025-10-01T13:04:38Z</time>
      </trkpt>
      <trkpt lat="50.77483" lon="2.29177">
        <ele>2.8</ele>
        <time>2025-10-01T13:04:39Z</time>
      </trkpt>
      <trkpt lat="50.77481" lon="2.29178">
        <ele>2.8</ele>
        <time>2025-10-01T13:04:40Z</time>
      </trkpt>
      <trkpt lat="50.7748" lon="2.29182">
        <ele>2.8</ele>
        <time>2025-10-01T13:04:42Z</time>
      </trkpt>
      <trkpt lat="50.77479" lon="2.29183">
        <ele>2.8</ele>
        <time>2025-10-01T13:04:43Z</time>
      </trkpt>
      <trkpt lat="50.77478" lon="2.29183">
        <ele>2.8</ele>
        <time>2025-10-01T13:04:44Z</time>
      </trkpt>
      <trkpt lat="50.77476" lon="2.29183">
        <ele>2.8</ele>
        <time>2025-10-01T13:04:45Z</time>
      </trkpt>
      <trkpt lat="50.77476" lon="2.29184">
        <ele>2.8</ele>
        <time>2025-10-01T13:04:46Z</time>
      </trkpt>
      <trkpt lat="50.77475" lon="2.29185">
        <ele>2.8</ele>
        <time>2025-10-01T13:04:47Z</time>
      </trkpt>
      <trkpt lat="50.77468" lon="2.29191">
        <ele>2.8</ele>
        <time>2025-10-01T13:04:52Z</time>
      </trkpt>
      <trkpt lat="50.77467" lon="2.29192">
        <ele>2.8</ele>
        <time>2025-10-01T13:04:53Z</time>
      </trkpt>
      <trkpt lat="50.77466" lon="2.29193">
        <ele>2.8</ele>
        <time>2025-10-01T13:04:54Z</time>
      </trkpt>
      <trkpt lat="50.77458" lon="2.29199">
        <ele>3</ele>
        <time>2025-10-01T13:05:00Z</time>
      </trkpt>
      <trkpt lat="50.77457" lon="2.29201">
        <ele>3</ele>
        <time>2025-10-01T13:05:01Z</time>
      </trkpt>
      <trkpt lat="50.77456" lon="2.29201">
        <ele>3</ele>
        <time>2025-10-01T13:05:02Z</time>
      </trkpt>
      <trkpt lat="50.77456" lon="2.29201">
        <ele>3.2</ele>
        <time>2025-10-01T13:05:03Z</time>
      </trkpt>
      <trkpt lat="50.77455" lon="2.29201">
        <ele>3.2</ele>
        <time>2025-10-01T13:05:04Z</time>
      </trkpt>
      <trkpt lat="50.77454" lon="2.29202">
        <ele>3.2</ele>
        <time>2025-10-01T13:05:05Z</time>
      </trkpt>
      <trkpt lat="50.77453" lon="2.29203">
        <ele>3.2</ele>
        <time>2025-10-01T13:05:06Z</time>
      </trkpt>
      <trkpt lat="50.77452" lon="2.29205">
        <ele>3.2</ele>
        <time>2025-10-01T13:05:07Z</time>
      </trkpt>
      <trkpt lat="50.77451" lon="2.29207">
        <ele>3.2</ele>
        <time>2025-10-01T13:05:08Z</time>
      </trkpt>
      <trkpt lat="50.77449" lon="2.29209">
        <ele>3.2</ele>
        <time>2025-10-01T13:05:09Z</time>
      </trkpt>
      <trkpt lat="50.77448" lon="2.2921">
        <ele>3.2</ele>
        <time>2025-10-01T13:05:10Z</time>
      </trkpt>
      <trkpt lat="50.77446" lon="2.2921">
        <ele>3.2</ele>
        <time>2025-10-01T13:05:11Z</time>
      </trkpt>
      <trkpt lat="50.77445" lon="2.2921">
        <ele>3.2</ele>
        <time>2025-10-01T13:05:12Z</time>
      </trkpt>
      <trkpt lat="50.77443" lon="2.2921">
        <ele>3.2</ele>
        <time>2025-10-01T13:05:13Z</time>
      </trkpt>
      <trkpt lat="50.77442" lon="2.2921">
        <ele>3.2</ele>
        <time>2025-10-01T13:05:14Z</time>
      </trkpt>
      <trkpt lat="50.7744" lon="2.29211">
        <ele>3.2</ele>
        <time>2025-10-01T13:05:15Z</time>
      </trkpt>
      <trkpt lat="50.77439" lon="2.29212">
        <ele>3</ele>
        <time>2025-10-01T13:05:16Z</time>
      </trkpt>
      <trkpt lat="50.77437" lon="2.29213">
        <ele>3</ele>
        <time>2025-10-01T13:05:17Z</time>
      </trkpt>
      <trkpt lat="50.7743" lon="2.29219">
        <ele>3</ele>
        <time>2025-10-01T13:05:22Z</time>
      </trkpt>
      <trkpt lat="50.77429" lon="2.29221">
        <ele>3</ele>
        <time>2025-10-01T13:05:23Z</time>
      </trkpt>
      <trkpt lat="50.77428" lon="2.29222">
        <ele>3</ele>
        <time>2025-10-01T13:05:24Z</time>
      </trkpt>
      <trkpt lat="50.77427" lon="2.29223">
        <ele>2.8</ele>
        <time>2025-10-01T13:05:25Z</time>
      </trkpt>
      <trkpt lat="50.77425" lon="2.29224">
        <ele>2.8</ele>
        <time>2025-10-01T13:05:26Z</time>
      </trkpt>
      <trkpt lat="50.77421" lon="2.29228">
        <ele>2.6</ele>
        <time>2025-10-01T13:05:29Z</time>
      </trkpt>
      <trkpt lat="50.77419" lon="2.2923">
        <ele>2.6</ele>
        <time>2025-10-01T13:05:30Z</time>
      </trkpt>
      <trkpt lat="50.77419" lon="2.29232">
        <ele>2.6</ele>
        <time>2025-10-01T13:05:31Z</time>
      </trkpt>
      <trkpt lat="50.77419" lon="2.29233">
        <ele>2.6</ele>
        <time>2025-10-01T13:05:32Z</time>
      </trkpt>
      <trkpt lat="50.77418" lon="2.29234">
        <ele>2.6</ele>
        <time>2025-10-01T13:05:33Z</time>
      </trkpt>
      <trkpt lat="50.77417" lon="2.29235">
        <ele>2.4</ele>
        <time>2025-10-01T13:05:34Z</time>
      </trkpt>
      <trkpt lat="50.77416" lon="2.29236">
        <ele>2.4</ele>
        <time>2025-10-01T13:05:35Z</time>
      </trkpt>
      <trkpt lat="50.77415" lon="2.29237">
        <ele>2.4</ele>
        <time>2025-10-01T13:05:36Z</time>
      </trkpt>
      <trkpt lat="50.77414" lon="2.29237">
        <ele>2.4</ele>
        <time>2025-10-01T13:05:37Z</time>
      </trkpt>
      <trkpt lat="50.77413" lon="2.29238">
        <ele>2.4</ele>
        <time>2025-10-01T13:05:38Z</time>
      </trkpt>
      <trkpt lat="50.77412" lon="2.29239">
        <ele>2.4</ele>
        <time>2025-10-01T13:05:39Z</time>
      </trkpt>
      <trkpt lat="50.77411" lon="2.2924">
        <ele>2.4</ele>
        <time>2025-10-01T13:05:40Z</time>
      </trkpt>
      <trkpt lat="50.7741" lon="2.29241">
        <ele>2.4</ele>
        <time>2025-10-01T13:05:41Z</time>
      </trkpt>
      <trkpt lat="50.77409" lon="2.29242">
        <ele>2.4</ele>
        <time>2025-10-01T13:05:42Z</time>
      </trkpt>
      <trkpt lat="50.77401" lon="2.29247">
        <ele>2.4</ele>
        <time>2025-10-01T13:05:48Z</time>
      </trkpt>
      <trkpt lat="50.774" lon="2.29248">
        <ele>2.4</ele>
        <time>2025-10-01T13:05:49Z</time>
      </trkpt>
      <trkpt lat="50.77398" lon="2.2925">
        <ele>2.6</ele>
        <time>2025-10-01T13:05:51Z</time>
      </trkpt>
      <trkpt lat="50.77396" lon="2.29251">
        <ele>2.6</ele>
        <time>2025-10-01T13:05:52Z</time>
      </trkpt>
      <trkpt lat="50.77395" lon="2.29252">
        <ele>2.6</ele>
        <time>2025-10-01T13:05:53Z</time>
      </trkpt>
      <trkpt lat="50.77394" lon="2.29253">
        <ele>2.6</ele>
        <time>2025-10-01T13:05:54Z</time>
      </trkpt>
      <trkpt lat="50.77394" lon="2.29254">
        <ele>2.6</ele>
        <time>2025-10-01T13:05:55Z</time>
      </trkpt>
      <trkpt lat="50.77394" lon="2.29254">
        <ele>2.6</ele>
        <time>2025-10-01T13:05:56Z</time>
      </trkpt>
      <trkpt lat="50.77394" lon="2.29254">
        <ele>2.6</ele>
        <time>2025-10-01T13:05:57Z</time>
      </trkpt>
      <trkpt lat="50.7739" lon="2.29257">
        <ele>2.2</ele>
        <time>2025-10-01T13:06:33Z</time>
      </trkpt>
      <trkpt lat="50.77389" lon="2.29258">
        <ele>2.2</ele>
        <time>2025-10-01T13:06:34Z</time>
      </trkpt>
      <trkpt lat="50.77387" lon="2.2926">
        <ele>2.2</ele>
        <time>2025-10-01T13:06:35Z</time>
      </trkpt>
      <trkpt lat="50.77384" lon="2.29262">
        <ele>2.2</ele>
        <time>2025-10-01T13:06:37Z</time>
      </trkpt>
      <trkpt lat="50.77383" lon="2.29263">
        <ele>2.2</ele>
        <time>2025-10-01T13:06:38Z</time>
      </trkpt>
      <trkpt lat="50.77382" lon="2.29265">
        <ele>2.2</ele>
        <time>2025-10-01T13:06:39Z</time>
      </trkpt>
      <trkpt lat="50.7738" lon="2.29268">
        <ele>2.2</ele>
        <time>2025-10-01T13:06:42Z</time>
      </trkpt>
      <trkpt lat="50.77379" lon="2.29268">
        <ele>2.2</ele>
        <time>2025-10-01T13:06:43Z</time>
      </trkpt>
      <trkpt lat="50.77378" lon="2.29269">
        <ele>2.2</ele>
        <time>2025-10-01T13:06:44Z</time>
      </trkpt>
      <trkpt lat="50.77375" lon="2.29271">
        <ele>2.2</ele>
        <time>2025-10-01T13:06:46Z</time>
      </trkpt>
      <trkpt lat="50.77374" lon="2.29272">
        <ele>2.2</ele>
        <time>2025-10-01T13:06:47Z</time>
      </trkpt>
      <trkpt lat="50.77373" lon="2.29272">
        <ele>2.2</ele>
        <time>2025-10-01T13:06:48Z</time>
      </trkpt>
      <trkpt lat="50.77372" lon="2.29273">
        <ele>2.2</ele>
        <time>2025-10-01T13:06:49Z</time>
      </trkpt>
      <trkpt lat="50.77371" lon="2.29274">
        <ele>2.2</ele>
        <time>2025-10-01T13:06:50Z</time>
      </trkpt>
      <trkpt lat="50.77369" lon="2.29275">
        <ele>2.2</ele>
        <time>2025-10-01T13:06:51Z</time>
      </trkpt>
      <trkpt lat="50.77367" lon="2.29278">
        <ele>2.2</ele>
        <time>2025-10-01T13:06:53Z</time>
      </trkpt>
      <trkpt lat="50.77366" lon="2.29279">
        <ele>2.2</ele>
        <time>2025-10-01T13:06:54Z</time>
      </trkpt>
      <trkpt lat="50.77364" lon="2.29282">
        <ele>2.2</ele>
        <time>2025-10-01T13:06:57Z</time>
      </trkpt>
      <trkpt lat="50.77364" lon="2.29283">
        <ele>2.2</ele>
        <time>2025-10-01T13:06:58Z</time>
      </trkpt>
      <trkpt lat="50.77363" lon="2.29283">
        <ele>2.2</ele>
        <time>2025-10-01T13:06:59Z</time>
      </trkpt>
      <trkpt lat="50.77361" lon="2.29286">
        <ele>2.4</ele>
        <time>2025-10-01T13:07:01Z</time>
      </trkpt>
      <trkpt lat="50.77358" lon="2.29288">
        <ele>2.4</ele>
        <time>2025-10-01T13:07:03Z</time>
      </trkpt>
      <trkpt lat="50.77355" lon="2.29291">
        <ele>2.4</ele>
        <time>2025-10-01T13:07:05Z</time>
      </trkpt>
      <trkpt lat="50.77354" lon="2.29292">
        <ele>2.4</ele>
        <time>2025-10-01T13:07:06Z</time>
      </trkpt>
      <trkpt lat="50.77353" lon="2.29292">
        <ele>2.4</ele>
        <time>2025-10-01T13:07:07Z</time>
      </trkpt>
      <trkpt lat="50.77352" lon="2.29293">
        <ele>2.4</ele>
        <time>2025-10-01T13:07:08Z</time>
      </trkpt>
      <trkpt lat="50.77351" lon="2.29294">
        <ele>2.4</ele>
        <time>2025-10-01T13:07:09Z</time>
      </trkpt>
      <trkpt lat="50.77344" lon="2.293">
        <ele>2.6</ele>
        <time>2025-10-01T13:07:14Z</time>
      </trkpt>
      <trkpt lat="50.77343" lon="2.29301">
        <ele>2.6</ele>
        <time>2025-10-01T13:07:15Z</time>
      </trkpt>
      <trkpt lat="50.77342" lon="2.29302">
        <ele>2.6</ele>
        <time>2025-10-01T13:07:16Z</time>
      </trkpt>
      <trkpt lat="50.7734" lon="2.29302">
        <ele>2.6</ele>
        <time>2025-10-01T13:07:17Z</time>
      </trkpt>
      <trkpt lat="50.77339" lon="2.29303">
        <ele>2.6</ele>
        <time>2025-10-01T13:07:18Z</time>
      </trkpt>
      <trkpt lat="50.77336" lon="2.29305">
        <ele>2.6</ele>
        <time>2025-10-01T13:07:20Z</time>
      </trkpt>
      <trkpt lat="50.77333" lon="2.29304">
        <ele>2.6</ele>
        <time>2025-10-01T13:07:21Z</time>
      </trkpt>
      <trkpt lat="50.77329" lon="2.29306">
        <ele>2.6</ele>
        <time>2025-10-01T13:07:24Z</time>
      </trkpt>
      <trkpt lat="50.77328" lon="2.29307">
        <ele>2.6</ele>
        <time>2025-10-01T13:07:25Z</time>
      </trkpt>
      <trkpt lat="50.77328" lon="2.29308">
        <ele>2.6</ele>
        <time>2025-10-01T13:07:26Z</time>
      </trkpt>
      <trkpt lat="50.77327" lon="2.29308">
        <ele>2.6</ele>
        <time>2025-10-01T13:07:27Z</time>
      </trkpt>
      <trkpt lat="50.77326" lon="2.29309">
        <ele>2.6</ele>
        <time>2025-10-01T13:07:28Z</time>
      </trkpt>
      <trkpt lat="50.77325" lon="2.29311">
        <ele>2.6</ele>
        <time>2025-10-01T13:07:29Z</time>
      </trkpt>
      <trkpt lat="50.77323" lon="2.29312">
        <ele>2.6</ele>
        <time>2025-10-01T13:07:30Z</time>
      </trkpt>
      <trkpt lat="50.7732" lon="2.29312">
        <ele>2.6</ele>
        <time>2025-10-01T13:07:31Z</time>
      </trkpt>
      <trkpt lat="50.77317" lon="2.29313">
        <ele>2.6</ele>
        <time>2025-10-01T13:07:33Z</time>
      </trkpt>
      <trkpt lat="50.77316" lon="2.29314">
        <ele>2.6</ele>
        <time>2025-10-01T13:07:34Z</time>
      </trkpt>
      <trkpt lat="50.77316" lon="2.29316">
        <ele>2.6</ele>
        <time>2025-10-01T13:07:35Z</time>
      </trkpt>
      <trkpt lat="50.77315" lon="2.29317">
        <ele>2.6</ele>
        <time>2025-10-01T13:07:36Z</time>
      </trkpt>
      <trkpt lat="50.77314" lon="2.29318">
        <ele>2.6</ele>
        <time>2025-10-01T13:07:37Z</time>
      </trkpt>
      <trkpt lat="50.77314" lon="2.29318">
        <ele>2.6</ele>
        <time>2025-10-01T13:07:38Z</time>
      </trkpt>
      <trkpt lat="50.77313" lon="2.29319">
        <ele>2.6</ele>
        <time>2025-10-01T13:07:39Z</time>
      </trkpt>
      <trkpt lat="50.77312" lon="2.2932">
        <ele>2.6</ele>
        <time>2025-10-01T13:07:40Z</time>
      </trkpt>
      <trkpt lat="50.77311" lon="2.29322">
        <ele>2.6</ele>
        <time>2025-10-01T13:07:41Z</time>
      </trkpt>
      <trkpt lat="50.77311" lon="2.29323">
        <ele>2.6</ele>
        <time>2025-10-01T13:07:42Z</time>
      </trkpt>
      <trkpt lat="50.7731" lon="2.29325">
        <ele>2.6</ele>
        <time>2025-10-01T13:07:43Z</time>
      </trkpt>
      <trkpt lat="50.77309" lon="2.29326">
        <ele>2.6</ele>
        <time>2025-10-01T13:07:44Z</time>
      </trkpt>
      <trkpt lat="50.77308" lon="2.29328">
        <ele>2.6</ele>
        <time>2025-10-01T13:07:45Z</time>
      </trkpt>
      <trkpt lat="50.77304" lon="2.29331">
        <ele>2.6</ele>
        <time>2025-10-01T13:07:47Z</time>
      </trkpt>
      <trkpt lat="50.77303" lon="2.29332">
        <ele>2.6</ele>
        <time>2025-10-01T13:07:48Z</time>
      </trkpt>
      <trkpt lat="50.77303" lon="2.29333">
        <ele>2.6</ele>
        <time>2025-10-01T13:07:49Z</time>
      </trkpt>
      <trkpt lat="50.77302" lon="2.29334">
        <ele>2.6</ele>
        <time>2025-10-01T13:07:50Z</time>
      </trkpt>
      <trkpt lat="50.77301" lon="2.29335">
        <ele>2.6</ele>
        <time>2025-10-01T13:07:51Z</time>
      </trkpt>
      <trkpt lat="50.773" lon="2.29337">
        <ele>2.6</ele>
        <time>2025-10-01T13:07:52Z</time>
      </trkpt>
      <trkpt lat="50.77296" lon="2.29341">
        <ele>2.6</ele>
        <time>2025-10-01T13:07:55Z</time>
      </trkpt>
      <trkpt lat="50.77295" lon="2.29342">
        <ele>2.6</ele>
        <time>2025-10-01T13:07:56Z</time>
      </trkpt>
      <trkpt lat="50.77288" lon="2.29347">
        <ele>2.6</ele>
        <time>2025-10-01T13:08:01Z</time>
      </trkpt>
      <trkpt lat="50.77288" lon="2.29349">
        <ele>2.6</ele>
        <time>2025-10-01T13:08:02Z</time>
      </trkpt>
      <trkpt lat="50.77287" lon="2.2935">
        <ele>2.6</ele>
        <time>2025-10-01T13:08:03Z</time>
      </trkpt>
      <trkpt lat="50.77286" lon="2.29352">
        <ele>2.6</ele>
        <time>2025-10-01T13:08:04Z</time>
      </trkpt>
      <trkpt lat="50.77285" lon="2.29353">
        <ele>2.6</ele>
        <time>2025-10-01T13:08:05Z</time>
      </trkpt>
      <trkpt lat="50.77284" lon="2.29354">
        <ele>2.6</ele>
        <time>2025-10-01T13:08:06Z</time>
      </trkpt>
      <trkpt lat="50.77283" lon="2.29355">
        <ele>2.6</ele>
        <time>2025-10-01T13:08:07Z</time>
      </trkpt>
      <trkpt lat="50.77282" lon="2.29356">
        <ele>2.6</ele>
        <time>2025-10-01T13:08:08Z</time>
      </trkpt>
      <trkpt lat="50.77279" lon="2.29359">
        <ele>2.6</ele>
        <time>2025-10-01T13:08:10Z</time>
      </trkpt>
      <trkpt lat="50.77278" lon="2.29359">
        <ele>2.6</ele>
        <time>2025-10-01T13:08:11Z</time>
      </trkpt>
      <trkpt lat="50.77277" lon="2.2936">
        <ele>2.6</ele>
        <time>2025-10-01T13:08:12Z</time>
      </trkpt>
      <trkpt lat="50.77276" lon="2.29361">
        <ele>2.6</ele>
        <time>2025-10-01T13:08:13Z</time>
      </trkpt>
      <trkpt lat="50.77275" lon="2.29362">
        <ele>2.6</ele>
        <time>2025-10-01T13:08:14Z</time>
      </trkpt>
      <trkpt lat="50.77274" lon="2.29362">
        <ele>2.6</ele>
        <time>2025-10-01T13:08:15Z</time>
      </trkpt>
      <trkpt lat="50.77272" lon="2.29362">
        <ele>2.6</ele>
        <time>2025-10-01T13:08:16Z</time>
      </trkpt>
      <trkpt lat="50.77271" lon="2.29363">
        <ele>2.6</ele>
        <time>2025-10-01T13:08:17Z</time>
      </trkpt>
      <trkpt lat="50.77269" lon="2.29365">
        <ele>2.6</ele>
        <time>2025-10-01T13:08:19Z</time>
      </trkpt>
      <trkpt lat="50.77264" lon="2.29368">
        <ele>2.6</ele>
        <time>2025-10-01T13:08:23Z</time>
      </trkpt>
      <trkpt lat="50.77259" lon="2.29373">
        <ele>2.4</ele>
        <time>2025-10-01T13:08:27Z</time>
      </trkpt>
      <trkpt lat="50.77258" lon="2.29375">
        <ele>2.4</ele>
        <time>2025-10-01T13:08:28Z</time>
      </trkpt>
      <trkpt lat="50.77257" lon="2.29375">
        <ele>2.4</ele>
        <time>2025-10-01T13:08:29Z</time>
      </trkpt>
      <trkpt lat="50.77256" lon="2.29376">
        <ele>2.4</ele>
        <time>2025-10-01T13:08:30Z</time>
      </trkpt>
      <trkpt lat="50.77255" lon="2.29377">
        <ele>2.4</ele>
        <time>2025-10-01T13:08:31Z</time>
      </trkpt>
      <trkpt lat="50.77253" lon="2.29379">
        <ele>2.4</ele>
        <time>2025-10-01T13:08:33Z</time>
      </trkpt>
      <trkpt lat="50.77253" lon="2.29379">
        <ele>2.4</ele>
        <time>2025-10-01T13:08:34Z</time>
      </trkpt>
      <trkpt lat="50.77252" lon="2.29379">
        <ele>2.4</ele>
        <time>2025-10-01T13:08:35Z</time>
      </trkpt>
      <trkpt lat="50.77251" lon="2.2938">
        <ele>2.4</ele>
        <time>2025-10-01T13:08:36Z</time>
      </trkpt>
      <trkpt lat="50.7725" lon="2.29381">
        <ele>2.4</ele>
        <time>2025-10-01T13:08:37Z</time>
      </trkpt>
      <trkpt lat="50.77249" lon="2.29382">
        <ele>2.4</ele>
        <time>2025-10-01T13:08:38Z</time>
      </trkpt>
      <trkpt lat="50.77248" lon="2.29382">
        <ele>2.4</ele>
        <time>2025-10-01T13:08:39Z</time>
      </trkpt>
      <trkpt lat="50.77246" lon="2.29384">
        <ele>2.4</ele>
        <time>2025-10-01T13:08:40Z</time>
      </trkpt>
      <trkpt lat="50.77241" lon="2.29388">
        <ele>2.4</ele>
        <time>2025-10-01T13:08:44Z</time>
      </trkpt>
      <trkpt lat="50.77238" lon="2.29391">
        <ele>2.6</ele>
        <time>2025-10-01T13:08:47Z</time>
      </trkpt>
      <trkpt lat="50.77234" lon="2.29394">
        <ele>2.6</ele>
        <time>2025-10-01T13:08:50Z</time>
      </trkpt>
      <trkpt lat="50.77232" lon="2.29394">
        <ele>2.6</ele>
        <time>2025-10-01T13:08:51Z</time>
      </trkpt>
      <trkpt lat="50.77231" lon="2.29395">
        <ele>2.6</ele>
        <time>2025-10-01T13:08:52Z</time>
      </trkpt>
      <trkpt lat="50.77226" lon="2.294">
        <ele>2.6</ele>
        <time>2025-10-01T13:08:55Z</time>
      </trkpt>
      <trkpt lat="50.77225" lon="2.29401">
        <ele>2.6</ele>
        <time>2025-10-01T13:08:56Z</time>
      </trkpt>
      <trkpt lat="50.77223" lon="2.29403">
        <ele>2.6</ele>
        <time>2025-10-01T13:08:58Z</time>
      </trkpt>
      <trkpt lat="50.77219" lon="2.29406">
        <ele>2.6</ele>
        <time>2025-10-01T13:09:02Z</time>
      </trkpt>
      <trkpt lat="50.77218" lon="2.29406">
        <ele>2.6</ele>
        <time>2025-10-01T13:09:03Z</time>
      </trkpt>
      <trkpt lat="50.77217" lon="2.29408">
        <ele>2.6</ele>
        <time>2025-10-01T13:09:04Z</time>
      </trkpt>
      <trkpt lat="50.77217" lon="2.29408">
        <ele>2.6</ele>
        <time>2025-10-01T13:09:05Z</time>
      </trkpt>
      <trkpt lat="50.77216" lon="2.29408">
        <ele>2.6</ele>
        <time>2025-10-01T13:09:06Z</time>
      </trkpt>
      <trkpt lat="50.77214" lon="2.29408">
        <ele>2.6</ele>
        <time>2025-10-01T13:09:07Z</time>
      </trkpt>
      <trkpt lat="50.77213" lon="2.29409">
        <ele>2.6</ele>
        <time>2025-10-01T13:09:08Z</time>
      </trkpt>
      <trkpt lat="50.77212" lon="2.29409">
        <ele>2.6</ele>
        <time>2025-10-01T13:09:09Z</time>
      </trkpt>
      <trkpt lat="50.77211" lon="2.2941">
        <ele>2.6</ele>
        <time>2025-10-01T13:09:10Z</time>
      </trkpt>
      <trkpt lat="50.77204" lon="2.29407">
        <ele>2.6</ele>
        <time>2025-10-01T13:09:14Z</time>
      </trkpt>
      <trkpt lat="50.77203" lon="2.29406">
        <ele>2.6</ele>
        <time>2025-10-01T13:09:15Z</time>
      </trkpt>
      <trkpt lat="50.77202" lon="2.29406">
        <ele>2.6</ele>
        <time>2025-10-01T13:09:16Z</time>
      </trkpt>
      <trkpt lat="50.77201" lon="2.29405">
        <ele>2.6</ele>
        <time>2025-10-01T13:09:17Z</time>
      </trkpt>
      <trkpt lat="50.77201" lon="2.29405">
        <ele>2.6</ele>
        <time>2025-10-01T13:09:18Z</time>
      </trkpt>
      <trkpt lat="50.772" lon="2.29403">
        <ele>2.6</ele>
        <time>2025-10-01T13:09:19Z</time>
      </trkpt>
      <trkpt lat="50.77199" lon="2.29401">
        <ele>2.6</ele>
        <time>2025-10-01T13:09:20Z</time>
      </trkpt>
      <trkpt lat="50.77197" lon="2.29397">
        <ele>2.6</ele>
        <time>2025-10-01T13:09:22Z</time>
      </trkpt>
      <trkpt lat="50.77196" lon="2.29396">
        <ele>2.4</ele>
        <time>2025-10-01T13:09:23Z</time>
      </trkpt>
      <trkpt lat="50.77196" lon="2.29396">
        <ele>2.4</ele>
        <time>2025-10-01T13:09:24Z</time>
      </trkpt>
      <trkpt lat="50.77195" lon="2.29396">
        <ele>2.4</ele>
        <time>2025-10-01T13:09:25Z</time>
      </trkpt>
      <trkpt lat="50.77195" lon="2.29396">
        <ele>2.6</ele>
        <time>2025-10-01T13:09:26Z</time>
      </trkpt>
      <trkpt lat="50.77195" lon="2.29395">
        <ele>2.6</ele>
        <time>2025-10-01T13:09:27Z</time>
      </trkpt>
      <trkpt lat="50.7719" lon="2.29389">
        <ele>2.6</ele>
        <time>2025-10-01T13:09:30Z</time>
      </trkpt>
      <trkpt lat="50.77189" lon="2.29389">
        <ele>2.6</ele>
        <time>2025-10-01T13:09:31Z</time>
      </trkpt>
      <trkpt lat="50.77188" lon="2.29388">
        <ele>2.6</ele>
        <time>2025-10-01T13:09:32Z</time>
      </trkpt>
      <trkpt lat="50.77187" lon="2.29387">
        <ele>2.6</ele>
        <time>2025-10-01T13:09:33Z</time>
      </trkpt>
      <trkpt lat="50.77186" lon="2.29386">
        <ele>2.6</ele>
        <time>2025-10-01T13:09:34Z</time>
      </trkpt>
      <trkpt lat="50.77179" lon="2.29383">
        <ele>2.6</ele>
        <time>2025-10-01T13:09:39Z</time>
      </trkpt>
      <trkpt lat="50.77178" lon="2.29382">
        <ele>2.6</ele>
        <time>2025-10-01T13:09:40Z</time>
      </trkpt>
      <trkpt lat="50.77177" lon="2.29381">
        <ele>2.6</ele>
        <time>2025-10-01T13:09:41Z</time>
      </trkpt>
      <trkpt lat="50.77173" lon="2.2938">
        <ele>2.6</ele>
        <time>2025-10-01T13:09:44Z</time>
      </trkpt>
      <trkpt lat="50.77172" lon="2.2938">
        <ele>2.6</ele>
        <time>2025-10-01T13:09:45Z</time>
      </trkpt>
      <trkpt lat="50.77169" lon="2.2938">
        <ele>2.4</ele>
        <time>2025-10-01T13:09:47Z</time>
      </trkpt>
      <trkpt lat="50.77168" lon="2.2938">
        <ele>2.4</ele>
        <time>2025-10-01T13:09:48Z</time>
      </trkpt>
      <trkpt lat="50.77166" lon="2.29379">
        <ele>2.4</ele>
        <time>2025-10-01T13:09:50Z</time>
      </trkpt>
      <trkpt lat="50.77165" lon="2.29379">
        <ele>2.4</ele>
        <time>2025-10-01T13:09:51Z</time>
      </trkpt>
      <trkpt lat="50.77163" lon="2.29379">
        <ele>2.6</ele>
        <time>2025-10-01T13:09:53Z</time>
      </trkpt>
      <trkpt lat="50.77162" lon="2.29378">
        <ele>2.6</ele>
        <time>2025-10-01T13:09:54Z</time>
      </trkpt>
      <trkpt lat="50.77159" lon="2.29377">
        <ele>2.6</ele>
        <time>2025-10-01T13:09:56Z</time>
      </trkpt>
      <trkpt lat="50.77157" lon="2.29378">
        <ele>2.6</ele>
        <time>2025-10-01T13:09:58Z</time>
      </trkpt>
      <trkpt lat="50.77156" lon="2.29379">
        <ele>2.6</ele>
        <time>2025-10-01T13:09:59Z</time>
      </trkpt>
      <trkpt lat="50.77155" lon="2.29379">
        <ele>2.6</ele>
        <time>2025-10-01T13:10:00Z</time>
      </trkpt>
      <trkpt lat="50.77151" lon="2.29378">
        <ele>2.6</ele>
        <time>2025-10-01T13:10:03Z</time>
      </trkpt>
      <trkpt lat="50.7715" lon="2.29378">
        <ele>2.6</ele>
        <time>2025-10-01T13:10:04Z</time>
      </trkpt>
      <trkpt lat="50.77149" lon="2.29377">
        <ele>2.6</ele>
        <time>2025-10-01T13:10:05Z</time>
      </trkpt>
      <trkpt lat="50.77147" lon="2.29377">
        <ele>2.8</ele>
        <time>2025-10-01T13:10:06Z</time>
      </trkpt>
      <trkpt lat="50.77144" lon="2.29377">
        <ele>2.8</ele>
        <time>2025-10-01T13:10:08Z</time>
      </trkpt>
      <trkpt lat="50.77135" lon="2.29376">
        <ele>2.8</ele>
        <time>2025-10-01T13:10:12Z</time>
      </trkpt>
      <trkpt lat="50.77134" lon="2.29376">
        <ele>2.8</ele>
        <time>2025-10-01T13:10:13Z</time>
      </trkpt>
      <trkpt lat="50.77133" lon="2.29377">
        <ele>2.8</ele>
        <time>2025-10-01T13:10:14Z</time>
      </trkpt>
      <trkpt lat="50.77132" lon="2.29378">
        <ele>2.8</ele>
        <time>2025-10-01T13:10:15Z</time>
      </trkpt>
      <trkpt lat="50.77131" lon="2.29378">
        <ele>2.8</ele>
        <time>2025-10-01T13:10:16Z</time>
      </trkpt>
      <trkpt lat="50.7713" lon="2.2938">
        <ele>2.8</ele>
        <time>2025-10-01T13:10:17Z</time>
      </trkpt>
      <trkpt lat="50.77129" lon="2.29381">
        <ele>3</ele>
        <time>2025-10-01T13:10:18Z</time>
      </trkpt>
      <trkpt lat="50.77127" lon="2.29382">
        <ele>3</ele>
        <time>2025-10-01T13:10:19Z</time>
      </trkpt>
      <trkpt lat="50.77124" lon="2.29385">
        <ele>3</ele>
        <time>2025-10-01T13:10:21Z</time>
      </trkpt>
      <trkpt lat="50.77121" lon="2.29388">
        <ele>2.8</ele>
        <time>2025-10-01T13:10:23Z</time>
      </trkpt>
      <trkpt lat="50.77121" lon="2.2939">
        <ele>2.8</ele>
        <time>2025-10-01T13:10:24Z</time>
      </trkpt>
      <trkpt lat="50.77119" lon="2.29391">
        <ele>2.8</ele>
        <time>2025-10-01T13:10:25Z</time>
      </trkpt>
      <trkpt lat="50.77118" lon="2.29392">
        <ele>2.8</ele>
        <time>2025-10-01T13:10:26Z</time>
      </trkpt>
      <trkpt lat="50.77117" lon="2.29393">
        <ele>2.8</ele>
        <time>2025-10-01T13:10:27Z</time>
      </trkpt>
      <trkpt lat="50.77117" lon="2.29394">
        <ele>2.8</ele>
        <time>2025-10-01T13:10:28Z</time>
      </trkpt>
      <trkpt lat="50.77116" lon="2.29396">
        <ele>2.8</ele>
        <time>2025-10-01T13:10:29Z</time>
      </trkpt>
      <trkpt lat="50.77114" lon="2.29398">
        <ele>2.8</ele>
        <time>2025-10-01T13:10:30Z</time>
      </trkpt>
      <trkpt lat="50.77113" lon="2.29399">
        <ele>2.8</ele>
        <time>2025-10-01T13:10:31Z</time>
      </trkpt>
      <trkpt lat="50.77112" lon="2.294">
        <ele>2.8</ele>
        <time>2025-10-01T13:10:32Z</time>
      </trkpt>
      <trkpt lat="50.7711" lon="2.294">
        <ele>2.8</ele>
        <time>2025-10-01T13:10:33Z</time>
      </trkpt>
      <trkpt lat="50.77109" lon="2.294">
        <ele>2.8</ele>
        <time>2025-10-01T13:10:34Z</time>
      </trkpt>
      <trkpt lat="50.77108" lon="2.29401">
        <ele>2.8</ele>
        <time>2025-10-01T13:10:35Z</time>
      </trkpt>
      <trkpt lat="50.77107" lon="2.29403">
        <ele>2.8</ele>
        <time>2025-10-01T13:10:36Z</time>
      </trkpt>
      <trkpt lat="50.77106" lon="2.29404">
        <ele>2.8</ele>
        <time>2025-10-01T13:10:37Z</time>
      </trkpt>
      <trkpt lat="50.77104" lon="2.29405">
        <ele>2.8</ele>
        <time>2025-10-01T13:10:38Z</time>
      </trkpt>
      <trkpt lat="50.77097" lon="2.29405">
        <ele>2.6</ele>
        <time>2025-10-01T13:10:41Z</time>
      </trkpt>
      <trkpt lat="50.77094" lon="2.29406">
        <ele>2.6</ele>
        <time>2025-10-01T13:10:43Z</time>
      </trkpt>
      <trkpt lat="50.77094" lon="2.29407">
        <ele>2.6</ele>
        <time>2025-10-01T13:10:44Z</time>
      </trkpt>
      <trkpt lat="50.77093" lon="2.29408">
        <ele>2.6</ele>
        <time>2025-10-01T13:10:45Z</time>
      </trkpt>
      <trkpt lat="50.77092" lon="2.29408">
        <ele>2.6</ele>
        <time>2025-10-01T13:10:46Z</time>
      </trkpt>
      <trkpt lat="50.77091" lon="2.29408">
        <ele>2.6</ele>
        <time>2025-10-01T13:10:47Z</time>
      </trkpt>
      <trkpt lat="50.77089" lon="2.29408">
        <ele>2.6</ele>
        <time>2025-10-01T13:10:48Z</time>
      </trkpt>
      <trkpt lat="50.77088" lon="2.29409">
        <ele>2.6</ele>
        <time>2025-10-01T13:10:49Z</time>
      </trkpt>
      <trkpt lat="50.77087" lon="2.2941">
        <ele>2.6</ele>
        <time>2025-10-01T13:10:50Z</time>
      </trkpt>
      <trkpt lat="50.77085" lon="2.29411">
        <ele>2.6</ele>
        <time>2025-10-01T13:10:51Z</time>
      </trkpt>
      <trkpt lat="50.77084" lon="2.29411">
        <ele>2.6</ele>
        <time>2025-10-01T13:10:52Z</time>
      </trkpt>
      <trkpt lat="50.77082" lon="2.29411">
        <ele>2.6</ele>
        <time>2025-10-01T13:10:53Z</time>
      </trkpt>
      <trkpt lat="50.77082" lon="2.29411">
        <ele>2.6</ele>
        <time>2025-10-01T13:10:54Z</time>
      </trkpt>
      <trkpt lat="50.77081" lon="2.29412">
        <ele>2.6</ele>
        <time>2025-10-01T13:10:55Z</time>
      </trkpt>
      <trkpt lat="50.77081" lon="2.29413">
        <ele>2.6</ele>
        <time>2025-10-01T13:10:56Z</time>
      </trkpt>
      <trkpt lat="50.77079" lon="2.29414">
        <ele>2.4</ele>
        <time>2025-10-01T13:10:57Z</time>
      </trkpt>
      <trkpt lat="50.77074" lon="2.29418">
        <ele>2.4</ele>
        <time>2025-10-01T13:11:00Z</time>
      </trkpt>
      <trkpt lat="50.77073" lon="2.2942">
        <ele>2.4</ele>
        <time>2025-10-01T13:11:01Z</time>
      </trkpt>
      <trkpt lat="50.77073" lon="2.29423">
        <ele>2.2</ele>
        <time>2025-10-01T13:11:02Z</time>
      </trkpt>
      <trkpt lat="50.77073" lon="2.29425">
        <ele>2.2</ele>
        <time>2025-10-01T13:11:03Z</time>
      </trkpt>
      <trkpt lat="50.77072" lon="2.29426">
        <ele>2.2</ele>
        <time>2025-10-01T13:11:04Z</time>
      </trkpt>
      <trkpt lat="50.77072" lon="2.29427">
        <ele>2.2</ele>
        <time>2025-10-01T13:11:05Z</time>
      </trkpt>
      <trkpt lat="50.77072" lon="2.29431">
        <ele>2.2</ele>
        <time>2025-10-01T13:11:06Z</time>
      </trkpt>
      <trkpt lat="50.77072" lon="2.29434">
        <ele>2.2</ele>
        <time>2025-10-01T13:11:07Z</time>
      </trkpt>
      <trkpt lat="50.77072" lon="2.2944">
        <ele>2.2</ele>
        <time>2025-10-01T13:11:09Z</time>
      </trkpt>
      <trkpt lat="50.77073" lon="2.29443">
        <ele>2.2</ele>
        <time>2025-10-01T13:11:10Z</time>
      </trkpt>
      <trkpt lat="50.77073" lon="2.29445">
        <ele>2.2</ele>
        <time>2025-10-01T13:11:11Z</time>
      </trkpt>
      <trkpt lat="50.77073" lon="2.29446">
        <ele>2.2</ele>
        <time>2025-10-01T13:11:12Z</time>
      </trkpt>
      <trkpt lat="50.77074" lon="2.29448">
        <ele>2.2</ele>
        <time>2025-10-01T13:11:13Z</time>
      </trkpt>
      <trkpt lat="50.77074" lon="2.29449">
        <ele>2.2</ele>
        <time>2025-10-01T13:11:14Z</time>
      </trkpt>
      <trkpt lat="50.77074" lon="2.29451">
        <ele>2.2</ele>
        <time>2025-10-01T13:11:15Z</time>
      </trkpt>
      <trkpt lat="50.77075" lon="2.29453">
        <ele>2.2</ele>
        <time>2025-10-01T13:11:16Z</time>
      </trkpt>
      <trkpt lat="50.77076" lon="2.29455">
        <ele>2.2</ele>
        <time>2025-10-01T13:11:17Z</time>
      </trkpt>
      <trkpt lat="50.77076" lon="2.29459">
        <ele>2.2</ele>
        <time>2025-10-01T13:11:18Z</time>
      </trkpt>
      <trkpt lat="50.77076" lon="2.29463">
        <ele>2.2</ele>
        <time>2025-10-01T13:11:19Z</time>
      </trkpt>
      <trkpt lat="50.77076" lon="2.29466">
        <ele>2.2</ele>
        <time>2025-10-01T13:11:20Z</time>
      </trkpt>
      <trkpt lat="50.77077" lon="2.29471">
        <ele>2.4</ele>
        <time>2025-10-01T13:11:22Z</time>
      </trkpt>
      <trkpt lat="50.77078" lon="2.29473">
        <ele>2.4</ele>
        <time>2025-10-01T13:11:23Z</time>
      </trkpt>
      <trkpt lat="50.77078" lon="2.29475">
        <ele>2.4</ele>
        <time>2025-10-01T13:11:24Z</time>
      </trkpt>
      <trkpt lat="50.77078" lon="2.29476">
        <ele>2.4</ele>
        <time>2025-10-01T13:11:25Z</time>
      </trkpt>
      <trkpt lat="50.77078" lon="2.29478">
        <ele>2.4</ele>
        <time>2025-10-01T13:11:26Z</time>
      </trkpt>
      <trkpt lat="50.77077" lon="2.29488">
        <ele>2.4</ele>
        <time>2025-10-01T13:11:29Z</time>
      </trkpt>
      <trkpt lat="50.77076" lon="2.29492">
        <ele>2.4</ele>
        <time>2025-10-01T13:11:31Z</time>
      </trkpt>
      <trkpt lat="50.77076" lon="2.29494">
        <ele>2.4</ele>
        <time>2025-10-01T13:11:32Z</time>
      </trkpt>
      <trkpt lat="50.77076" lon="2.29494">
        <ele>2.4</ele>
        <time>2025-10-01T13:11:33Z</time>
      </trkpt>
      <trkpt lat="50.77076" lon="2.29495">
        <ele>2.4</ele>
        <time>2025-10-01T13:11:34Z</time>
      </trkpt>
      <trkpt lat="50.77075" lon="2.29497">
        <ele>2.4</ele>
        <time>2025-10-01T13:11:35Z</time>
      </trkpt>
      <trkpt lat="50.77074" lon="2.29499">
        <ele>2.4</ele>
        <time>2025-10-01T13:11:36Z</time>
      </trkpt>
      <trkpt lat="50.77073" lon="2.295">
        <ele>2.4</ele>
        <time>2025-10-01T13:11:37Z</time>
      </trkpt>
      <trkpt lat="50.77072" lon="2.29501">
        <ele>2.4</ele>
        <time>2025-10-01T13:11:38Z</time>
      </trkpt>
      <trkpt lat="50.77071" lon="2.29501">
        <ele>2.4</ele>
        <time>2025-10-01T13:11:39Z</time>
      </trkpt>
      <trkpt lat="50.7707" lon="2.29502">
        <ele>2.4</ele>
        <time>2025-10-01T13:11:40Z</time>
      </trkpt>
      <trkpt lat="50.77069" lon="2.29503">
        <ele>2.4</ele>
        <time>2025-10-01T13:11:41Z</time>
      </trkpt>
      <trkpt lat="50.77068" lon="2.29503">
        <ele>2.2</ele>
        <time>2025-10-01T13:11:42Z</time>
      </trkpt>
      <trkpt lat="50.77067" lon="2.29505">
        <ele>2.2</ele>
        <time>2025-10-01T13:11:43Z</time>
      </trkpt>
      <trkpt lat="50.77064" lon="2.29508">
        <ele>2.2</ele>
        <time>2025-10-01T13:11:45Z</time>
      </trkpt>
      <trkpt lat="50.77062" lon="2.2951">
        <ele>2.2</ele>
        <time>2025-10-01T13:11:47Z</time>
      </trkpt>
      <trkpt lat="50.77061" lon="2.29511">
        <ele>2.2</ele>
        <time>2025-10-01T13:11:48Z</time>
      </trkpt>
      <trkpt lat="50.77061" lon="2.29511">
        <ele>2.2</ele>
        <time>2025-10-01T13:11:49Z</time>
      </trkpt>
      <trkpt lat="50.77061" lon="2.29511">
        <ele>2.4</ele>
        <time>2025-10-01T13:11:50Z</time>
      </trkpt>
      <trkpt lat="50.7706" lon="2.29513">
        <ele>2.4</ele>
        <time>2025-10-01T13:11:51Z</time>
      </trkpt>
      <trkpt lat="50.77059" lon="2.29515">
        <ele>2.4</ele>
        <time>2025-10-01T13:11:52Z</time>
      </trkpt>
      <trkpt lat="50.77057" lon="2.29519">
        <ele>2.4</ele>
        <time>2025-10-01T13:11:54Z</time>
      </trkpt>
      <trkpt lat="50.77056" lon="2.2952">
        <ele>2.4</ele>
        <time>2025-10-01T13:11:55Z</time>
      </trkpt>
      <trkpt lat="50.77056" lon="2.29522">
        <ele>2.4</ele>
        <time>2025-10-01T13:11:56Z</time>
      </trkpt>
      <trkpt lat="50.77056" lon="2.29524">
        <ele>2.4</ele>
        <time>2025-10-01T13:11:57Z</time>
      </trkpt>
      <trkpt lat="50.77054" lon="2.29527">
        <ele>2.4</ele>
        <time>2025-10-01T13:11:59Z</time>
      </trkpt>
      <trkpt lat="50.77051" lon="2.29529">
        <ele>2.4</ele>
        <time>2025-10-01T13:12:01Z</time>
      </trkpt>
      <trkpt lat="50.7705" lon="2.2953">
        <ele>2.4</ele>
        <time>2025-10-01T13:12:02Z</time>
      </trkpt>
      <trkpt lat="50.77048" lon="2.29531">
        <ele>2.4</ele>
        <time>2025-10-01T13:12:03Z</time>
      </trkpt>
      <trkpt lat="50.77044" lon="2.29535">
        <ele>2.4</ele>
        <time>2025-10-01T13:12:06Z</time>
      </trkpt>
      <trkpt lat="50.77043" lon="2.29536">
        <ele>2.4</ele>
        <time>2025-10-01T13:12:07Z</time>
      </trkpt>
      <trkpt lat="50.77037" lon="2.29536">
        <ele>2.4</ele>
        <time>2025-10-01T13:12:11Z</time>
      </trkpt>
      <trkpt lat="50.77035" lon="2.29535">
        <ele>2.4</ele>
        <time>2025-10-01T13:12:12Z</time>
      </trkpt>
      <trkpt lat="50.77032" lon="2.29535">
        <ele>2.4</ele>
        <time>2025-10-01T13:12:13Z</time>
      </trkpt>
      <trkpt lat="50.77029" lon="2.29536">
        <ele>2.4</ele>
        <time>2025-10-01T13:12:16Z</time>
      </trkpt>
      <trkpt lat="50.77028" lon="2.29537">
        <ele>2.4</ele>
        <time>2025-10-01T13:12:17Z</time>
      </trkpt>
      <trkpt lat="50.77027" lon="2.29537">
        <ele>2.4</ele>
        <time>2025-10-01T13:12:18Z</time>
      </trkpt>
      <trkpt lat="50.77026" lon="2.29538">
        <ele>2.4</ele>
        <time>2025-10-01T13:12:19Z</time>
      </trkpt>
      <trkpt lat="50.77024" lon="2.29538">
        <ele>2.4</ele>
        <time>2025-10-01T13:12:20Z</time>
      </trkpt>
      <trkpt lat="50.77023" lon="2.29538">
        <ele>2.4</ele>
        <time>2025-10-01T13:12:21Z</time>
      </trkpt>
      <trkpt lat="50.77021" lon="2.29538">
        <ele>2.4</ele>
        <time>2025-10-01T13:12:22Z</time>
      </trkpt>
      <trkpt lat="50.7702" lon="2.29538">
        <ele>2.4</ele>
        <time>2025-10-01T13:12:23Z</time>
      </trkpt>
      <trkpt lat="50.77019" lon="2.29539">
        <ele>2.4</ele>
        <time>2025-10-01T13:12:24Z</time>
      </trkpt>
      <trkpt lat="50.77018" lon="2.29539">
        <ele>2.4</ele>
        <time>2025-10-01T13:12:25Z</time>
      </trkpt>
      <trkpt lat="50.77018" lon="2.29539">
        <ele>2.4</ele>
        <time>2025-10-01T13:12:26Z</time>
      </trkpt>
      <trkpt lat="50.77013" lon="2.2954">
        <ele>2.4</ele>
        <time>2025-10-01T13:12:29Z</time>
      </trkpt>
      <trkpt lat="50.77009" lon="2.29539">
        <ele>2.4</ele>
        <time>2025-10-01T13:12:31Z</time>
      </trkpt>
      <trkpt lat="50.77007" lon="2.29541">
        <ele>2.4</ele>
        <time>2025-10-01T13:12:33Z</time>
      </trkpt>
      <trkpt lat="50.77007" lon="2.29541">
        <ele>2.4</ele>
        <time>2025-10-01T13:12:34Z</time>
      </trkpt>
      <trkpt lat="50.77006" lon="2.29542">
        <ele>2.4</ele>
        <time>2025-10-01T13:12:35Z</time>
      </trkpt>
      <trkpt lat="50.77" lon="2.29543">
        <ele>2.4</ele>
        <time>2025-10-01T13:12:38Z</time>
      </trkpt>
      <trkpt lat="50.76997" lon="2.29544">
        <ele>2.4</ele>
        <time>2025-10-01T13:12:41Z</time>
      </trkpt>
      <trkpt lat="50.76996" lon="2.29545">
        <ele>2.4</ele>
        <time>2025-10-01T13:12:42Z</time>
      </trkpt>
      <trkpt lat="50.76995" lon="2.29547">
        <ele>2.4</ele>
        <time>2025-10-01T13:12:43Z</time>
      </trkpt>
      <trkpt lat="50.76991" lon="2.29554">
        <ele>2.4</ele>
        <time>2025-10-01T13:12:46Z</time>
      </trkpt>
      <trkpt lat="50.76991" lon="2.29556">
        <ele>2.4</ele>
        <time>2025-10-01T13:12:47Z</time>
      </trkpt>
      <trkpt lat="50.76991" lon="2.29556">
        <ele>2.4</ele>
        <time>2025-10-01T13:12:48Z</time>
      </trkpt>
      <trkpt lat="50.7699" lon="2.29558">
        <ele>2.4</ele>
        <time>2025-10-01T13:12:49Z</time>
      </trkpt>
      <trkpt lat="50.7699" lon="2.2956">
        <ele>2.4</ele>
        <time>2025-10-01T13:12:50Z</time>
      </trkpt>
      <trkpt lat="50.76989" lon="2.29571">
        <ele>2.4</ele>
        <time>2025-10-01T13:12:54Z</time>
      </trkpt>
      <trkpt lat="50.76989" lon="2.29573">
        <ele>2.4</ele>
        <time>2025-10-01T13:12:55Z</time>
      </trkpt>
      <trkpt lat="50.76989" lon="2.29574">
        <ele>2.4</ele>
        <time>2025-10-01T13:12:56Z</time>
      </trkpt>
      <trkpt lat="50.76989" lon="2.29577">
        <ele>2.4</ele>
        <time>2025-10-01T13:12:57Z</time>
      </trkpt>
      <trkpt lat="50.76989" lon="2.29579">
        <ele>2.4</ele>
        <time>2025-10-01T13:12:58Z</time>
      </trkpt>
      <trkpt lat="50.76989" lon="2.29581">
        <ele>2.4</ele>
        <time>2025-10-01T13:12:59Z</time>
      </trkpt>
      <trkpt lat="50.76988" lon="2.29584">
        <ele>2.4</ele>
        <time>2025-10-01T13:13:00Z</time>
      </trkpt>
      <trkpt lat="50.76988" lon="2.29586">
        <ele>2.4</ele>
        <time>2025-10-01T13:13:01Z</time>
      </trkpt>
      <trkpt lat="50.76987" lon="2.29588">
        <ele>2.4</ele>
        <time>2025-10-01T13:13:02Z</time>
      </trkpt>
      <trkpt lat="50.76987" lon="2.29589">
        <ele>2.4</ele>
        <time>2025-10-01T13:13:03Z</time>
      </trkpt>
      <trkpt lat="50.76986" lon="2.2959">
        <ele>2.4</ele>
        <time>2025-10-01T13:13:04Z</time>
      </trkpt>
      <trkpt lat="50.76985" lon="2.29591">
        <ele>2.4</ele>
        <time>2025-10-01T13:13:05Z</time>
      </trkpt>
      <trkpt lat="50.76983" lon="2.29594">
        <ele>2.4</ele>
        <time>2025-10-01T13:13:07Z</time>
      </trkpt>
      <trkpt lat="50.76981" lon="2.29596">
        <ele>2.4</ele>
        <time>2025-10-01T13:13:08Z</time>
      </trkpt>
      <trkpt lat="50.7698" lon="2.29597">
        <ele>2.4</ele>
        <time>2025-10-01T13:13:09Z</time>
      </trkpt>
      <trkpt lat="50.76979" lon="2.29598">
        <ele>2.4</ele>
        <time>2025-10-01T13:13:10Z</time>
      </trkpt>
      <trkpt lat="50.76979" lon="2.29598">
        <ele>2.4</ele>
        <time>2025-10-01T13:13:11Z</time>
      </trkpt>
      <trkpt lat="50.76978" lon="2.296">
        <ele>2.4</ele>
        <time>2025-10-01T13:13:12Z</time>
      </trkpt>
      <trkpt lat="50.76977" lon="2.296">
        <ele>2.4</ele>
        <time>2025-10-01T13:13:13Z</time>
      </trkpt>
      <trkpt lat="50.76975" lon="2.29603">
        <ele>2.4</ele>
        <time>2025-10-01T13:13:16Z</time>
      </trkpt>
      <trkpt lat="50.76973" lon="2.29604">
        <ele>2.4</ele>
        <time>2025-10-01T13:13:17Z</time>
      </trkpt>
      <trkpt lat="50.76972" lon="2.29605">
        <ele>2.4</ele>
        <time>2025-10-01T13:13:18Z</time>
      </trkpt>
      <trkpt lat="50.76971" lon="2.29606">
        <ele>2.4</ele>
        <time>2025-10-01T13:13:19Z</time>
      </trkpt>
      <trkpt lat="50.7697" lon="2.29607">
        <ele>2.4</ele>
        <time>2025-10-01T13:13:20Z</time>
      </trkpt>
      <trkpt lat="50.76969" lon="2.29608">
        <ele>2.4</ele>
        <time>2025-10-01T13:13:21Z</time>
      </trkpt>
      <trkpt lat="50.76967" lon="2.29612">
        <ele>2.4</ele>
        <time>2025-10-01T13:13:23Z</time>
      </trkpt>
      <trkpt lat="50.76966" lon="2.29614">
        <ele>2.4</ele>
        <time>2025-10-01T13:13:24Z</time>
      </trkpt>
      <trkpt lat="50.76965" lon="2.29615">
        <ele>2.4</ele>
        <time>2025-10-01T13:13:25Z</time>
      </trkpt>
      <trkpt lat="50.76964" lon="2.29616">
        <ele>2.4</ele>
        <time>2025-10-01T13:13:26Z</time>
      </trkpt>
      <trkpt lat="50.76961" lon="2.2962">
        <ele>2.4</ele>
        <time>2025-10-01T13:13:29Z</time>
      </trkpt>
      <trkpt lat="50.7696" lon="2.29621">
        <ele>2.4</ele>
        <time>2025-10-01T13:13:30Z</time>
      </trkpt>
      <trkpt lat="50.76959" lon="2.29622">
        <ele>2.4</ele>
        <time>2025-10-01T13:13:31Z</time>
      </trkpt>
      <trkpt lat="50.76958" lon="2.29622">
        <ele>2.4</ele>
        <time>2025-10-01T13:13:32Z</time>
      </trkpt>
      <trkpt lat="50.76956" lon="2.29623">
        <ele>2.4</ele>
        <time>2025-10-01T13:13:33Z</time>
      </trkpt>
      <trkpt lat="50.76955" lon="2.29624">
        <ele>2.4</ele>
        <time>2025-10-01T13:13:34Z</time>
      </trkpt>
      <trkpt lat="50.76954" lon="2.29624">
        <ele>2.4</ele>
        <time>2025-10-01T13:13:35Z</time>
      </trkpt>
      <trkpt lat="50.76952" lon="2.29625">
        <ele>2.4</ele>
        <time>2025-10-01T13:13:36Z</time>
      </trkpt>
      <trkpt lat="50.76947" lon="2.29634">
        <ele>2.4</ele>
        <time>2025-10-01T13:13:40Z</time>
      </trkpt>
      <trkpt lat="50.76946" lon="2.29634">
        <ele>2.4</ele>
        <time>2025-10-01T13:13:41Z</time>
      </trkpt>
      <trkpt lat="50.76946" lon="2.29634">
        <ele>2.4</ele>
        <time>2025-10-01T13:13:42Z</time>
      </trkpt>
      <trkpt lat="50.76944" lon="2.29636">
        <ele>2.4</ele>
        <time>2025-10-01T13:13:44Z</time>
      </trkpt>
      <trkpt lat="50.76942" lon="2.29638">
        <ele>2.4</ele>
        <time>2025-10-01T13:13:45Z</time>
      </trkpt>
      <trkpt lat="50.76938" lon="2.29642">
        <ele>2.6</ele>
        <time>2025-10-01T13:13:49Z</time>
      </trkpt>
      <trkpt lat="50.76931" lon="2.29645">
        <ele>2.6</ele>
        <time>2025-10-01T13:13:54Z</time>
      </trkpt>
      <trkpt lat="50.76929" lon="2.29647">
        <ele>2.6</ele>
        <time>2025-10-01T13:13:56Z</time>
      </trkpt>
      <trkpt lat="50.76928" lon="2.29648">
        <ele>2.6</ele>
        <time>2025-10-01T13:13:57Z</time>
      </trkpt>
      <trkpt lat="50.76927" lon="2.2965">
        <ele>2.6</ele>
        <time>2025-10-01T13:13:58Z</time>
      </trkpt>
      <trkpt lat="50.76926" lon="2.29651">
        <ele>2.6</ele>
        <time>2025-10-01T13:13:59Z</time>
      </trkpt>
      <trkpt lat="50.76925" lon="2.29653">
        <ele>2.6</ele>
        <time>2025-10-01T13:14:00Z</time>
      </trkpt>
      <trkpt lat="50.76925" lon="2.29655">
        <ele>2.6</ele>
        <time>2025-10-01T13:14:01Z</time>
      </trkpt>
      <trkpt lat="50.76924" lon="2.29656">
        <ele>2.6</ele>
        <time>2025-10-01T13:14:02Z</time>
      </trkpt>
      <trkpt lat="50.76924" lon="2.29657">
        <ele>2.6</ele>
        <time>2025-10-01T13:14:03Z</time>
      </trkpt>
      <trkpt lat="50.76923" lon="2.2966">
        <ele>2.8</ele>
        <time>2025-10-01T13:14:05Z</time>
      </trkpt>
      <trkpt lat="50.76922" lon="2.29662">
        <ele>2.8</ele>
        <time>2025-10-01T13:14:06Z</time>
      </trkpt>
      <trkpt lat="50.76922" lon="2.29663">
        <ele>3</ele>
        <time>2025-10-01T13:14:07Z</time>
      </trkpt>
      <trkpt lat="50.7692" lon="2.29668">
        <ele>3.6</ele>
        <time>2025-10-01T13:14:11Z</time>
      </trkpt>
      <trkpt lat="50.76921" lon="2.29669">
        <ele>3.6</ele>
        <time>2025-10-01T13:14:12Z</time>
      </trkpt>
      <trkpt lat="50.7692" lon="2.2967">
        <ele>3.8</ele>
        <time>2025-10-01T13:14:13Z</time>
      </trkpt>
      <trkpt lat="50.76919" lon="2.29671">
        <ele>4</ele>
        <time>2025-10-01T13:14:14Z</time>
      </trkpt>
      <trkpt lat="50.76916" lon="2.29677">
        <ele>4</ele>
        <time>2025-10-01T13:14:18Z</time>
      </trkpt>
      <trkpt lat="50.76915" lon="2.2968">
        <ele>4</ele>
        <time>2025-10-01T13:14:20Z</time>
      </trkpt>
      <trkpt lat="50.76914" lon="2.29684">
        <ele>4</ele>
        <time>2025-10-01T13:14:22Z</time>
      </trkpt>
      <trkpt lat="50.76914" lon="2.29686">
        <ele>4</ele>
        <time>2025-10-01T13:14:23Z</time>
      </trkpt>
      <trkpt lat="50.76914" lon="2.29688">
        <ele>4</ele>
        <time>2025-10-01T13:14:24Z</time>
      </trkpt>
      <trkpt lat="50.76914" lon="2.2969">
        <ele>4</ele>
        <time>2025-10-01T13:14:25Z</time>
      </trkpt>
      <trkpt lat="50.76914" lon="2.29692">
        <ele>3.8</ele>
        <time>2025-10-01T13:14:26Z</time>
      </trkpt>
      <trkpt lat="50.76914" lon="2.29694">
        <ele>3.6</ele>
        <time>2025-10-01T13:14:27Z</time>
      </trkpt>
      <trkpt lat="50.76914" lon="2.29696">
        <ele>3.4</ele>
        <time>2025-10-01T13:14:28Z</time>
      </trkpt>
      <trkpt lat="50.76913" lon="2.297">
        <ele>3.2</ele>
        <time>2025-10-01T13:14:30Z</time>
      </trkpt>
      <trkpt lat="50.76913" lon="2.29702">
        <ele>3.2</ele>
        <time>2025-10-01T13:14:31Z</time>
      </trkpt>
      <trkpt lat="50.76913" lon="2.29704">
        <ele>3.2</ele>
        <time>2025-10-01T13:14:32Z</time>
      </trkpt>
      <trkpt lat="50.76913" lon="2.29704">
        <ele>3.2</ele>
        <time>2025-10-01T13:14:33Z</time>
      </trkpt>
      <trkpt lat="50.76913" lon="2.29704">
        <ele>3.2</ele>
        <time>2025-10-01T13:14:34Z</time>
      </trkpt>
      <trkpt lat="50.76913" lon="2.29704">
        <ele>3.2</ele>
        <time>2025-10-01T13:14:35Z</time>
      </trkpt>
      <trkpt lat="50.76913" lon="2.29704">
        <ele>3</ele>
        <time>2025-10-01T13:14:36Z</time>
      </trkpt>
      <trkpt lat="50.7691" lon="2.29711">
        <ele>3</ele>
        <time>2025-10-01T13:14:46Z</time>
      </trkpt>
      <trkpt lat="50.7691" lon="2.29713">
        <ele>2.8</ele>
        <time>2025-10-01T13:14:47Z</time>
      </trkpt>
      <trkpt lat="50.7691" lon="2.29715">
        <ele>2.8</ele>
        <time>2025-10-01T13:14:48Z</time>
      </trkpt>
      <trkpt lat="50.76908" lon="2.29721">
        <ele>2.8</ele>
        <time>2025-10-01T13:14:51Z</time>
      </trkpt>
      <trkpt lat="50.76907" lon="2.29722">
        <ele>2.8</ele>
        <time>2025-10-01T13:14:52Z</time>
      </trkpt>
      <trkpt lat="50.76906" lon="2.29723">
        <ele>2.8</ele>
        <time>2025-10-01T13:14:53Z</time>
      </trkpt>
      <trkpt lat="50.76903" lon="2.29723">
        <ele>2.8</ele>
        <time>2025-10-01T13:14:55Z</time>
      </trkpt>
      <trkpt lat="50.76901" lon="2.29723">
        <ele>2.8</ele>
        <time>2025-10-01T13:14:57Z</time>
      </trkpt>
      <trkpt lat="50.76901" lon="2.29723">
        <ele>2.8</ele>
        <time>2025-10-01T13:14:58Z</time>
      </trkpt>
      <trkpt lat="50.76901" lon="2.29723">
        <ele>2.8</ele>
        <time>2025-10-01T13:14:59Z</time>
      </trkpt>
      <trkpt lat="50.76899" lon="2.2973">
        <ele>2.6</ele>
        <time>2025-10-01T13:15:59Z</time>
      </trkpt>
      <trkpt lat="50.76898" lon="2.29733">
        <ele>2.6</ele>
        <time>2025-10-01T13:16:00Z</time>
      </trkpt>
      <trkpt lat="50.76897" lon="2.29739">
        <ele>2.6</ele>
        <time>2025-10-01T13:16:02Z</time>
      </trkpt>
      <trkpt lat="50.76896" lon="2.29742">
        <ele>2.6</ele>
        <time>2025-10-01T13:16:03Z</time>
      </trkpt>
      <trkpt lat="50.76896" lon="2.29744">
        <ele>2.6</ele>
        <time>2025-10-01T13:16:04Z</time>
      </trkpt>
      <trkpt lat="50.76895" lon="2.29746">
        <ele>2.6</ele>
        <time>2025-10-01T13:16:05Z</time>
      </trkpt>
      <trkpt lat="50.76895" lon="2.29748">
        <ele>2.6</ele>
        <time>2025-10-01T13:16:06Z</time>
      </trkpt>
      <trkpt lat="50.76895" lon="2.2975">
        <ele>2.6</ele>
        <time>2025-10-01T13:16:07Z</time>
      </trkpt>
      <trkpt lat="50.76893" lon="2.29753">
        <ele>2.4</ele>
        <time>2025-10-01T13:16:09Z</time>
      </trkpt>
      <trkpt lat="50.76894" lon="2.29759">
        <ele>2.4</ele>
        <time>2025-10-01T13:16:11Z</time>
      </trkpt>
      <trkpt lat="50.76893" lon="2.29762">
        <ele>2.4</ele>
        <time>2025-10-01T13:16:12Z</time>
      </trkpt>
      <trkpt lat="50.76893" lon="2.29764">
        <ele>2.4</ele>
        <time>2025-10-01T13:16:13Z</time>
      </trkpt>
      <trkpt lat="50.76891" lon="2.29771">
        <ele>2.2</ele>
        <time>2025-10-01T13:16:16Z</time>
      </trkpt>
      <trkpt lat="50.76891" lon="2.29773">
        <ele>2.2</ele>
        <time>2025-10-01T13:16:17Z</time>
      </trkpt>
      <trkpt lat="50.7689" lon="2.29775">
        <ele>2.2</ele>
        <time>2025-10-01T13:16:18Z</time>
      </trkpt>
      <trkpt lat="50.7689" lon="2.29776">
        <ele>2.2</ele>
        <time>2025-10-01T13:16:19Z</time>
      </trkpt>
      <trkpt lat="50.7689" lon="2.29778">
        <ele>2.2</ele>
        <time>2025-10-01T13:16:20Z</time>
      </trkpt>
      <trkpt lat="50.76886" lon="2.29791">
        <ele>2.2</ele>
        <time>2025-10-01T13:16:25Z</time>
      </trkpt>
      <trkpt lat="50.76885" lon="2.29793">
        <ele>2.2</ele>
        <time>2025-10-01T13:16:26Z</time>
      </trkpt>
      <trkpt lat="50.76885" lon="2.29795">
        <ele>2.2</ele>
        <time>2025-10-01T13:16:27Z</time>
      </trkpt>
      <trkpt lat="50.76884" lon="2.29797">
        <ele>2.2</ele>
        <time>2025-10-01T13:16:28Z</time>
      </trkpt>
      <trkpt lat="50.76882" lon="2.29806">
        <ele>2.2</ele>
        <time>2025-10-01T13:16:32Z</time>
      </trkpt>
      <trkpt lat="50.76882" lon="2.29808">
        <ele>2.2</ele>
        <time>2025-10-01T13:16:33Z</time>
      </trkpt>
      <trkpt lat="50.76881" lon="2.29809">
        <ele>2.2</ele>
        <time>2025-10-01T13:16:34Z</time>
      </trkpt>
      <trkpt lat="50.76881" lon="2.29811">
        <ele>2.2</ele>
        <time>2025-10-01T13:16:35Z</time>
      </trkpt>
      <trkpt lat="50.7688" lon="2.29812">
        <ele>2.2</ele>
        <time>2025-10-01T13:16:36Z</time>
      </trkpt>
      <trkpt lat="50.7688" lon="2.29814">
        <ele>2.2</ele>
        <time>2025-10-01T13:16:37Z</time>
      </trkpt>
      <trkpt lat="50.76879" lon="2.29816">
        <ele>2.2</ele>
        <time>2025-10-01T13:16:38Z</time>
      </trkpt>
      <trkpt lat="50.76879" lon="2.29819">
        <ele>2.4</ele>
        <time>2025-10-01T13:16:39Z</time>
      </trkpt>
      <trkpt lat="50.76878" lon="2.29821">
        <ele>2.4</ele>
        <time>2025-10-01T13:16:40Z</time>
      </trkpt>
      <trkpt lat="50.76877" lon="2.29827">
        <ele>2.4</ele>
        <time>2025-10-01T13:16:43Z</time>
      </trkpt>
      <trkpt lat="50.76876" lon="2.29831">
        <ele>2.4</ele>
        <time>2025-10-01T13:16:45Z</time>
      </trkpt>
      <trkpt lat="50.76875" lon="2.29834">
        <ele>2.2</ele>
        <time>2025-10-01T13:16:47Z</time>
      </trkpt>
      <trkpt lat="50.76874" lon="2.29841">
        <ele>2.2</ele>
        <time>2025-10-01T13:16:51Z</time>
      </trkpt>
      <trkpt lat="50.76874" lon="2.29842">
        <ele>2.2</ele>
        <time>2025-10-01T13:16:52Z</time>
      </trkpt>
      <trkpt lat="50.76873" lon="2.29844">
        <ele>2.2</ele>
        <time>2025-10-01T13:16:53Z</time>
      </trkpt>
      <trkpt lat="50.76872" lon="2.29846">
        <ele>2</ele>
        <time>2025-10-01T13:16:54Z</time>
      </trkpt>
      <trkpt lat="50.76871" lon="2.29848">
        <ele>2</ele>
        <time>2025-10-01T13:16:55Z</time>
      </trkpt>
      <trkpt lat="50.76871" lon="2.2985">
        <ele>2</ele>
        <time>2025-10-01T13:16:56Z</time>
      </trkpt>
      <trkpt lat="50.7687" lon="2.29852">
        <ele>2</ele>
        <time>2025-10-01T13:16:57Z</time>
      </trkpt>
      <trkpt lat="50.7687" lon="2.29854">
        <ele>2</ele>
        <time>2025-10-01T13:16:58Z</time>
      </trkpt>
      <trkpt lat="50.76869" lon="2.29855">
        <ele>2</ele>
        <time>2025-10-01T13:16:59Z</time>
      </trkpt>
      <trkpt lat="50.76869" lon="2.29856">
        <ele>2</ele>
        <time>2025-10-01T13:17:00Z</time>
      </trkpt>
      <trkpt lat="50.76869" lon="2.29858">
        <ele>2</ele>
        <time>2025-10-01T13:17:01Z</time>
      </trkpt>
      <trkpt lat="50.76868" lon="2.29859">
        <ele>2</ele>
        <time>2025-10-01T13:17:02Z</time>
      </trkpt>
      <trkpt lat="50.76867" lon="2.29861">
        <ele>2</ele>
        <time>2025-10-01T13:17:03Z</time>
      </trkpt>
      <trkpt lat="50.76867" lon="2.29863">
        <ele>2</ele>
        <time>2025-10-01T13:17:04Z</time>
      </trkpt>
      <trkpt lat="50.76866" lon="2.29864">
        <ele>2</ele>
        <time>2025-10-01T13:17:05Z</time>
      </trkpt>
      <trkpt lat="50.76865" lon="2.29866">
        <ele>2</ele>
        <time>2025-10-01T13:17:06Z</time>
      </trkpt>
      <trkpt lat="50.76865" lon="2.29868">
        <ele>2.2</ele>
        <time>2025-10-01T13:17:07Z</time>
      </trkpt>
      <trkpt lat="50.76863" lon="2.29872">
        <ele>2.2</ele>
        <time>2025-10-01T13:17:09Z</time>
      </trkpt>
      <trkpt lat="50.76862" lon="2.29874">
        <ele>2.2</ele>
        <time>2025-10-01T13:17:10Z</time>
      </trkpt>
      <trkpt lat="50.76862" lon="2.29878">
        <ele>2.2</ele>
        <time>2025-10-01T13:17:12Z</time>
      </trkpt>
      <trkpt lat="50.76861" lon="2.2988">
        <ele>2.2</ele>
        <time>2025-10-01T13:17:13Z</time>
      </trkpt>
      <trkpt lat="50.76858" lon="2.29896">
        <ele>2.4</ele>
        <time>2025-10-01T13:17:20Z</time>
      </trkpt>
      <trkpt lat="50.76857" lon="2.29899">
        <ele>2.4</ele>
        <time>2025-10-01T13:17:22Z</time>
      </trkpt>
      <trkpt lat="50.76856" lon="2.29901">
        <ele>2.4</ele>
        <time>2025-10-01T13:17:23Z</time>
      </trkpt>
      <trkpt lat="50.76855" lon="2.29905">
        <ele>2.4</ele>
        <time>2025-10-01T13:17:25Z</time>
      </trkpt>
      <trkpt lat="50.76855" lon="2.29908">
        <ele>2.4</ele>
        <time>2025-10-01T13:17:26Z</time>
      </trkpt>
      <trkpt lat="50.76853" lon="2.29912">
        <ele>2.4</ele>
        <time>2025-10-01T13:17:28Z</time>
      </trkpt>
      <trkpt lat="50.76853" lon="2.29918">
        <ele>2.4</ele>
        <time>2025-10-01T13:17:32Z</time>
      </trkpt>
      <trkpt lat="50.76853" lon="2.29919">
        <ele>2.4</ele>
        <time>2025-10-01T13:17:33Z</time>
      </trkpt>
      <trkpt lat="50.76852" lon="2.29922">
        <ele>2.4</ele>
        <time>2025-10-01T13:17:34Z</time>
      </trkpt>
      <trkpt lat="50.7685" lon="2.29926">
        <ele>2.4</ele>
        <time>2025-10-01T13:17:36Z</time>
      </trkpt>
      <trkpt lat="50.7685" lon="2.29928">
        <ele>2.6</ele>
        <time>2025-10-01T13:17:37Z</time>
      </trkpt>
      <trkpt lat="50.76848" lon="2.29931">
        <ele>2.6</ele>
        <time>2025-10-01T13:17:39Z</time>
      </trkpt>
      <trkpt lat="50.76848" lon="2.29933">
        <ele>2.6</ele>
        <time>2025-10-01T13:17:40Z</time>
      </trkpt>
      <trkpt lat="50.76848" lon="2.29936">
        <ele>2.6</ele>
        <time>2025-10-01T13:17:41Z</time>
      </trkpt>
      <trkpt lat="50.76848" lon="2.29938">
        <ele>2.6</ele>
        <time>2025-10-01T13:17:42Z</time>
      </trkpt>
      <trkpt lat="50.76848" lon="2.29941">
        <ele>2.6</ele>
        <time>2025-10-01T13:17:43Z</time>
      </trkpt>
      <trkpt lat="50.76847" lon="2.29943">
        <ele>2.6</ele>
        <time>2025-10-01T13:17:44Z</time>
      </trkpt>
      <trkpt lat="50.76845" lon="2.29947">
        <ele>2.6</ele>
        <time>2025-10-01T13:17:46Z</time>
      </trkpt>
      <trkpt lat="50.76844" lon="2.29949">
        <ele>2.6</ele>
        <time>2025-10-01T13:17:47Z</time>
      </trkpt>
      <trkpt lat="50.76844" lon="2.2995">
        <ele>2.6</ele>
        <time>2025-10-01T13:17:48Z</time>
      </trkpt>
      <trkpt lat="50.76843" lon="2.29952">
        <ele>2.6</ele>
        <time>2025-10-01T13:17:49Z</time>
      </trkpt>
      <trkpt lat="50.76841" lon="2.2996">
        <ele>2.6</ele>
        <time>2025-10-01T13:17:52Z</time>
      </trkpt>
      <trkpt lat="50.76841" lon="2.29963">
        <ele>2.6</ele>
        <time>2025-10-01T13:17:53Z</time>
      </trkpt>
      <trkpt lat="50.76839" lon="2.29969">
        <ele>2.8</ele>
        <time>2025-10-01T13:17:56Z</time>
      </trkpt>
      <trkpt lat="50.76839" lon="2.29971">
        <ele>2.8</ele>
        <time>2025-10-01T13:17:57Z</time>
      </trkpt>
      <trkpt lat="50.76839" lon="2.29973">
        <ele>2.8</ele>
        <time>2025-10-01T13:17:58Z</time>
      </trkpt>
      <trkpt lat="50.76838" lon="2.29979">
        <ele>3</ele>
        <time>2025-10-01T13:18:01Z</time>
      </trkpt>
      <trkpt lat="50.76838" lon="2.29981">
        <ele>3</ele>
        <time>2025-10-01T13:18:02Z</time>
      </trkpt>
      <trkpt lat="50.76837" lon="2.29983">
        <ele>3</ele>
        <time>2025-10-01T13:18:03Z</time>
      </trkpt>
      <trkpt lat="50.76837" lon="2.29986">
        <ele>3</ele>
        <time>2025-10-01T13:18:04Z</time>
      </trkpt>
      <trkpt lat="50.76836" lon="2.29988">
        <ele>3</ele>
        <time>2025-10-01T13:18:05Z</time>
      </trkpt>
      <trkpt lat="50.76836" lon="2.2999">
        <ele>3</ele>
        <time>2025-10-01T13:18:06Z</time>
      </trkpt>
      <trkpt lat="50.76834" lon="2.29999">
        <ele>3</ele>
        <time>2025-10-01T13:18:10Z</time>
      </trkpt>
      <trkpt lat="50.76833" lon="2.30002">
        <ele>3</ele>
        <time>2025-10-01T13:18:12Z</time>
      </trkpt>
      <trkpt lat="50.76833" lon="2.30004">
        <ele>3</ele>
        <time>2025-10-01T13:18:13Z</time>
      </trkpt>
      <trkpt lat="50.76832" lon="2.30005">
        <ele>3</ele>
        <time>2025-10-01T13:18:14Z</time>
      </trkpt>
      <trkpt lat="50.76832" lon="2.30008">
        <ele>3</ele>
        <time>2025-10-01T13:18:16Z</time>
      </trkpt>
      <trkpt lat="50.76831" lon="2.3001">
        <ele>3</ele>
        <time>2025-10-01T13:18:17Z</time>
      </trkpt>
      <trkpt lat="50.76831" lon="2.30012">
        <ele>3</ele>
        <time>2025-10-01T13:18:18Z</time>
      </trkpt>
      <trkpt lat="50.7683" lon="2.30014">
        <ele>3</ele>
        <time>2025-10-01T13:18:19Z</time>
      </trkpt>
      <trkpt lat="50.7683" lon="2.30015">
        <ele>3</ele>
        <time>2025-10-01T13:18:20Z</time>
      </trkpt>
      <trkpt lat="50.76829" lon="2.30019">
        <ele>3</ele>
        <time>2025-10-01T13:18:22Z</time>
      </trkpt>
      <trkpt lat="50.76827" lon="2.30025">
        <ele>3</ele>
        <time>2025-10-01T13:18:25Z</time>
      </trkpt>
      <trkpt lat="50.76828" lon="2.30027">
        <ele>3</ele>
        <time>2025-10-01T13:18:26Z</time>
      </trkpt>
      <trkpt lat="50.76828" lon="2.30029">
        <ele>3</ele>
        <time>2025-10-01T13:18:27Z</time>
      </trkpt>
      <trkpt lat="50.76827" lon="2.30031">
        <ele>2.8</ele>
        <time>2025-10-01T13:18:28Z</time>
      </trkpt>
      <trkpt lat="50.76827" lon="2.30033">
        <ele>2.8</ele>
        <time>2025-10-01T13:18:29Z</time>
      </trkpt>
      <trkpt lat="50.76825" lon="2.30036">
        <ele>2.8</ele>
        <time>2025-10-01T13:18:31Z</time>
      </trkpt>
      <trkpt lat="50.76824" lon="2.30038">
        <ele>2.8</ele>
        <time>2025-10-01T13:18:32Z</time>
      </trkpt>
      <trkpt lat="50.76823" lon="2.3004">
        <ele>2.8</ele>
        <time>2025-10-01T13:18:33Z</time>
      </trkpt>
      <trkpt lat="50.76821" lon="2.3005">
        <ele>2.8</ele>
        <time>2025-10-01T13:18:37Z</time>
      </trkpt>
      <trkpt lat="50.7682" lon="2.30052">
        <ele>2.8</ele>
        <time>2025-10-01T13:18:38Z</time>
      </trkpt>
      <trkpt lat="50.7682" lon="2.30054">
        <ele>2.8</ele>
        <time>2025-10-01T13:18:39Z</time>
      </trkpt>
      <trkpt lat="50.76819" lon="2.30056">
        <ele>2.8</ele>
        <time>2025-10-01T13:18:40Z</time>
      </trkpt>
      <trkpt lat="50.76819" lon="2.30058">
        <ele>2.8</ele>
        <time>2025-10-01T13:18:41Z</time>
      </trkpt>
      <trkpt lat="50.76818" lon="2.3006">
        <ele>2.8</ele>
        <time>2025-10-01T13:18:42Z</time>
      </trkpt>
      <trkpt lat="50.76818" lon="2.30061">
        <ele>2.8</ele>
        <time>2025-10-01T13:18:43Z</time>
      </trkpt>
      <trkpt lat="50.76817" lon="2.30064">
        <ele>2.8</ele>
        <time>2025-10-01T13:18:44Z</time>
      </trkpt>
      <trkpt lat="50.76815" lon="2.30067">
        <ele>2.8</ele>
        <time>2025-10-01T13:18:46Z</time>
      </trkpt>
      <trkpt lat="50.76815" lon="2.30069">
        <ele>2.8</ele>
        <time>2025-10-01T13:18:47Z</time>
      </trkpt>
      <trkpt lat="50.76814" lon="2.30072">
        <ele>2.8</ele>
        <time>2025-10-01T13:18:48Z</time>
      </trkpt>
      <trkpt lat="50.76813" lon="2.30076">
        <ele>3</ele>
        <time>2025-10-01T13:18:50Z</time>
      </trkpt>
      <trkpt lat="50.76812" lon="2.3008">
        <ele>3</ele>
        <time>2025-10-01T13:18:52Z</time>
      </trkpt>
      <trkpt lat="50.7681" lon="2.30087">
        <ele>3</ele>
        <time>2025-10-01T13:18:55Z</time>
      </trkpt>
      <trkpt lat="50.76807" lon="2.30092">
        <ele>3</ele>
        <time>2025-10-01T13:18:58Z</time>
      </trkpt>
      <trkpt lat="50.76807" lon="2.30094">
        <ele>3</ele>
        <time>2025-10-01T13:18:59Z</time>
      </trkpt>
      <trkpt lat="50.76806" lon="2.30096">
        <ele>3</ele>
        <time>2025-10-01T13:19:00Z</time>
      </trkpt>
      <trkpt lat="50.76806" lon="2.301">
        <ele>3.2</ele>
        <time>2025-10-01T13:19:02Z</time>
      </trkpt>
      <trkpt lat="50.76806" lon="2.30102">
        <ele>3.2</ele>
        <time>2025-10-01T13:19:03Z</time>
      </trkpt>
      <trkpt lat="50.76806" lon="2.30103">
        <ele>3.2</ele>
        <time>2025-10-01T13:19:04Z</time>
      </trkpt>
      <trkpt lat="50.76805" lon="2.30105">
        <ele>3.2</ele>
        <time>2025-10-01T13:19:05Z</time>
      </trkpt>
      <trkpt lat="50.76805" lon="2.30107">
        <ele>3.2</ele>
        <time>2025-10-01T13:19:06Z</time>
      </trkpt>
      <trkpt lat="50.76805" lon="2.30109">
        <ele>3.4</ele>
        <time>2025-10-01T13:19:07Z</time>
      </trkpt>
      <trkpt lat="50.76805" lon="2.30111">
        <ele>3.4</ele>
        <time>2025-10-01T13:19:08Z</time>
      </trkpt>
      <trkpt lat="50.76804" lon="2.30113">
        <ele>3.4</ele>
        <time>2025-10-01T13:19:09Z</time>
      </trkpt>
      <trkpt lat="50.76804" lon="2.30115">
        <ele>3.4</ele>
        <time>2025-10-01T13:19:10Z</time>
      </trkpt>
      <trkpt lat="50.76803" lon="2.30122">
        <ele>3.4</ele>
        <time>2025-10-01T13:19:13Z</time>
      </trkpt>
      <trkpt lat="50.76803" lon="2.30125">
        <ele>3.4</ele>
        <time>2025-10-01T13:19:14Z</time>
      </trkpt>
      <trkpt lat="50.76802" lon="2.30127">
        <ele>3.4</ele>
        <time>2025-10-01T13:19:15Z</time>
      </trkpt>
      <trkpt lat="50.76801" lon="2.30129">
        <ele>3.4</ele>
        <time>2025-10-01T13:19:16Z</time>
      </trkpt>
      <trkpt lat="50.76801" lon="2.30131">
        <ele>3.4</ele>
        <time>2025-10-01T13:19:17Z</time>
      </trkpt>
      <trkpt lat="50.76802" lon="2.30136">
        <ele>3.6</ele>
        <time>2025-10-01T13:19:19Z</time>
      </trkpt>
      <trkpt lat="50.76802" lon="2.30137">
        <ele>4</ele>
        <time>2025-10-01T13:19:21Z</time>
      </trkpt>
      <trkpt lat="50.76804" lon="2.30137">
        <ele>4.2</ele>
        <time>2025-10-01T13:19:22Z</time>
      </trkpt>
      <trkpt lat="50.76804" lon="2.30137">
        <ele>4.2</ele>
        <time>2025-10-01T13:19:23Z</time>
      </trkpt>
      <trkpt lat="50.76805" lon="2.30138">
        <ele>4.6</ele>
        <time>2025-10-01T13:19:26Z</time>
      </trkpt>
      <trkpt lat="50.76807" lon="2.30138">
        <ele>4.6</ele>
        <time>2025-10-01T13:19:27Z</time>
      </trkpt>
      <trkpt lat="50.76811" lon="2.30139">
        <ele>4.8</ele>
        <time>2025-10-01T13:19:30Z</time>
      </trkpt>
      <trkpt lat="50.76812" lon="2.30139">
        <ele>4.8</ele>
        <time>2025-10-01T13:19:31Z</time>
      </trkpt>
      <trkpt lat="50.76814" lon="2.30139">
        <ele>4.8</ele>
        <time>2025-10-01T13:19:32Z</time>
      </trkpt>
      <trkpt lat="50.76815" lon="2.3014">
        <ele>4.8</ele>
        <time>2025-10-01T13:19:33Z</time>
      </trkpt>
      <trkpt lat="50.76817" lon="2.3014">
        <ele>4.8</ele>
        <time>2025-10-01T13:19:34Z</time>
      </trkpt>
      <trkpt lat="50.76818" lon="2.30141">
        <ele>4.8</ele>
        <time>2025-10-01T13:19:35Z</time>
      </trkpt>
      <trkpt lat="50.76819" lon="2.30142">
        <ele>4.8</ele>
        <time>2025-10-01T13:19:36Z</time>
      </trkpt>
      <trkpt lat="50.76821" lon="2.30144">
        <ele>4.8</ele>
        <time>2025-10-01T13:19:38Z</time>
      </trkpt>
      <trkpt lat="50.76822" lon="2.30145">
        <ele>5</ele>
        <time>2025-10-01T13:19:39Z</time>
      </trkpt>
      <trkpt lat="50.76822" lon="2.30145">
        <ele>5</ele>
        <time>2025-10-01T13:19:40Z</time>
      </trkpt>
      <trkpt lat="50.76824" lon="2.30146">
        <ele>5</ele>
        <time>2025-10-01T13:19:41Z</time>
      </trkpt>
      <trkpt lat="50.76825" lon="2.30146">
        <ele>5</ele>
        <time>2025-10-01T13:19:42Z</time>
      </trkpt>
      <trkpt lat="50.76826" lon="2.30146">
        <ele>5</ele>
        <time>2025-10-01T13:19:43Z</time>
      </trkpt>
      <trkpt lat="50.76826" lon="2.30145">
        <ele>5</ele>
        <time>2025-10-01T13:19:44Z</time>
      </trkpt>
      <trkpt lat="50.76827" lon="2.30146">
        <ele>5</ele>
        <time>2025-10-01T13:19:45Z</time>
      </trkpt>
      <trkpt lat="50.76828" lon="2.30146">
        <ele>5</ele>
        <time>2025-10-01T13:19:46Z</time>
      </trkpt>
      <trkpt lat="50.76829" lon="2.30146">
        <ele>5</ele>
        <time>2025-10-01T13:19:47Z</time>
      </trkpt>
      <trkpt lat="50.7683" lon="2.30146">
        <ele>5</ele>
        <time>2025-10-01T13:19:48Z</time>
      </trkpt>
      <trkpt lat="50.76831" lon="2.30147">
        <ele>5.2</ele>
        <time>2025-10-01T13:19:49Z</time>
      </trkpt>
      <trkpt lat="50.76833" lon="2.30148">
        <ele>5.2</ele>
        <time>2025-10-01T13:19:51Z</time>
      </trkpt>
      <trkpt lat="50.76835" lon="2.30149">
        <ele>5.2</ele>
        <time>2025-10-01T13:19:52Z</time>
      </trkpt>
      <trkpt lat="50.76841" lon="2.30153">
        <ele>5.2</ele>
        <time>2025-10-01T13:19:57Z</time>
      </trkpt>
      <trkpt lat="50.76848" lon="2.30157">
        <ele>5.2</ele>
        <time>2025-10-01T13:20:04Z</time>
      </trkpt>
      <trkpt lat="50.76849" lon="2.30158">
        <ele>5.2</ele>
        <time>2025-10-01T13:20:05Z</time>
      </trkpt>
      <trkpt lat="50.7685" lon="2.30159">
        <ele>5.2</ele>
        <time>2025-10-01T13:20:06Z</time>
      </trkpt>
      <trkpt lat="50.76855" lon="2.30165">
        <ele>5.2</ele>
        <time>2025-10-01T13:20:10Z</time>
      </trkpt>
      <trkpt lat="50.76856" lon="2.30166">
        <ele>5.2</ele>
        <time>2025-10-01T13:20:11Z</time>
      </trkpt>
      <trkpt lat="50.76857" lon="2.30167">
        <ele>5.2</ele>
        <time>2025-10-01T13:20:12Z</time>
      </trkpt>
      <trkpt lat="50.76858" lon="2.30168">
        <ele>5.2</ele>
        <time>2025-10-01T13:20:13Z</time>
      </trkpt>
      <trkpt lat="50.76864" lon="2.30172">
        <ele>5.4</ele>
        <time>2025-10-01T13:20:17Z</time>
      </trkpt>
      <trkpt lat="50.76867" lon="2.30173">
        <ele>5.4</ele>
        <time>2025-10-01T13:20:20Z</time>
      </trkpt>
      <trkpt lat="50.76868" lon="2.30173">
        <ele>5.4</ele>
        <time>2025-10-01T13:20:21Z</time>
      </trkpt>
      <trkpt lat="50.76869" lon="2.30173">
        <ele>5.4</ele>
        <time>2025-10-01T13:20:22Z</time>
      </trkpt>
      <trkpt lat="50.7687" lon="2.30171">
        <ele>5.4</ele>
        <time>2025-10-01T13:20:23Z</time>
      </trkpt>
      <trkpt lat="50.76872" lon="2.30171">
        <ele>5.4</ele>
        <time>2025-10-01T13:20:24Z</time>
      </trkpt>
      <trkpt lat="50.76873" lon="2.3017">
        <ele>5.4</ele>
        <time>2025-10-01T13:20:25Z</time>
      </trkpt>
      <trkpt lat="50.76874" lon="2.30169">
        <ele>5.4</ele>
        <time>2025-10-01T13:20:26Z</time>
      </trkpt>
      <trkpt lat="50.76875" lon="2.30168">
        <ele>5.4</ele>
        <time>2025-10-01T13:20:27Z</time>
      </trkpt>
      <trkpt lat="50.76876" lon="2.30167">
        <ele>5.4</ele>
        <time>2025-10-01T13:20:28Z</time>
      </trkpt>
      <trkpt lat="50.76877" lon="2.30166">
        <ele>5.4</ele>
        <time>2025-10-01T13:20:29Z</time>
      </trkpt>
      <trkpt lat="50.76878" lon="2.30164">
        <ele>5.4</ele>
        <time>2025-10-01T13:20:30Z</time>
      </trkpt>
      <trkpt lat="50.76882" lon="2.30156">
        <ele>5.4</ele>
        <time>2025-10-01T13:20:34Z</time>
      </trkpt>
      <trkpt lat="50.76884" lon="2.30155">
        <ele>5.4</ele>
        <time>2025-10-01T13:20:35Z</time>
      </trkpt>
      <trkpt lat="50.76888" lon="2.30148">
        <ele>5.4</ele>
        <time>2025-10-01T13:20:41Z</time>
      </trkpt>
      <trkpt lat="50.76889" lon="2.30147">
        <ele>5.4</ele>
        <time>2025-10-01T13:20:42Z</time>
      </trkpt>
      <trkpt lat="50.76892" lon="2.30145">
        <ele>5.2</ele>
        <time>2025-10-01T13:20:44Z</time>
      </trkpt>
      <trkpt lat="50.76893" lon="2.30143">
        <ele>5.2</ele>
        <time>2025-10-01T13:20:45Z</time>
      </trkpt>
      <trkpt lat="50.76894" lon="2.30141">
        <ele>5.2</ele>
        <time>2025-10-01T13:20:47Z</time>
      </trkpt>
      <trkpt lat="50.76895" lon="2.30141">
        <ele>5.2</ele>
        <time>2025-10-01T13:20:48Z</time>
      </trkpt>
      <trkpt lat="50.76896" lon="2.3014">
        <ele>5.2</ele>
        <time>2025-10-01T13:20:49Z</time>
      </trkpt>
      <trkpt lat="50.76897" lon="2.30138">
        <ele>5.2</ele>
        <time>2025-10-01T13:20:50Z</time>
      </trkpt>
      <trkpt lat="50.76899" lon="2.30137">
        <ele>5.2</ele>
        <time>2025-10-01T13:20:52Z</time>
      </trkpt>
      <trkpt lat="50.769" lon="2.30136">
        <ele>5.2</ele>
        <time>2025-10-01T13:20:53Z</time>
      </trkpt>
      <trkpt lat="50.76901" lon="2.30135">
        <ele>5.2</ele>
        <time>2025-10-01T13:20:54Z</time>
      </trkpt>
      <trkpt lat="50.76902" lon="2.30134">
        <ele>5.2</ele>
        <time>2025-10-01T13:20:55Z</time>
      </trkpt>
      <trkpt lat="50.76903" lon="2.30132">
        <ele>5.2</ele>
        <time>2025-10-01T13:20:56Z</time>
      </trkpt>
      <trkpt lat="50.76903" lon="2.30131">
        <ele>5.2</ele>
        <time>2025-10-01T13:20:57Z</time>
      </trkpt>
      <trkpt lat="50.76905" lon="2.30129">
        <ele>5.2</ele>
        <time>2025-10-01T13:20:58Z</time>
      </trkpt>
      <trkpt lat="50.76909" lon="2.30122">
        <ele>5</ele>
        <time>2025-10-01T13:21:02Z</time>
      </trkpt>
      <trkpt lat="50.7691" lon="2.30121">
        <ele>5</ele>
        <time>2025-10-01T13:21:03Z</time>
      </trkpt>
      <trkpt lat="50.7691" lon="2.30121">
        <ele>5</ele>
        <time>2025-10-01T13:21:04Z</time>
      </trkpt>
      <trkpt lat="50.76911" lon="2.3012">
        <ele>5.2</ele>
        <time>2025-10-01T13:21:05Z</time>
      </trkpt>
      <trkpt lat="50.76913" lon="2.30119">
        <ele>5.2</ele>
        <time>2025-10-01T13:21:06Z</time>
      </trkpt>
      <trkpt lat="50.7692" lon="2.30116">
        <ele>5.2</ele>
        <time>2025-10-01T13:21:10Z</time>
      </trkpt>
      <trkpt lat="50.76921" lon="2.30116">
        <ele>5.2</ele>
        <time>2025-10-01T13:21:11Z</time>
      </trkpt>
      <trkpt lat="50.76922" lon="2.30115">
        <ele>5.2</ele>
        <time>2025-10-01T13:21:12Z</time>
      </trkpt>
      <trkpt lat="50.76924" lon="2.30114">
        <ele>5.2</ele>
        <time>2025-10-01T13:21:13Z</time>
      </trkpt>
      <trkpt lat="50.76924" lon="2.30113">
        <ele>5.2</ele>
        <time>2025-10-01T13:21:14Z</time>
      </trkpt>
      <trkpt lat="50.76926" lon="2.30113">
        <ele>5.2</ele>
        <time>2025-10-01T13:21:15Z</time>
      </trkpt>
      <trkpt lat="50.76929" lon="2.30113">
        <ele>5.2</ele>
        <time>2025-10-01T13:21:17Z</time>
      </trkpt>
      <trkpt lat="50.76931" lon="2.30113">
        <ele>5.2</ele>
        <time>2025-10-01T13:21:18Z</time>
      </trkpt>
      <trkpt lat="50.76932" lon="2.30113">
        <ele>5.2</ele>
        <time>2025-10-01T13:21:19Z</time>
      </trkpt>
      <trkpt lat="50.76933" lon="2.30112">
        <ele>5.2</ele>
        <time>2025-10-01T13:21:20Z</time>
      </trkpt>
      <trkpt lat="50.76934" lon="2.30111">
        <ele>5.2</ele>
        <time>2025-10-01T13:21:21Z</time>
      </trkpt>
      <trkpt lat="50.76935" lon="2.3011">
        <ele>5.2</ele>
        <time>2025-10-01T13:21:22Z</time>
      </trkpt>
      <trkpt lat="50.76936" lon="2.30109">
        <ele>5.2</ele>
        <time>2025-10-01T13:21:23Z</time>
      </trkpt>
      <trkpt lat="50.76937" lon="2.30109">
        <ele>5.2</ele>
        <time>2025-10-01T13:21:24Z</time>
      </trkpt>
      <trkpt lat="50.76941" lon="2.30109">
        <ele>5.2</ele>
        <time>2025-10-01T13:21:27Z</time>
      </trkpt>
      <trkpt lat="50.76942" lon="2.30109">
        <ele>5.2</ele>
        <time>2025-10-01T13:21:28Z</time>
      </trkpt>
      <trkpt lat="50.76943" lon="2.30109">
        <ele>5.2</ele>
        <time>2025-10-01T13:21:29Z</time>
      </trkpt>
      <trkpt lat="50.76944" lon="2.30108">
        <ele>5.2</ele>
        <time>2025-10-01T13:21:30Z</time>
      </trkpt>
      <trkpt lat="50.76946" lon="2.30108">
        <ele>5.2</ele>
        <time>2025-10-01T13:21:31Z</time>
      </trkpt>
      <trkpt lat="50.7695" lon="2.30109">
        <ele>5.2</ele>
        <time>2025-10-01T13:21:33Z</time>
      </trkpt>
      <trkpt lat="50.76951" lon="2.30109">
        <ele>5.2</ele>
        <time>2025-10-01T13:21:34Z</time>
      </trkpt>
      <trkpt lat="50.76952" lon="2.30109">
        <ele>5.4</ele>
        <time>2025-10-01T13:21:35Z</time>
      </trkpt>
      <trkpt lat="50.76953" lon="2.30109">
        <ele>5.4</ele>
        <time>2025-10-01T13:21:36Z</time>
      </trkpt>
      <trkpt lat="50.76954" lon="2.30108">
        <ele>5.4</ele>
        <time>2025-10-01T13:21:37Z</time>
      </trkpt>
      <trkpt lat="50.76955" lon="2.30108">
        <ele>5.4</ele>
        <time>2025-10-01T13:21:38Z</time>
      </trkpt>
      <trkpt lat="50.76957" lon="2.30108">
        <ele>5.4</ele>
        <time>2025-10-01T13:21:39Z</time>
      </trkpt>
      <trkpt lat="50.76963" lon="2.30108">
        <ele>5.4</ele>
        <time>2025-10-01T13:21:42Z</time>
      </trkpt>
      <trkpt lat="50.76964" lon="2.30107">
        <ele>5.4</ele>
        <time>2025-10-01T13:21:43Z</time>
      </trkpt>
      <trkpt lat="50.76964" lon="2.30107">
        <ele>5.6</ele>
        <time>2025-10-01T13:21:44Z</time>
      </trkpt>
      <trkpt lat="50.76965" lon="2.30107">
        <ele>5.6</ele>
        <time>2025-10-01T13:21:45Z</time>
      </trkpt>
      <trkpt lat="50.76966" lon="2.30107">
        <ele>5.6</ele>
        <time>2025-10-01T13:21:46Z</time>
      </trkpt>
      <trkpt lat="50.76966" lon="2.30107">
        <ele>5.6</ele>
        <time>2025-10-01T13:21:47Z</time>
      </trkpt>
      <trkpt lat="50.76967" lon="2.30107">
        <ele>5.6</ele>
        <time>2025-10-01T13:21:48Z</time>
      </trkpt>
      <trkpt lat="50.76968" lon="2.30106">
        <ele>5.6</ele>
        <time>2025-10-01T13:21:49Z</time>
      </trkpt>
      <trkpt lat="50.76969" lon="2.30106">
        <ele>5.6</ele>
        <time>2025-10-01T13:21:50Z</time>
      </trkpt>
      <trkpt lat="50.7697" lon="2.30105">
        <ele>5.8</ele>
        <time>2025-10-01T13:21:51Z</time>
      </trkpt>
      <trkpt lat="50.76971" lon="2.30104">
        <ele>5.8</ele>
        <time>2025-10-01T13:21:52Z</time>
      </trkpt>
      <trkpt lat="50.76975" lon="2.30099">
        <ele>5.8</ele>
        <time>2025-10-01T13:21:55Z</time>
      </trkpt>
      <trkpt lat="50.76976" lon="2.30096">
        <ele>6</ele>
        <time>2025-10-01T13:21:56Z</time>
      </trkpt>
      <trkpt lat="50.76979" lon="2.30089">
        <ele>6</ele>
        <time>2025-10-01T13:21:59Z</time>
      </trkpt>
      <trkpt lat="50.7698" lon="2.30086">
        <ele>6</ele>
        <time>2025-10-01T13:22:01Z</time>
      </trkpt>
      <trkpt lat="50.7698" lon="2.30086">
        <ele>6</ele>
        <time>2025-10-01T13:22:02Z</time>
      </trkpt>
      <trkpt lat="50.7698" lon="2.30086">
        <ele>6</ele>
        <time>2025-10-01T13:22:03Z</time>
      </trkpt>
      <trkpt lat="50.76981" lon="2.30085">
        <ele>6</ele>
        <time>2025-10-01T13:22:04Z</time>
      </trkpt>
      <trkpt lat="50.76981" lon="2.30082">
        <ele>6</ele>
        <time>2025-10-01T13:22:05Z</time>
      </trkpt>
      <trkpt lat="50.76982" lon="2.30079">
        <ele>6</ele>
        <time>2025-10-01T13:22:06Z</time>
      </trkpt>
      <trkpt lat="50.76983" lon="2.30072">
        <ele>6</ele>
        <time>2025-10-01T13:22:08Z</time>
      </trkpt>
      <trkpt lat="50.76985" lon="2.30068">
        <ele>6</ele>
        <time>2025-10-01T13:22:10Z</time>
      </trkpt>
      <trkpt lat="50.76985" lon="2.30067">
        <ele>5.8</ele>
        <time>2025-10-01T13:22:11Z</time>
      </trkpt>
      <trkpt lat="50.76986" lon="2.30067">
        <ele>5.8</ele>
        <time>2025-10-01T13:22:12Z</time>
      </trkpt>
      <trkpt lat="50.76986" lon="2.30067">
        <ele>5.8</ele>
        <time>2025-10-01T13:22:13Z</time>
      </trkpt>
      <trkpt lat="50.76987" lon="2.30066">
        <ele>5.8</ele>
        <time>2025-10-01T13:22:14Z</time>
      </trkpt>
      <trkpt lat="50.76987" lon="2.30063">
        <ele>5.8</ele>
        <time>2025-10-01T13:22:15Z</time>
      </trkpt>
      <trkpt lat="50.76988" lon="2.30061">
        <ele>5.6</ele>
        <time>2025-10-01T13:22:16Z</time>
      </trkpt>
      <trkpt lat="50.76991" lon="2.30052">
        <ele>5.4</ele>
        <time>2025-10-01T13:22:20Z</time>
      </trkpt>
      <trkpt lat="50.76992" lon="2.30051">
        <ele>5.4</ele>
        <time>2025-10-01T13:22:21Z</time>
      </trkpt>
      <trkpt lat="50.76993" lon="2.30049">
        <ele>5.4</ele>
        <time>2025-10-01T13:22:22Z</time>
      </trkpt>
      <trkpt lat="50.76995" lon="2.30044">
        <ele>5.2</ele>
        <time>2025-10-01T13:22:25Z</time>
      </trkpt>
      <trkpt lat="50.76997" lon="2.30043">
        <ele>5.2</ele>
        <time>2025-10-01T13:22:26Z</time>
      </trkpt>
      <trkpt lat="50.76999" lon="2.30042">
        <ele>5.2</ele>
        <time>2025-10-01T13:22:27Z</time>
      </trkpt>
      <trkpt lat="50.77" lon="2.30041">
        <ele>5.2</ele>
        <time>2025-10-01T13:22:28Z</time>
      </trkpt>
      <trkpt lat="50.77001" lon="2.30041">
        <ele>5</ele>
        <time>2025-10-01T13:22:29Z</time>
      </trkpt>
      <trkpt lat="50.77001" lon="2.3004">
        <ele>5</ele>
        <time>2025-10-01T13:22:30Z</time>
      </trkpt>
      <trkpt lat="50.77002" lon="2.3004">
        <ele>5</ele>
        <time>2025-10-01T13:22:31Z</time>
      </trkpt>
      <trkpt lat="50.77003" lon="2.30039">
        <ele>5</ele>
        <time>2025-10-01T13:22:32Z</time>
      </trkpt>
      <trkpt lat="50.77009" lon="2.30038">
        <ele>4.8</ele>
        <time>2025-10-01T13:22:35Z</time>
      </trkpt>
      <trkpt lat="50.7701" lon="2.30037">
        <ele>4.8</ele>
        <time>2025-10-01T13:22:36Z</time>
      </trkpt>
      <trkpt lat="50.77011" lon="2.30037">
        <ele>4.8</ele>
        <time>2025-10-01T13:22:37Z</time>
      </trkpt>
      <trkpt lat="50.77011" lon="2.30037">
        <ele>4.6</ele>
        <time>2025-10-01T13:22:38Z</time>
      </trkpt>
      <trkpt lat="50.77012" lon="2.30037">
        <ele>4.6</ele>
        <time>2025-10-01T13:22:39Z</time>
      </trkpt>
      <trkpt lat="50.77014" lon="2.30037">
        <ele>4.6</ele>
        <time>2025-10-01T13:22:40Z</time>
      </trkpt>
      <trkpt lat="50.77017" lon="2.30035">
        <ele>4.6</ele>
        <time>2025-10-01T13:22:42Z</time>
      </trkpt>
      <trkpt lat="50.77018" lon="2.30034">
        <ele>4.6</ele>
        <time>2025-10-01T13:22:43Z</time>
      </trkpt>
      <trkpt lat="50.7702" lon="2.30034">
        <ele>4.6</ele>
        <time>2025-10-01T13:22:44Z</time>
      </trkpt>
      <trkpt lat="50.77021" lon="2.30034">
        <ele>4.6</ele>
        <time>2025-10-01T13:22:45Z</time>
      </trkpt>
      <trkpt lat="50.77022" lon="2.30033">
        <ele>4.6</ele>
        <time>2025-10-01T13:22:46Z</time>
      </trkpt>
      <trkpt lat="50.77023" lon="2.30033">
        <ele>4.6</ele>
        <time>2025-10-01T13:22:47Z</time>
      </trkpt>
      <trkpt lat="50.77025" lon="2.30034">
        <ele>4.6</ele>
        <time>2025-10-01T13:22:48Z</time>
      </trkpt>
      <trkpt lat="50.77029" lon="2.30034">
        <ele>4.6</ele>
        <time>2025-10-01T13:22:52Z</time>
      </trkpt>
      <trkpt lat="50.77031" lon="2.30034">
        <ele>4.6</ele>
        <time>2025-10-01T13:22:53Z</time>
      </trkpt>
      <trkpt lat="50.77032" lon="2.30034">
        <ele>4.6</ele>
        <time>2025-10-01T13:22:54Z</time>
      </trkpt>
      <trkpt lat="50.77035" lon="2.30033">
        <ele>4.6</ele>
        <time>2025-10-01T13:22:56Z</time>
      </trkpt>
      <trkpt lat="50.77037" lon="2.30033">
        <ele>4.6</ele>
        <time>2025-10-01T13:22:57Z</time>
      </trkpt>
      <trkpt lat="50.77038" lon="2.30033">
        <ele>4.6</ele>
        <time>2025-10-01T13:22:58Z</time>
      </trkpt>
      <trkpt lat="50.77048" lon="2.30035">
        <ele>4.4</ele>
        <time>2025-10-01T13:23:06Z</time>
      </trkpt>
      <trkpt lat="50.7705" lon="2.30037">
        <ele>4.4</ele>
        <time>2025-10-01T13:23:07Z</time>
      </trkpt>
      <trkpt lat="50.7705" lon="2.3004">
        <ele>4.4</ele>
        <time>2025-10-01T13:23:08Z</time>
      </trkpt>
      <trkpt lat="50.77051" lon="2.30042">
        <ele>4.4</ele>
        <time>2025-10-01T13:23:09Z</time>
      </trkpt>
      <trkpt lat="50.77052" lon="2.30044">
        <ele>4.4</ele>
        <time>2025-10-01T13:23:10Z</time>
      </trkpt>
      <trkpt lat="50.77052" lon="2.30046">
        <ele>4.4</ele>
        <time>2025-10-01T13:23:11Z</time>
      </trkpt>
      <trkpt lat="50.77053" lon="2.30048">
        <ele>4.4</ele>
        <time>2025-10-01T13:23:12Z</time>
      </trkpt>
      <trkpt lat="50.77055" lon="2.30055">
        <ele>4.4</ele>
        <time>2025-10-01T13:23:16Z</time>
      </trkpt>
      <trkpt lat="50.77055" lon="2.30056">
        <ele>4.4</ele>
        <time>2025-10-01T13:23:17Z</time>
      </trkpt>
      <trkpt lat="50.77056" lon="2.30058">
        <ele>4.4</ele>
        <time>2025-10-01T13:23:18Z</time>
      </trkpt>
      <trkpt lat="50.77057" lon="2.3006">
        <ele>4.4</ele>
        <time>2025-10-01T13:23:19Z</time>
      </trkpt>
      <trkpt lat="50.77057" lon="2.30062">
        <ele>4.4</ele>
        <time>2025-10-01T13:23:20Z</time>
      </trkpt>
      <trkpt lat="50.77058" lon="2.30064">
        <ele>4.4</ele>
        <time>2025-10-01T13:23:21Z</time>
      </trkpt>
      <trkpt lat="50.77058" lon="2.30066">
        <ele>4.4</ele>
        <time>2025-10-01T13:23:22Z</time>
      </trkpt>
      <trkpt lat="50.77059" lon="2.30067">
        <ele>4.4</ele>
        <time>2025-10-01T13:23:23Z</time>
      </trkpt>
      <trkpt lat="50.77062" lon="2.30076">
        <ele>4.6</ele>
        <time>2025-10-01T13:23:27Z</time>
      </trkpt>
      <trkpt lat="50.77062" lon="2.30077">
        <ele>4.6</ele>
        <time>2025-10-01T13:23:28Z</time>
      </trkpt>
      <trkpt lat="50.77064" lon="2.30082">
        <ele>4.6</ele>
        <time>2025-10-01T13:23:31Z</time>
      </trkpt>
      <trkpt lat="50.77065" lon="2.30084">
        <ele>4.6</ele>
        <time>2025-10-01T13:23:32Z</time>
      </trkpt>
      <trkpt lat="50.77065" lon="2.30086">
        <ele>4.6</ele>
        <time>2025-10-01T13:23:33Z</time>
      </trkpt>
      <trkpt lat="50.77066" lon="2.30087">
        <ele>4.8</ele>
        <time>2025-10-01T13:23:34Z</time>
      </trkpt>
      <trkpt lat="50.77066" lon="2.30089">
        <ele>4.8</ele>
        <time>2025-10-01T13:23:35Z</time>
      </trkpt>
      <trkpt lat="50.77067" lon="2.30091">
        <ele>4.8</ele>
        <time>2025-10-01T13:23:36Z</time>
      </trkpt>
      <trkpt lat="50.77067" lon="2.30093">
        <ele>5</ele>
        <time>2025-10-01T13:23:37Z</time>
      </trkpt>
      <trkpt lat="50.77067" lon="2.30094">
        <ele>5</ele>
        <time>2025-10-01T13:23:38Z</time>
      </trkpt>
      <trkpt lat="50.77068" lon="2.30096">
        <ele>5</ele>
        <time>2025-10-01T13:23:39Z</time>
      </trkpt>
      <trkpt lat="50.77069" lon="2.30099">
        <ele>5</ele>
        <time>2025-10-01T13:23:40Z</time>
      </trkpt>
      <trkpt lat="50.77069" lon="2.30102">
        <ele>5</ele>
        <time>2025-10-01T13:23:41Z</time>
      </trkpt>
      <trkpt lat="50.7707" lon="2.30105">
        <ele>5</ele>
        <time>2025-10-01T13:23:42Z</time>
      </trkpt>
      <trkpt lat="50.77071" lon="2.30107">
        <ele>5</ele>
        <time>2025-10-01T13:23:43Z</time>
      </trkpt>
      <trkpt lat="50.77071" lon="2.30109">
        <ele>5</ele>
        <time>2025-10-01T13:23:44Z</time>
      </trkpt>
      <trkpt lat="50.77071" lon="2.3011">
        <ele>5</ele>
        <time>2025-10-01T13:23:45Z</time>
      </trkpt>
      <trkpt lat="50.77072" lon="2.30111">
        <ele>5.2</ele>
        <time>2025-10-01T13:23:46Z</time>
      </trkpt>
      <trkpt lat="50.77073" lon="2.30112">
        <ele>5.2</ele>
        <time>2025-10-01T13:23:47Z</time>
      </trkpt>
      <trkpt lat="50.77075" lon="2.30121">
        <ele>5.2</ele>
        <time>2025-10-01T13:23:50Z</time>
      </trkpt>
      <trkpt lat="50.77075" lon="2.30124">
        <ele>5.2</ele>
        <time>2025-10-01T13:23:51Z</time>
      </trkpt>
      <trkpt lat="50.77075" lon="2.30125">
        <ele>5.2</ele>
        <time>2025-10-01T13:23:52Z</time>
      </trkpt>
      <trkpt lat="50.77076" lon="2.30126">
        <ele>5.2</ele>
        <time>2025-10-01T13:23:53Z</time>
      </trkpt>
      <trkpt lat="50.77076" lon="2.30127">
        <ele>5.4</ele>
        <time>2025-10-01T13:23:54Z</time>
      </trkpt>
      <trkpt lat="50.77077" lon="2.30129">
        <ele>5.4</ele>
        <time>2025-10-01T13:23:55Z</time>
      </trkpt>
      <trkpt lat="50.77078" lon="2.30131">
        <ele>5.4</ele>
        <time>2025-10-01T13:23:56Z</time>
      </trkpt>
      <trkpt lat="50.77078" lon="2.30134">
        <ele>5.6</ele>
        <time>2025-10-01T13:23:57Z</time>
      </trkpt>
      <trkpt lat="50.77079" lon="2.30138">
        <ele>5.6</ele>
        <time>2025-10-01T13:23:59Z</time>
      </trkpt>
      <trkpt lat="50.7708" lon="2.30139">
        <ele>5.6</ele>
        <time>2025-10-01T13:24:00Z</time>
      </trkpt>
      <trkpt lat="50.7708" lon="2.30141">
        <ele>5.6</ele>
        <time>2025-10-01T13:24:01Z</time>
      </trkpt>
      <trkpt lat="50.77081" lon="2.30143">
        <ele>5.6</ele>
        <time>2025-10-01T13:24:02Z</time>
      </trkpt>
      <trkpt lat="50.77081" lon="2.30145">
        <ele>5.8</ele>
        <time>2025-10-01T13:24:03Z</time>
      </trkpt>
      <trkpt lat="50.77083" lon="2.3015">
        <ele>5.8</ele>
        <time>2025-10-01T13:24:05Z</time>
      </trkpt>
      <trkpt lat="50.77083" lon="2.30151">
        <ele>5.8</ele>
        <time>2025-10-01T13:24:06Z</time>
      </trkpt>
      <trkpt lat="50.77084" lon="2.30151">
        <ele>5.8</ele>
        <time>2025-10-01T13:24:07Z</time>
      </trkpt>
      <trkpt lat="50.77084" lon="2.30152">
        <ele>6</ele>
        <time>2025-10-01T13:24:08Z</time>
      </trkpt>
      <trkpt lat="50.77084" lon="2.30153">
        <ele>6</ele>
        <time>2025-10-01T13:24:09Z</time>
      </trkpt>
      <trkpt lat="50.77085" lon="2.30156">
        <ele>6</ele>
        <time>2025-10-01T13:24:10Z</time>
      </trkpt>
      <trkpt lat="50.77085" lon="2.30162">
        <ele>6</ele>
        <time>2025-10-01T13:24:12Z</time>
      </trkpt>
      <trkpt lat="50.77086" lon="2.30163">
        <ele>6.2</ele>
        <time>2025-10-01T13:24:13Z</time>
      </trkpt>
      <trkpt lat="50.77086" lon="2.30164">
        <ele>6.2</ele>
        <time>2025-10-01T13:24:14Z</time>
      </trkpt>
      <trkpt lat="50.77087" lon="2.30165">
        <ele>6.2</ele>
        <time>2025-10-01T13:24:15Z</time>
      </trkpt>
      <trkpt lat="50.77087" lon="2.30167">
        <ele>6.2</ele>
        <time>2025-10-01T13:24:16Z</time>
      </trkpt>
      <trkpt lat="50.77088" lon="2.3017">
        <ele>6.2</ele>
        <time>2025-10-01T13:24:17Z</time>
      </trkpt>
      <trkpt lat="50.77089" lon="2.30173">
        <ele>6.4</ele>
        <time>2025-10-01T13:24:18Z</time>
      </trkpt>
      <trkpt lat="50.77089" lon="2.30175">
        <ele>6.4</ele>
        <time>2025-10-01T13:24:19Z</time>
      </trkpt>
      <trkpt lat="50.7709" lon="2.30177">
        <ele>6.4</ele>
        <time>2025-10-01T13:24:20Z</time>
      </trkpt>
      <trkpt lat="50.7709" lon="2.30179">
        <ele>6.4</ele>
        <time>2025-10-01T13:24:21Z</time>
      </trkpt>
      <trkpt lat="50.77091" lon="2.30181">
        <ele>6.4</ele>
        <time>2025-10-01T13:24:22Z</time>
      </trkpt>
      <trkpt lat="50.77091" lon="2.30183">
        <ele>6.6</ele>
        <time>2025-10-01T13:24:23Z</time>
      </trkpt>
      <trkpt lat="50.77092" lon="2.30185">
        <ele>6.6</ele>
        <time>2025-10-01T13:24:24Z</time>
      </trkpt>
      <trkpt lat="50.77093" lon="2.3019">
        <ele>6.6</ele>
        <time>2025-10-01T13:24:26Z</time>
      </trkpt>
      <trkpt lat="50.77093" lon="2.30194">
        <ele>6.6</ele>
        <time>2025-10-01T13:24:27Z</time>
      </trkpt>
      <trkpt lat="50.77094" lon="2.30199">
        <ele>6.8</ele>
        <time>2025-10-01T13:24:29Z</time>
      </trkpt>
      <trkpt lat="50.77094" lon="2.302">
        <ele>6.8</ele>
        <time>2025-10-01T13:24:30Z</time>
      </trkpt>
      <trkpt lat="50.77095" lon="2.30202">
        <ele>6.8</ele>
        <time>2025-10-01T13:24:31Z</time>
      </trkpt>
      <trkpt lat="50.77096" lon="2.30203">
        <ele>6.8</ele>
        <time>2025-10-01T13:24:32Z</time>
      </trkpt>
      <trkpt lat="50.77096" lon="2.30203">
        <ele>7</ele>
        <time>2025-10-01T13:24:33Z</time>
      </trkpt>
      <trkpt lat="50.77097" lon="2.30205">
        <ele>7</ele>
        <time>2025-10-01T13:24:34Z</time>
      </trkpt>
      <trkpt lat="50.77098" lon="2.30207">
        <ele>7</ele>
        <time>2025-10-01T13:24:35Z</time>
      </trkpt>
      <trkpt lat="50.771" lon="2.30212">
        <ele>7.2</ele>
        <time>2025-10-01T13:24:37Z</time>
      </trkpt>
      <trkpt lat="50.771" lon="2.30214">
        <ele>7.2</ele>
        <time>2025-10-01T13:24:38Z</time>
      </trkpt>
      <trkpt lat="50.77101" lon="2.30215">
        <ele>7.2</ele>
        <time>2025-10-01T13:24:39Z</time>
      </trkpt>
      <trkpt lat="50.77101" lon="2.30217">
        <ele>7.4</ele>
        <time>2025-10-01T13:24:40Z</time>
      </trkpt>
      <trkpt lat="50.77102" lon="2.30218">
        <ele>7.4</ele>
        <time>2025-10-01T13:24:41Z</time>
      </trkpt>
      <trkpt lat="50.77102" lon="2.30219">
        <ele>7.4</ele>
        <time>2025-10-01T13:24:42Z</time>
      </trkpt>
      <trkpt lat="50.77104" lon="2.30227">
        <ele>7.4</ele>
        <time>2025-10-01T13:24:45Z</time>
      </trkpt>
      <trkpt lat="50.77104" lon="2.30228">
        <ele>7.6</ele>
        <time>2025-10-01T13:24:47Z</time>
      </trkpt>
      <trkpt lat="50.77104" lon="2.30228">
        <ele>7.6</ele>
        <time>2025-10-01T13:24:48Z</time>
      </trkpt>
      <trkpt lat="50.77105" lon="2.30229">
        <ele>7.6</ele>
        <time>2025-10-01T13:24:49Z</time>
      </trkpt>
      <trkpt lat="50.77105" lon="2.30229">
        <ele>7.6</ele>
        <time>2025-10-01T13:24:50Z</time>
      </trkpt>
      <trkpt lat="50.77106" lon="2.30234">
        <ele>7.6</ele>
        <time>2025-10-01T13:24:52Z</time>
      </trkpt>
      <trkpt lat="50.77106" lon="2.30236">
        <ele>7.6</ele>
        <time>2025-10-01T13:24:53Z</time>
      </trkpt>
      <trkpt lat="50.77106" lon="2.30238">
        <ele>7.6</ele>
        <time>2025-10-01T13:24:54Z</time>
      </trkpt>
      <trkpt lat="50.77106" lon="2.3024">
        <ele>7.6</ele>
        <time>2025-10-01T13:24:55Z</time>
      </trkpt>
      <trkpt lat="50.77106" lon="2.30242">
        <ele>7.8</ele>
        <time>2025-10-01T13:24:56Z</time>
      </trkpt>
      <trkpt lat="50.77106" lon="2.30242">
        <ele>7.8</ele>
        <time>2025-10-01T13:24:57Z</time>
      </trkpt>
      <trkpt lat="50.77107" lon="2.30243">
        <ele>7.8</ele>
        <time>2025-10-01T13:24:58Z</time>
      </trkpt>
      <trkpt lat="50.77109" lon="2.3025">
        <ele>7.8</ele>
        <time>2025-10-01T13:25:02Z</time>
      </trkpt>
      <trkpt lat="50.77113" lon="2.30264">
        <ele>8.2</ele>
        <time>2025-10-01T13:25:08Z</time>
      </trkpt>
      <trkpt lat="50.77114" lon="2.30267">
        <ele>8.2</ele>
        <time>2025-10-01T13:25:10Z</time>
      </trkpt>
      <trkpt lat="50.77115" lon="2.30269">
        <ele>8.4</ele>
        <time>2025-10-01T13:25:11Z</time>
      </trkpt>
      <trkpt lat="50.77115" lon="2.30271">
        <ele>8.4</ele>
        <time>2025-10-01T13:25:12Z</time>
      </trkpt>
      <trkpt lat="50.77115" lon="2.30273">
        <ele>8.4</ele>
        <time>2025-10-01T13:25:13Z</time>
      </trkpt>
      <trkpt lat="50.77116" lon="2.30275">
        <ele>8.6</ele>
        <time>2025-10-01T13:25:14Z</time>
      </trkpt>
      <trkpt lat="50.77116" lon="2.30277">
        <ele>8.6</ele>
        <time>2025-10-01T13:25:15Z</time>
      </trkpt>
      <trkpt lat="50.77117" lon="2.30279">
        <ele>8.6</ele>
        <time>2025-10-01T13:25:16Z</time>
      </trkpt>
      <trkpt lat="50.77118" lon="2.30281">
        <ele>8.6</ele>
        <time>2025-10-01T13:25:17Z</time>
      </trkpt>
      <trkpt lat="50.77119" lon="2.30283">
        <ele>8.6</ele>
        <time>2025-10-01T13:25:18Z</time>
      </trkpt>
      <trkpt lat="50.77121" lon="2.30288">
        <ele>8.6</ele>
        <time>2025-10-01T13:25:21Z</time>
      </trkpt>
      <trkpt lat="50.77122" lon="2.30289">
        <ele>8.6</ele>
        <time>2025-10-01T13:25:22Z</time>
      </trkpt>
      <trkpt lat="50.77123" lon="2.3029">
        <ele>8.8</ele>
        <time>2025-10-01T13:25:23Z</time>
      </trkpt>
      <trkpt lat="50.77125" lon="2.30289">
        <ele>8.8</ele>
        <time>2025-10-01T13:25:24Z</time>
      </trkpt>
      <trkpt lat="50.77126" lon="2.30288">
        <ele>8.8</ele>
        <time>2025-10-01T13:25:25Z</time>
      </trkpt>
      <trkpt lat="50.77127" lon="2.30287">
        <ele>8.8</ele>
        <time>2025-10-01T13:25:26Z</time>
      </trkpt>
      <trkpt lat="50.77128" lon="2.30286">
        <ele>8.8</ele>
        <time>2025-10-01T13:25:27Z</time>
      </trkpt>
      <trkpt lat="50.7713" lon="2.30285">
        <ele>8.8</ele>
        <time>2025-10-01T13:25:29Z</time>
      </trkpt>
      <trkpt lat="50.77132" lon="2.30283">
        <ele>8.8</ele>
        <time>2025-10-01T13:25:31Z</time>
      </trkpt>
      <trkpt lat="50.77133" lon="2.30282">
        <ele>8.8</ele>
        <time>2025-10-01T13:25:32Z</time>
      </trkpt>
      <trkpt lat="50.77134" lon="2.30281">
        <ele>9</ele>
        <time>2025-10-01T13:25:33Z</time>
      </trkpt>
      <trkpt lat="50.77135" lon="2.3028">
        <ele>9</ele>
        <time>2025-10-01T13:25:34Z</time>
      </trkpt>
      <trkpt lat="50.77136" lon="2.30279">
        <ele>9</ele>
        <time>2025-10-01T13:25:35Z</time>
      </trkpt>
      <trkpt lat="50.77137" lon="2.30277">
        <ele>9</ele>
        <time>2025-10-01T13:25:36Z</time>
      </trkpt>
      <trkpt lat="50.77138" lon="2.30275">
        <ele>9</ele>
        <time>2025-10-01T13:25:37Z</time>
      </trkpt>
      <trkpt lat="50.7714" lon="2.30274">
        <ele>9</ele>
        <time>2025-10-01T13:25:38Z</time>
      </trkpt>
      <trkpt lat="50.77141" lon="2.30272">
        <ele>9</ele>
        <time>2025-10-01T13:25:39Z</time>
      </trkpt>
      <trkpt lat="50.77143" lon="2.30269">
        <ele>9</ele>
        <time>2025-10-01T13:25:41Z</time>
      </trkpt>
      <trkpt lat="50.77145" lon="2.30266">
        <ele>9.2</ele>
        <time>2025-10-01T13:25:43Z</time>
      </trkpt>
      <trkpt lat="50.77147" lon="2.30261">
        <ele>9.2</ele>
        <time>2025-10-01T13:25:46Z</time>
      </trkpt>
      <trkpt lat="50.77148" lon="2.30259">
        <ele>9.2</ele>
        <time>2025-10-01T13:25:47Z</time>
      </trkpt>
      <trkpt lat="50.77151" lon="2.30255">
        <ele>9.2</ele>
        <time>2025-10-01T13:25:49Z</time>
      </trkpt>
      <trkpt lat="50.77152" lon="2.30254">
        <ele>9.2</ele>
        <time>2025-10-01T13:25:50Z</time>
      </trkpt>
      <trkpt lat="50.77152" lon="2.30252">
        <ele>9.2</ele>
        <time>2025-10-01T13:25:51Z</time>
      </trkpt>
      <trkpt lat="50.77154" lon="2.30251">
        <ele>9.2</ele>
        <time>2025-10-01T13:25:52Z</time>
      </trkpt>
      <trkpt lat="50.77155" lon="2.30249">
        <ele>9.2</ele>
        <time>2025-10-01T13:25:53Z</time>
      </trkpt>
      <trkpt lat="50.77157" lon="2.30246">
        <ele>9.2</ele>
        <time>2025-10-01T13:25:55Z</time>
      </trkpt>
      <trkpt lat="50.7716" lon="2.30238">
        <ele>9</ele>
        <time>2025-10-01T13:25:59Z</time>
      </trkpt>
      <trkpt lat="50.77161" lon="2.30236">
        <ele>9</ele>
        <time>2025-10-01T13:26:00Z</time>
      </trkpt>
      <trkpt lat="50.77161" lon="2.30234">
        <ele>9</ele>
        <time>2025-10-01T13:26:01Z</time>
      </trkpt>
      <trkpt lat="50.77162" lon="2.30233">
        <ele>9</ele>
        <time>2025-10-01T13:26:02Z</time>
      </trkpt>
      <trkpt lat="50.77164" lon="2.3023">
        <ele>9</ele>
        <time>2025-10-01T13:26:04Z</time>
      </trkpt>
      <trkpt lat="50.77166" lon="2.30227">
        <ele>8.8</ele>
        <time>2025-10-01T13:26:06Z</time>
      </trkpt>
      <trkpt lat="50.77171" lon="2.3022">
        <ele>9</ele>
        <time>2025-10-01T13:26:10Z</time>
      </trkpt>
      <trkpt lat="50.77171" lon="2.30219">
        <ele>9</ele>
        <time>2025-10-01T13:26:11Z</time>
      </trkpt>
      <trkpt lat="50.77172" lon="2.30218">
        <ele>8.8</ele>
        <time>2025-10-01T13:26:12Z</time>
      </trkpt>
      <trkpt lat="50.77173" lon="2.30216">
        <ele>8.6</ele>
        <time>2025-10-01T13:26:13Z</time>
      </trkpt>
      <trkpt lat="50.77174" lon="2.30214">
        <ele>8.8</ele>
        <time>2025-10-01T13:26:14Z</time>
      </trkpt>
      <trkpt lat="50.77174" lon="2.30213">
        <ele>8.8</ele>
        <time>2025-10-01T13:26:15Z</time>
      </trkpt>
      <trkpt lat="50.77175" lon="2.30211">
        <ele>8.8</ele>
        <time>2025-10-01T13:26:16Z</time>
      </trkpt>
      <trkpt lat="50.77177" lon="2.3021">
        <ele>8.8</ele>
        <time>2025-10-01T13:26:17Z</time>
      </trkpt>
      <trkpt lat="50.77178" lon="2.30207">
        <ele>8.8</ele>
        <time>2025-10-01T13:26:19Z</time>
      </trkpt>
      <trkpt lat="50.77178" lon="2.30207">
        <ele>8.8</ele>
        <time>2025-10-01T13:26:20Z</time>
      </trkpt>
      <trkpt lat="50.77178" lon="2.30206">
        <ele>8.8</ele>
        <time>2025-10-01T13:26:21Z</time>
      </trkpt>
      <trkpt lat="50.77178" lon="2.30206">
        <ele>8.8</ele>
        <time>2025-10-01T13:26:22Z</time>
      </trkpt>
      <trkpt lat="50.7718" lon="2.30204">
        <ele>8.6</ele>
        <time>2025-10-01T13:26:26Z</time>
      </trkpt>
      <trkpt lat="50.77182" lon="2.30201">
        <ele>8.6</ele>
        <time>2025-10-01T13:26:28Z</time>
      </trkpt>
      <trkpt lat="50.77183" lon="2.302">
        <ele>8.6</ele>
        <time>2025-10-01T13:26:29Z</time>
      </trkpt>
      <trkpt lat="50.77193" lon="2.30188">
        <ele>8</ele>
        <time>2025-10-01T13:26:38Z</time>
      </trkpt>
      <trkpt lat="50.77194" lon="2.30187">
        <ele>8</ele>
        <time>2025-10-01T13:26:39Z</time>
      </trkpt>
      <trkpt lat="50.77201" lon="2.30183">
        <ele>8</ele>
        <time>2025-10-01T13:26:44Z</time>
      </trkpt>
      <trkpt lat="50.77202" lon="2.30181">
        <ele>8</ele>
        <time>2025-10-01T13:26:45Z</time>
      </trkpt>
      <trkpt lat="50.77205" lon="2.3018">
        <ele>8</ele>
        <time>2025-10-01T13:26:47Z</time>
      </trkpt>
      <trkpt lat="50.77209" lon="2.30178">
        <ele>7.8</ele>
        <time>2025-10-01T13:26:50Z</time>
      </trkpt>
      <trkpt lat="50.7721" lon="2.30176">
        <ele>7.8</ele>
        <time>2025-10-01T13:26:51Z</time>
      </trkpt>
      <trkpt lat="50.77211" lon="2.30175">
        <ele>7.8</ele>
        <time>2025-10-01T13:26:52Z</time>
      </trkpt>
      <trkpt lat="50.77213" lon="2.30175">
        <ele>7.8</ele>
        <time>2025-10-01T13:26:53Z</time>
      </trkpt>
      <trkpt lat="50.77215" lon="2.30174">
        <ele>7.8</ele>
        <time>2025-10-01T13:26:55Z</time>
      </trkpt>
      <trkpt lat="50.77218" lon="2.30173">
        <ele>7.6</ele>
        <time>2025-10-01T13:26:57Z</time>
      </trkpt>
      <trkpt lat="50.7722" lon="2.30171">
        <ele>7.4</ele>
        <time>2025-10-01T13:26:59Z</time>
      </trkpt>
      <trkpt lat="50.77221" lon="2.30172">
        <ele>7.4</ele>
        <time>2025-10-01T13:27:00Z</time>
      </trkpt>
      <trkpt lat="50.77222" lon="2.30173">
        <ele>7.4</ele>
        <time>2025-10-01T13:27:01Z</time>
      </trkpt>
      <trkpt lat="50.77223" lon="2.30173">
        <ele>7.4</ele>
        <time>2025-10-01T13:27:02Z</time>
      </trkpt>
      <trkpt lat="50.77225" lon="2.30174">
        <ele>7.4</ele>
        <time>2025-10-01T13:27:03Z</time>
      </trkpt>
      <trkpt lat="50.77226" lon="2.30175">
        <ele>7.4</ele>
        <time>2025-10-01T13:27:04Z</time>
      </trkpt>
      <trkpt lat="50.77227" lon="2.30175">
        <ele>7.4</ele>
        <time>2025-10-01T13:27:05Z</time>
      </trkpt>
      <trkpt lat="50.77228" lon="2.30175">
        <ele>7.4</ele>
        <time>2025-10-01T13:27:06Z</time>
      </trkpt>
      <trkpt lat="50.7723" lon="2.30174">
        <ele>7.4</ele>
        <time>2025-10-01T13:27:07Z</time>
      </trkpt>
      <trkpt lat="50.77231" lon="2.30173">
        <ele>7.4</ele>
        <time>2025-10-01T13:27:08Z</time>
      </trkpt>
      <trkpt lat="50.77232" lon="2.30173">
        <ele>7.4</ele>
        <time>2025-10-01T13:27:09Z</time>
      </trkpt>
      <trkpt lat="50.77235" lon="2.30173">
        <ele>7.4</ele>
        <time>2025-10-01T13:27:12Z</time>
      </trkpt>
      <trkpt lat="50.77236" lon="2.30174">
        <ele>7.4</ele>
        <time>2025-10-01T13:27:13Z</time>
      </trkpt>
      <trkpt lat="50.77237" lon="2.30174">
        <ele>7.4</ele>
        <time>2025-10-01T13:27:14Z</time>
      </trkpt>
      <trkpt lat="50.77237" lon="2.30174">
        <ele>7.4</ele>
        <time>2025-10-01T13:27:15Z</time>
      </trkpt>
      <trkpt lat="50.77238" lon="2.30174">
        <ele>7.4</ele>
        <time>2025-10-01T13:27:16Z</time>
      </trkpt>
      <trkpt lat="50.77238" lon="2.30173">
        <ele>7.4</ele>
        <time>2025-10-01T13:27:17Z</time>
      </trkpt>
      <trkpt lat="50.77239" lon="2.30172">
        <ele>7.4</ele>
        <time>2025-10-01T13:27:18Z</time>
      </trkpt>
      <trkpt lat="50.7724" lon="2.30171">
        <ele>7.2</ele>
        <time>2025-10-01T13:27:19Z</time>
      </trkpt>
      <trkpt lat="50.77241" lon="2.3017">
        <ele>7.2</ele>
        <time>2025-10-01T13:27:20Z</time>
      </trkpt>
      <trkpt lat="50.77242" lon="2.30169">
        <ele>7.2</ele>
        <time>2025-10-01T13:27:21Z</time>
      </trkpt>
      <trkpt lat="50.77243" lon="2.30168">
        <ele>7.2</ele>
        <time>2025-10-01T13:27:22Z</time>
      </trkpt>
      <trkpt lat="50.77244" lon="2.30167">
        <ele>7.2</ele>
        <time>2025-10-01T13:27:23Z</time>
      </trkpt>
      <trkpt lat="50.77246" lon="2.30166">
        <ele>7.2</ele>
        <time>2025-10-01T13:27:24Z</time>
      </trkpt>
      <trkpt lat="50.77247" lon="2.30165">
        <ele>7.2</ele>
        <time>2025-10-01T13:27:25Z</time>
      </trkpt>
      <trkpt lat="50.77249" lon="2.30162">
        <ele>7.2</ele>
        <time>2025-10-01T13:27:27Z</time>
      </trkpt>
      <trkpt lat="50.7725" lon="2.30161">
        <ele>7.2</ele>
        <time>2025-10-01T13:27:28Z</time>
      </trkpt>
      <trkpt lat="50.77252" lon="2.30159">
        <ele>7.2</ele>
        <time>2025-10-01T13:27:30Z</time>
      </trkpt>
      <trkpt lat="50.77254" lon="2.30158">
        <ele>7.2</ele>
        <time>2025-10-01T13:27:31Z</time>
      </trkpt>
      <trkpt lat="50.77254" lon="2.30157">
        <ele>7.2</ele>
        <time>2025-10-01T13:27:32Z</time>
      </trkpt>
      <trkpt lat="50.77258" lon="2.30154">
        <ele>7.2</ele>
        <time>2025-10-01T13:27:35Z</time>
      </trkpt>
      <trkpt lat="50.77261" lon="2.30153">
        <ele>7.2</ele>
        <time>2025-10-01T13:27:37Z</time>
      </trkpt>
      <trkpt lat="50.77262" lon="2.30152">
        <ele>7.2</ele>
        <time>2025-10-01T13:27:38Z</time>
      </trkpt>
      <trkpt lat="50.77265" lon="2.30151">
        <ele>7.4</ele>
        <time>2025-10-01T13:27:40Z</time>
      </trkpt>
      <trkpt lat="50.77268" lon="2.30149">
        <ele>7.4</ele>
        <time>2025-10-01T13:27:42Z</time>
      </trkpt>
      <trkpt lat="50.77269" lon="2.30148">
        <ele>7.4</ele>
        <time>2025-10-01T13:27:43Z</time>
      </trkpt>
      <trkpt lat="50.77269" lon="2.30147">
        <ele>7.4</ele>
        <time>2025-10-01T13:27:44Z</time>
      </trkpt>
      <trkpt lat="50.7727" lon="2.30147">
        <ele>7.4</ele>
        <time>2025-10-01T13:27:45Z</time>
      </trkpt>
      <trkpt lat="50.77271" lon="2.30147">
        <ele>7.4</ele>
        <time>2025-10-01T13:27:46Z</time>
      </trkpt>
      <trkpt lat="50.77272" lon="2.30145">
        <ele>7.4</ele>
        <time>2025-10-01T13:27:47Z</time>
      </trkpt>
      <trkpt lat="50.77275" lon="2.30141">
        <ele>7.6</ele>
        <time>2025-10-01T13:27:50Z</time>
      </trkpt>
      <trkpt lat="50.77276" lon="2.3014">
        <ele>7.6</ele>
        <time>2025-10-01T13:27:51Z</time>
      </trkpt>
      <trkpt lat="50.77277" lon="2.30139">
        <ele>7.6</ele>
        <time>2025-10-01T13:27:52Z</time>
      </trkpt>
      <trkpt lat="50.77278" lon="2.30138">
        <ele>7.6</ele>
        <time>2025-10-01T13:27:53Z</time>
      </trkpt>
      <trkpt lat="50.77279" lon="2.30137">
        <ele>7.6</ele>
        <time>2025-10-01T13:27:54Z</time>
      </trkpt>
      <trkpt lat="50.77279" lon="2.30135">
        <ele>7.6</ele>
        <time>2025-10-01T13:27:55Z</time>
      </trkpt>
      <trkpt lat="50.7728" lon="2.30134">
        <ele>7.6</ele>
        <time>2025-10-01T13:27:56Z</time>
      </trkpt>
      <trkpt lat="50.77282" lon="2.30133">
        <ele>7.6</ele>
        <time>2025-10-01T13:27:57Z</time>
      </trkpt>
      <trkpt lat="50.77283" lon="2.30132">
        <ele>7.6</ele>
        <time>2025-10-01T13:27:58Z</time>
      </trkpt>
      <trkpt lat="50.77285" lon="2.3013">
        <ele>7.6</ele>
        <time>2025-10-01T13:28:00Z</time>
      </trkpt>
      <trkpt lat="50.77286" lon="2.30129">
        <ele>7.8</ele>
        <time>2025-10-01T13:28:01Z</time>
      </trkpt>
      <trkpt lat="50.77287" lon="2.30127">
        <ele>7.8</ele>
        <time>2025-10-01T13:28:02Z</time>
      </trkpt>
      <trkpt lat="50.77288" lon="2.30126">
        <ele>7.8</ele>
        <time>2025-10-01T13:28:03Z</time>
      </trkpt>
      <trkpt lat="50.77289" lon="2.30125">
        <ele>7.6</ele>
        <time>2025-10-01T13:28:04Z</time>
      </trkpt>
      <trkpt lat="50.7729" lon="2.30124">
        <ele>7.6</ele>
        <time>2025-10-01T13:28:05Z</time>
      </trkpt>
      <trkpt lat="50.77292" lon="2.30123">
        <ele>7.6</ele>
        <time>2025-10-01T13:28:06Z</time>
      </trkpt>
      <trkpt lat="50.77293" lon="2.30123">
        <ele>7.6</ele>
        <time>2025-10-01T13:28:07Z</time>
      </trkpt>
      <trkpt lat="50.77294" lon="2.30121">
        <ele>7.6</ele>
        <time>2025-10-01T13:28:08Z</time>
      </trkpt>
      <trkpt lat="50.77296" lon="2.3012">
        <ele>7.6</ele>
        <time>2025-10-01T13:28:09Z</time>
      </trkpt>
      <trkpt lat="50.77297" lon="2.30118">
        <ele>7.6</ele>
        <time>2025-10-01T13:28:10Z</time>
      </trkpt>
      <trkpt lat="50.77299" lon="2.30117">
        <ele>7.6</ele>
        <time>2025-10-01T13:28:11Z</time>
      </trkpt>
      <trkpt lat="50.77302" lon="2.30114">
        <ele>7.6</ele>
        <time>2025-10-01T13:28:13Z</time>
      </trkpt>
      <trkpt lat="50.77303" lon="2.30113">
        <ele>7.6</ele>
        <time>2025-10-01T13:28:14Z</time>
      </trkpt>
      <trkpt lat="50.77304" lon="2.30112">
        <ele>7.6</ele>
        <time>2025-10-01T13:28:15Z</time>
      </trkpt>
      <trkpt lat="50.77307" lon="2.30108">
        <ele>7.6</ele>
        <time>2025-10-01T13:28:17Z</time>
      </trkpt>
      <trkpt lat="50.77308" lon="2.30107">
        <ele>7.6</ele>
        <time>2025-10-01T13:28:18Z</time>
      </trkpt>
      <trkpt lat="50.77309" lon="2.30107">
        <ele>7.6</ele>
        <time>2025-10-01T13:28:19Z</time>
      </trkpt>
      <trkpt lat="50.7731" lon="2.30105">
        <ele>7.6</ele>
        <time>2025-10-01T13:28:20Z</time>
      </trkpt>
      <trkpt lat="50.77311" lon="2.30104">
        <ele>7.6</ele>
        <time>2025-10-01T13:28:21Z</time>
      </trkpt>
      <trkpt lat="50.77312" lon="2.30103">
        <ele>7.6</ele>
        <time>2025-10-01T13:28:22Z</time>
      </trkpt>
      <trkpt lat="50.77313" lon="2.30102">
        <ele>7.6</ele>
        <time>2025-10-01T13:28:23Z</time>
      </trkpt>
      <trkpt lat="50.77314" lon="2.30101">
        <ele>7.4</ele>
        <time>2025-10-01T13:28:24Z</time>
      </trkpt>
      <trkpt lat="50.77315" lon="2.30099">
        <ele>7.4</ele>
        <time>2025-10-01T13:28:25Z</time>
      </trkpt>
      <trkpt lat="50.77316" lon="2.30098">
        <ele>7.4</ele>
        <time>2025-10-01T13:28:26Z</time>
      </trkpt>
      <trkpt lat="50.77317" lon="2.30097">
        <ele>7.4</ele>
        <time>2025-10-01T13:28:27Z</time>
      </trkpt>
      <trkpt lat="50.77321" lon="2.30092">
        <ele>7.4</ele>
        <time>2025-10-01T13:28:31Z</time>
      </trkpt>
      <trkpt lat="50.77323" lon="2.30089">
        <ele>7.4</ele>
        <time>2025-10-01T13:28:33Z</time>
      </trkpt>
      <trkpt lat="50.77324" lon="2.30088">
        <ele>7.4</ele>
        <time>2025-10-01T13:28:34Z</time>
      </trkpt>
      <trkpt lat="50.77329" lon="2.30083">
        <ele>7.4</ele>
        <time>2025-10-01T13:28:38Z</time>
      </trkpt>
      <trkpt lat="50.77331" lon="2.30081">
        <ele>7.4</ele>
        <time>2025-10-01T13:28:39Z</time>
      </trkpt>
      <trkpt lat="50.77332" lon="2.30079">
        <ele>7.4</ele>
        <time>2025-10-01T13:28:40Z</time>
      </trkpt>
      <trkpt lat="50.77335" lon="2.30077">
        <ele>7.4</ele>
        <time>2025-10-01T13:28:42Z</time>
      </trkpt>
      <trkpt lat="50.77336" lon="2.30076">
        <ele>7.4</ele>
        <time>2025-10-01T13:28:43Z</time>
      </trkpt>
      <trkpt lat="50.77337" lon="2.30075">
        <ele>7.6</ele>
        <time>2025-10-01T13:28:44Z</time>
      </trkpt>
      <trkpt lat="50.77338" lon="2.30074">
        <ele>7.6</ele>
        <time>2025-10-01T13:28:45Z</time>
      </trkpt>
      <trkpt lat="50.77338" lon="2.30073">
        <ele>7.6</ele>
        <time>2025-10-01T13:28:46Z</time>
      </trkpt>
      <trkpt lat="50.77339" lon="2.30072">
        <ele>7.6</ele>
        <time>2025-10-01T13:28:47Z</time>
      </trkpt>
      <trkpt lat="50.7734" lon="2.30071">
        <ele>7.6</ele>
        <time>2025-10-01T13:28:48Z</time>
      </trkpt>
      <trkpt lat="50.77341" lon="2.3007">
        <ele>7.6</ele>
        <time>2025-10-01T13:28:49Z</time>
      </trkpt>
      <trkpt lat="50.77342" lon="2.30069">
        <ele>7.6</ele>
        <time>2025-10-01T13:28:50Z</time>
      </trkpt>
      <trkpt lat="50.77342" lon="2.30068">
        <ele>7.6</ele>
        <time>2025-10-01T13:28:51Z</time>
      </trkpt>
      <trkpt lat="50.77343" lon="2.30067">
        <ele>7.6</ele>
        <time>2025-10-01T13:28:52Z</time>
      </trkpt>
      <trkpt lat="50.77344" lon="2.30066">
        <ele>7.6</ele>
        <time>2025-10-01T13:28:53Z</time>
      </trkpt>
      <trkpt lat="50.77345" lon="2.30064">
        <ele>7.6</ele>
        <time>2025-10-01T13:28:54Z</time>
      </trkpt>
      <trkpt lat="50.77346" lon="2.30062">
        <ele>7.6</ele>
        <time>2025-10-01T13:28:55Z</time>
      </trkpt>
      <trkpt lat="50.77347" lon="2.30061">
        <ele>7.6</ele>
        <time>2025-10-01T13:28:56Z</time>
      </trkpt>
      <trkpt lat="50.77349" lon="2.3006">
        <ele>7.6</ele>
        <time>2025-10-01T13:28:57Z</time>
      </trkpt>
      <trkpt lat="50.7735" lon="2.30059">
        <ele>7.6</ele>
        <time>2025-10-01T13:28:58Z</time>
      </trkpt>
      <trkpt lat="50.77352" lon="2.30056">
        <ele>7.6</ele>
        <time>2025-10-01T13:29:00Z</time>
      </trkpt>
      <trkpt lat="50.77352" lon="2.30056">
        <ele>7.6</ele>
        <time>2025-10-01T13:29:01Z</time>
      </trkpt>
      <trkpt lat="50.77353" lon="2.30054">
        <ele>7.4</ele>
        <time>2025-10-01T13:29:02Z</time>
      </trkpt>
      <trkpt lat="50.77354" lon="2.30053">
        <ele>7.4</ele>
        <time>2025-10-01T13:29:03Z</time>
      </trkpt>
      <trkpt lat="50.77357" lon="2.30051">
        <ele>7.4</ele>
        <time>2025-10-01T13:29:05Z</time>
      </trkpt>
      <trkpt lat="50.77358" lon="2.3005">
        <ele>7.4</ele>
        <time>2025-10-01T13:29:06Z</time>
      </trkpt>
      <trkpt lat="50.7736" lon="2.30046">
        <ele>7.4</ele>
        <time>2025-10-01T13:29:08Z</time>
      </trkpt>
      <trkpt lat="50.7736" lon="2.30045">
        <ele>7.4</ele>
        <time>2025-10-01T13:29:09Z</time>
      </trkpt>
      <trkpt lat="50.7736" lon="2.30044">
        <ele>7.4</ele>
        <time>2025-10-01T13:29:10Z</time>
      </trkpt>
      <trkpt lat="50.77361" lon="2.30043">
        <ele>7.2</ele>
        <time>2025-10-01T13:29:11Z</time>
      </trkpt>
      <trkpt lat="50.77362" lon="2.30042">
        <ele>7.2</ele>
        <time>2025-10-01T13:29:12Z</time>
      </trkpt>
      <trkpt lat="50.77363" lon="2.30042">
        <ele>7.2</ele>
        <time>2025-10-01T13:29:13Z</time>
      </trkpt>
      <trkpt lat="50.77364" lon="2.30041">
        <ele>7.2</ele>
        <time>2025-10-01T13:29:14Z</time>
      </trkpt>
      <trkpt lat="50.77365" lon="2.3004">
        <ele>7.2</ele>
        <time>2025-10-01T13:29:15Z</time>
      </trkpt>
      <trkpt lat="50.77371" lon="2.30033">
        <ele>6.8</ele>
        <time>2025-10-01T13:29:20Z</time>
      </trkpt>
    </trkseg>
  </trk>
</gpx>